<?xml version="1.0" encoding="UTF-8" standalone="no" ?>
<gpx xmlns="http://www.topografix.com/GPX/1/1" xmlns:xsi="http://www.w3.org/2001/XMLSchema-instance" xsi:schemaLocation="http://www.topografix.com/GPX/1/1 http://www.topografix.com/GPX/1/1/gpx.xsd" version="1.1" creator="VisuGPX - https://www.visugpx.com">
  <metadata>
    <name>[ASCT] Randonnée entre Coubert, Soignolles et Solers</name>
    <desc><![CDATA[Bords de l\'Yerres, Chemin des Roses, Chateau de Barneau]]></desc>
  </metadata>
  <trk>
    <name><![CDATA[Coubert Course à pied]]></name>
    <trkseg>
      <trkpt lat="48.66614" lon="2.69808">
        <ele>84.2</ele>
        <time>2015-04-25T07:26:12.000Z</time>
      </trkpt>
      <trkpt lat="48.66612" lon="2.69809">
        <ele>84.2</ele>
        <time>2015-04-25T07:26:15.000Z</time>
      </trkpt>
      <trkpt lat="48.6661" lon="2.69812">
        <ele>84.2</ele>
        <time>2015-04-25T07:26:18.000Z</time>
      </trkpt>
      <trkpt lat="48.66607" lon="2.69817">
        <ele>84.3</ele>
        <time>2015-04-25T07:26:22.000Z</time>
      </trkpt>
      <trkpt lat="48.66606" lon="2.69816">
        <ele>84.2</ele>
        <time>2015-04-25T07:26:27.000Z</time>
      </trkpt>
      <trkpt lat="48.66605" lon="2.69817">
        <ele>84.2</ele>
        <time>2015-04-25T07:26:35.000Z</time>
      </trkpt>
      <trkpt lat="48.66603" lon="2.69818">
        <ele>84.2</ele>
        <time>2015-04-25T07:26:37.000Z</time>
      </trkpt>
      <trkpt lat="48.66601" lon="2.6982">
        <ele>84.2</ele>
        <time>2015-04-25T07:26:40.000Z</time>
      </trkpt>
      <trkpt lat="48.66595" lon="2.69828">
        <ele>84.2</ele>
        <time>2015-04-25T07:26:47.000Z</time>
      </trkpt>
      <trkpt lat="48.66589" lon="2.69834">
        <ele>84.2</ele>
        <time>2015-04-25T07:26:53.000Z</time>
      </trkpt>
      <trkpt lat="48.66589" lon="2.69835">
        <ele>84.2</ele>
        <time>2015-04-25T07:26:54.000Z</time>
      </trkpt>
      <trkpt lat="48.66585" lon="2.69842">
        <ele>84.3</ele>
        <time>2015-04-25T07:26:59.000Z</time>
      </trkpt>
      <trkpt lat="48.66578" lon="2.69849">
        <ele>84.4</ele>
        <time>2015-04-25T07:27:06.000Z</time>
      </trkpt>
      <trkpt lat="48.66574" lon="2.69855">
        <ele>84.4</ele>
        <time>2015-04-25T07:27:11.000Z</time>
      </trkpt>
      <trkpt lat="48.66568" lon="2.69862">
        <ele>84.4</ele>
        <time>2015-04-25T07:27:16.000Z</time>
      </trkpt>
      <trkpt lat="48.66566" lon="2.69865">
        <ele>84.4</ele>
        <time>2015-04-25T07:27:18.000Z</time>
      </trkpt>
      <trkpt lat="48.66558" lon="2.69874">
        <ele>84.1</ele>
        <time>2015-04-25T07:27:25.000Z</time>
      </trkpt>
      <trkpt lat="48.66551" lon="2.6988">
        <ele>83.9</ele>
        <time>2015-04-25T07:27:32.000Z</time>
      </trkpt>
      <trkpt lat="48.66544" lon="2.69885">
        <ele>83.9</ele>
        <time>2015-04-25T07:27:38.000Z</time>
      </trkpt>
      <trkpt lat="48.66538" lon="2.69888">
        <ele>84</ele>
        <time>2015-04-25T07:27:44.000Z</time>
      </trkpt>
      <trkpt lat="48.6653" lon="2.69894">
        <ele>84</ele>
        <time>2015-04-25T07:27:50.000Z</time>
      </trkpt>
      <trkpt lat="48.66529" lon="2.69895">
        <ele>84</ele>
        <time>2015-04-25T07:27:51.000Z</time>
      </trkpt>
      <trkpt lat="48.66524" lon="2.69897">
        <ele>83.9</ele>
        <time>2015-04-25T07:27:56.000Z</time>
      </trkpt>
      <trkpt lat="48.66522" lon="2.69898">
        <ele>83.9</ele>
        <time>2015-04-25T07:27:58.000Z</time>
      </trkpt>
      <trkpt lat="48.66517" lon="2.699">
        <ele>83.8</ele>
        <time>2015-04-25T07:28:02.000Z</time>
      </trkpt>
      <trkpt lat="48.66516" lon="2.699">
        <ele>83.7</ele>
        <time>2015-04-25T07:28:03.000Z</time>
      </trkpt>
      <trkpt lat="48.66511" lon="2.69902">
        <ele>83.7</ele>
        <time>2015-04-25T07:28:07.000Z</time>
      </trkpt>
      <trkpt lat="48.66507" lon="2.69903">
        <ele>83.6</ele>
        <time>2015-04-25T07:28:10.000Z</time>
      </trkpt>
      <trkpt lat="48.66499" lon="2.6991">
        <ele>83.8</ele>
        <time>2015-04-25T07:28:18.000Z</time>
      </trkpt>
      <trkpt lat="48.66498" lon="2.6991">
        <ele>83.8</ele>
        <time>2015-04-25T07:28:19.000Z</time>
      </trkpt>
      <trkpt lat="48.66492" lon="2.69914">
        <ele>83.9</ele>
        <time>2015-04-25T07:28:24.000Z</time>
      </trkpt>
      <trkpt lat="48.66484" lon="2.69917">
        <ele>84</ele>
        <time>2015-04-25T07:28:31.000Z</time>
      </trkpt>
      <trkpt lat="48.66479" lon="2.69921">
        <ele>84</ele>
        <time>2015-04-25T07:28:35.000Z</time>
      </trkpt>
      <trkpt lat="48.66473" lon="2.69925">
        <ele>84</ele>
        <time>2015-04-25T07:28:40.000Z</time>
      </trkpt>
      <trkpt lat="48.66471" lon="2.69926">
        <ele>84</ele>
        <time>2015-04-25T07:28:41.000Z</time>
      </trkpt>
      <trkpt lat="48.66462" lon="2.69934">
        <ele>83.9</ele>
        <time>2015-04-25T07:28:49.000Z</time>
      </trkpt>
      <trkpt lat="48.66459" lon="2.69937">
        <ele>83.9</ele>
        <time>2015-04-25T07:28:52.000Z</time>
      </trkpt>
      <trkpt lat="48.66455" lon="2.69939">
        <ele>83.9</ele>
        <time>2015-04-25T07:28:55.000Z</time>
      </trkpt>
      <trkpt lat="48.66451" lon="2.69942">
        <ele>83.9</ele>
        <time>2015-04-25T07:28:59.000Z</time>
      </trkpt>
      <trkpt lat="48.66446" lon="2.69946">
        <ele>84</ele>
        <time>2015-04-25T07:29:02.000Z</time>
      </trkpt>
      <trkpt lat="48.66444" lon="2.69948">
        <ele>84</ele>
        <time>2015-04-25T07:29:04.000Z</time>
      </trkpt>
      <trkpt lat="48.66441" lon="2.69951">
        <ele>84</ele>
        <time>2015-04-25T07:29:07.000Z</time>
      </trkpt>
      <trkpt lat="48.66434" lon="2.69954">
        <ele>84</ele>
        <time>2015-04-25T07:29:13.000Z</time>
      </trkpt>
      <trkpt lat="48.6643" lon="2.69956">
        <ele>84</ele>
        <time>2015-04-25T07:29:17.000Z</time>
      </trkpt>
      <trkpt lat="48.66426" lon="2.69958">
        <ele>84</ele>
        <time>2015-04-25T07:29:20.000Z</time>
      </trkpt>
      <trkpt lat="48.66424" lon="2.6996">
        <ele>84</ele>
        <time>2015-04-25T07:29:22.000Z</time>
      </trkpt>
      <trkpt lat="48.66419" lon="2.69963">
        <ele>84</ele>
        <time>2015-04-25T07:29:26.000Z</time>
      </trkpt>
      <trkpt lat="48.6641" lon="2.69968">
        <ele>84</ele>
        <time>2015-04-25T07:29:33.000Z</time>
      </trkpt>
      <trkpt lat="48.66408" lon="2.69969">
        <ele>84</ele>
        <time>2015-04-25T07:29:35.000Z</time>
      </trkpt>
      <trkpt lat="48.66403" lon="2.69971">
        <ele>84</ele>
        <time>2015-04-25T07:29:40.000Z</time>
      </trkpt>
      <trkpt lat="48.66397" lon="2.69974">
        <ele>84.1</ele>
        <time>2015-04-25T07:29:45.000Z</time>
      </trkpt>
      <trkpt lat="48.66396" lon="2.69975">
        <ele>84.1</ele>
        <time>2015-04-25T07:29:46.000Z</time>
      </trkpt>
      <trkpt lat="48.6639" lon="2.69975">
        <ele>84.1</ele>
        <time>2015-04-25T07:29:50.000Z</time>
      </trkpt>
      <trkpt lat="48.66389" lon="2.69975">
        <ele>84.1</ele>
        <time>2015-04-25T07:29:51.000Z</time>
      </trkpt>
      <trkpt lat="48.6638" lon="2.69977">
        <ele>84.1</ele>
        <time>2015-04-25T07:29:57.000Z</time>
      </trkpt>
      <trkpt lat="48.66371" lon="2.6998">
        <ele>84.1</ele>
        <time>2015-04-25T07:30:04.000Z</time>
      </trkpt>
      <trkpt lat="48.66359" lon="2.69982">
        <ele>84</ele>
        <time>2015-04-25T07:30:12.000Z</time>
      </trkpt>
      <trkpt lat="48.66358" lon="2.69982">
        <ele>84</ele>
        <time>2015-04-25T07:30:13.000Z</time>
      </trkpt>
      <trkpt lat="48.66353" lon="2.69983">
        <ele>84</ele>
        <time>2015-04-25T07:30:17.000Z</time>
      </trkpt>
      <trkpt lat="48.66347" lon="2.69986">
        <ele>84</ele>
        <time>2015-04-25T07:30:22.000Z</time>
      </trkpt>
      <trkpt lat="48.66344" lon="2.69986">
        <ele>84</ele>
        <time>2015-04-25T07:30:24.000Z</time>
      </trkpt>
      <trkpt lat="48.66336" lon="2.69988">
        <ele>84</ele>
        <time>2015-04-25T07:30:30.000Z</time>
      </trkpt>
      <trkpt lat="48.66327" lon="2.69991">
        <ele>84.1</ele>
        <time>2015-04-25T07:30:37.000Z</time>
      </trkpt>
      <trkpt lat="48.66321" lon="2.69992">
        <ele>84.1</ele>
        <time>2015-04-25T07:30:42.000Z</time>
      </trkpt>
      <trkpt lat="48.66319" lon="2.69992">
        <ele>84.1</ele>
        <time>2015-04-25T07:30:44.000Z</time>
      </trkpt>
      <trkpt lat="48.66316" lon="2.69993">
        <ele>84.1</ele>
        <time>2015-04-25T07:30:46.000Z</time>
      </trkpt>
      <trkpt lat="48.66313" lon="2.69993">
        <ele>84.2</ele>
        <time>2015-04-25T07:30:49.000Z</time>
      </trkpt>
      <trkpt lat="48.66305" lon="2.69997">
        <ele>84.1</ele>
        <time>2015-04-25T07:30:55.000Z</time>
      </trkpt>
      <trkpt lat="48.663" lon="2.69999">
        <ele>84</ele>
        <time>2015-04-25T07:31:00.000Z</time>
      </trkpt>
      <trkpt lat="48.66299" lon="2.7">
        <ele>84</ele>
        <time>2015-04-25T07:31:01.000Z</time>
      </trkpt>
      <trkpt lat="48.66298" lon="2.70001">
        <ele>84</ele>
        <time>2015-04-25T07:31:02.000Z</time>
      </trkpt>
      <trkpt lat="48.66291" lon="2.70005">
        <ele>84</ele>
        <time>2015-04-25T07:31:07.000Z</time>
      </trkpt>
      <trkpt lat="48.66288" lon="2.70009">
        <ele>84</ele>
        <time>2015-04-25T07:31:10.000Z</time>
      </trkpt>
      <trkpt lat="48.66284" lon="2.70013">
        <ele>84</ele>
        <time>2015-04-25T07:31:14.000Z</time>
      </trkpt>
      <trkpt lat="48.66276" lon="2.70015">
        <ele>84</ele>
        <time>2015-04-25T07:31:19.000Z</time>
      </trkpt>
      <trkpt lat="48.66272" lon="2.70017">
        <ele>84.2</ele>
        <time>2015-04-25T07:31:23.000Z</time>
      </trkpt>
      <trkpt lat="48.6627" lon="2.70017">
        <ele>84.2</ele>
        <time>2015-04-25T07:31:24.000Z</time>
      </trkpt>
      <trkpt lat="48.66263" lon="2.7002">
        <ele>84.3</ele>
        <time>2015-04-25T07:31:29.000Z</time>
      </trkpt>
      <trkpt lat="48.66258" lon="2.70022">
        <ele>84.3</ele>
        <time>2015-04-25T07:31:32.000Z</time>
      </trkpt>
      <trkpt lat="48.66253" lon="2.70023">
        <ele>84.3</ele>
        <time>2015-04-25T07:31:36.000Z</time>
      </trkpt>
      <trkpt lat="48.66252" lon="2.70023">
        <ele>84.3</ele>
        <time>2015-04-25T07:31:37.000Z</time>
      </trkpt>
      <trkpt lat="48.66245" lon="2.70025">
        <ele>84.3</ele>
        <time>2015-04-25T07:31:42.000Z</time>
      </trkpt>
      <trkpt lat="48.66241" lon="2.70026">
        <ele>84.4</ele>
        <time>2015-04-25T07:31:45.000Z</time>
      </trkpt>
      <trkpt lat="48.66239" lon="2.70026">
        <ele>84.5</ele>
        <time>2015-04-25T07:31:47.000Z</time>
      </trkpt>
      <trkpt lat="48.66238" lon="2.70027">
        <ele>84.5</ele>
        <time>2015-04-25T07:31:48.000Z</time>
      </trkpt>
      <trkpt lat="48.6623" lon="2.70031">
        <ele>85</ele>
        <time>2015-04-25T07:31:53.000Z</time>
      </trkpt>
      <trkpt lat="48.66224" lon="2.70032">
        <ele>85.3</ele>
        <time>2015-04-25T07:31:57.000Z</time>
      </trkpt>
      <trkpt lat="48.66216" lon="2.70035">
        <ele>85.3</ele>
        <time>2015-04-25T07:32:02.000Z</time>
      </trkpt>
      <trkpt lat="48.66213" lon="2.70037">
        <ele>85.3</ele>
        <time>2015-04-25T07:32:04.000Z</time>
      </trkpt>
      <trkpt lat="48.66206" lon="2.70038">
        <ele>85.2</ele>
        <time>2015-04-25T07:32:08.000Z</time>
      </trkpt>
      <trkpt lat="48.66198" lon="2.7004">
        <ele>85</ele>
        <time>2015-04-25T07:32:14.000Z</time>
      </trkpt>
      <trkpt lat="48.66185" lon="2.70042">
        <ele>84.5</ele>
        <time>2015-04-25T07:32:23.000Z</time>
      </trkpt>
      <trkpt lat="48.66181" lon="2.70043">
        <ele>84.3</ele>
        <time>2015-04-25T07:32:26.000Z</time>
      </trkpt>
      <trkpt lat="48.66177" lon="2.70043">
        <ele>84.1</ele>
        <time>2015-04-25T07:32:29.000Z</time>
      </trkpt>
      <trkpt lat="48.66175" lon="2.70044">
        <ele>84</ele>
        <time>2015-04-25T07:32:30.000Z</time>
      </trkpt>
      <trkpt lat="48.66168" lon="2.70046">
        <ele>83.5</ele>
        <time>2015-04-25T07:32:36.000Z</time>
      </trkpt>
      <trkpt lat="48.66166" lon="2.70047">
        <ele>83.3</ele>
        <time>2015-04-25T07:32:38.000Z</time>
      </trkpt>
      <trkpt lat="48.66161" lon="2.70047">
        <ele>83.2</ele>
        <time>2015-04-25T07:32:41.000Z</time>
      </trkpt>
      <trkpt lat="48.66157" lon="2.70048">
        <ele>83.2</ele>
        <time>2015-04-25T07:32:44.000Z</time>
      </trkpt>
      <trkpt lat="48.66152" lon="2.70049">
        <ele>83.1</ele>
        <time>2015-04-25T07:32:48.000Z</time>
      </trkpt>
      <trkpt lat="48.66151" lon="2.7005">
        <ele>83.1</ele>
        <time>2015-04-25T07:32:49.000Z</time>
      </trkpt>
      <trkpt lat="48.6615" lon="2.7005">
        <ele>83.1</ele>
        <time>2015-04-25T07:32:50.000Z</time>
      </trkpt>
      <trkpt lat="48.66146" lon="2.70051">
        <ele>83</ele>
        <time>2015-04-25T07:32:53.000Z</time>
      </trkpt>
      <trkpt lat="48.66145" lon="2.70052">
        <ele>83</ele>
        <time>2015-04-25T07:32:54.000Z</time>
      </trkpt>
      <trkpt lat="48.6614" lon="2.70054">
        <ele>83</ele>
        <time>2015-04-25T07:32:57.000Z</time>
      </trkpt>
      <trkpt lat="48.66134" lon="2.70055">
        <ele>83</ele>
        <time>2015-04-25T07:33:01.000Z</time>
      </trkpt>
      <trkpt lat="48.66127" lon="2.70057">
        <ele>83</ele>
        <time>2015-04-25T07:33:06.000Z</time>
      </trkpt>
      <trkpt lat="48.66124" lon="2.70057">
        <ele>83</ele>
        <time>2015-04-25T07:33:08.000Z</time>
      </trkpt>
      <trkpt lat="48.6612" lon="2.70059">
        <ele>83.1</ele>
        <time>2015-04-25T07:33:11.000Z</time>
      </trkpt>
      <trkpt lat="48.66116" lon="2.7006">
        <ele>83.1</ele>
        <time>2015-04-25T07:33:13.000Z</time>
      </trkpt>
      <trkpt lat="48.66113" lon="2.7006">
        <ele>83</ele>
        <time>2015-04-25T07:33:15.000Z</time>
      </trkpt>
      <trkpt lat="48.66109" lon="2.70061">
        <ele>82.9</ele>
        <time>2015-04-25T07:33:18.000Z</time>
      </trkpt>
      <trkpt lat="48.66101" lon="2.70065">
        <ele>82.6</ele>
        <time>2015-04-25T07:33:24.000Z</time>
      </trkpt>
      <trkpt lat="48.66099" lon="2.70065">
        <ele>82.6</ele>
        <time>2015-04-25T07:33:25.000Z</time>
      </trkpt>
      <trkpt lat="48.6609" lon="2.70069">
        <ele>82.3</ele>
        <time>2015-04-25T07:33:31.000Z</time>
      </trkpt>
      <trkpt lat="48.66086" lon="2.70071">
        <ele>82.1</ele>
        <time>2015-04-25T07:33:34.000Z</time>
      </trkpt>
      <trkpt lat="48.66083" lon="2.70073">
        <ele>82</ele>
        <time>2015-04-25T07:33:36.000Z</time>
      </trkpt>
      <trkpt lat="48.66071" lon="2.70077">
        <ele>81.9</ele>
        <time>2015-04-25T07:33:44.000Z</time>
      </trkpt>
      <trkpt lat="48.66062" lon="2.70077">
        <ele>81.8</ele>
        <time>2015-04-25T07:33:51.000Z</time>
      </trkpt>
      <trkpt lat="48.66054" lon="2.70078">
        <ele>81.8</ele>
        <time>2015-04-25T07:33:56.000Z</time>
      </trkpt>
      <trkpt lat="48.66046" lon="2.7008">
        <ele>81.9</ele>
        <time>2015-04-25T07:34:01.000Z</time>
      </trkpt>
      <trkpt lat="48.66036" lon="2.70082">
        <ele>81.9</ele>
        <time>2015-04-25T07:34:08.000Z</time>
      </trkpt>
      <trkpt lat="48.66035" lon="2.70082">
        <ele>81.9</ele>
        <time>2015-04-25T07:34:09.000Z</time>
      </trkpt>
      <trkpt lat="48.66029" lon="2.70084">
        <ele>82</ele>
        <time>2015-04-25T07:34:13.000Z</time>
      </trkpt>
      <trkpt lat="48.66027" lon="2.70085">
        <ele>82</ele>
        <time>2015-04-25T07:34:15.000Z</time>
      </trkpt>
      <trkpt lat="48.66022" lon="2.70087">
        <ele>81.8</ele>
        <time>2015-04-25T07:34:19.000Z</time>
      </trkpt>
      <trkpt lat="48.66016" lon="2.70088">
        <ele>81.6</ele>
        <time>2015-04-25T07:34:23.000Z</time>
      </trkpt>
      <trkpt lat="48.66014" lon="2.70089">
        <ele>81.5</ele>
        <time>2015-04-25T07:34:25.000Z</time>
      </trkpt>
      <trkpt lat="48.66011" lon="2.7009">
        <ele>81.4</ele>
        <time>2015-04-25T07:34:27.000Z</time>
      </trkpt>
      <trkpt lat="48.66007" lon="2.70092">
        <ele>81.2</ele>
        <time>2015-04-25T07:34:30.000Z</time>
      </trkpt>
      <trkpt lat="48.66005" lon="2.70093">
        <ele>81.2</ele>
        <time>2015-04-25T07:34:31.000Z</time>
      </trkpt>
      <trkpt lat="48.65994" lon="2.70097">
        <ele>80.9</ele>
        <time>2015-04-25T07:34:39.000Z</time>
      </trkpt>
      <trkpt lat="48.65988" lon="2.70098">
        <ele>80.8</ele>
        <time>2015-04-25T07:34:44.000Z</time>
      </trkpt>
      <trkpt lat="48.6598" lon="2.701">
        <ele>80.7</ele>
        <time>2015-04-25T07:34:49.000Z</time>
      </trkpt>
      <trkpt lat="48.65977" lon="2.70101">
        <ele>80.7</ele>
        <time>2015-04-25T07:34:51.000Z</time>
      </trkpt>
      <trkpt lat="48.65972" lon="2.70101">
        <ele>80.6</ele>
        <time>2015-04-25T07:34:54.000Z</time>
      </trkpt>
      <trkpt lat="48.65965" lon="2.70103">
        <ele>80.5</ele>
        <time>2015-04-25T07:34:58.000Z</time>
      </trkpt>
      <trkpt lat="48.65962" lon="2.70104">
        <ele>80.5</ele>
        <time>2015-04-25T07:35:00.000Z</time>
      </trkpt>
      <trkpt lat="48.6595" lon="2.70108">
        <ele>80.6</ele>
        <time>2015-04-25T07:35:07.000Z</time>
      </trkpt>
      <trkpt lat="48.65946" lon="2.70108">
        <ele>80.6</ele>
        <time>2015-04-25T07:35:10.000Z</time>
      </trkpt>
      <trkpt lat="48.65943" lon="2.70109">
        <ele>80.7</ele>
        <time>2015-04-25T07:35:13.000Z</time>
      </trkpt>
      <trkpt lat="48.65932" lon="2.70111">
        <ele>81</ele>
        <time>2015-04-25T07:35:18.000Z</time>
      </trkpt>
      <trkpt lat="48.65931" lon="2.70111">
        <ele>81</ele>
        <time>2015-04-25T07:35:19.000Z</time>
      </trkpt>
      <trkpt lat="48.65927" lon="2.70112">
        <ele>80.9</ele>
        <time>2015-04-25T07:35:22.000Z</time>
      </trkpt>
      <trkpt lat="48.65917" lon="2.70113">
        <ele>80.9</ele>
        <time>2015-04-25T07:35:29.000Z</time>
      </trkpt>
      <trkpt lat="48.65912" lon="2.70115">
        <ele>80.6</ele>
        <time>2015-04-25T07:35:32.000Z</time>
      </trkpt>
      <trkpt lat="48.65906" lon="2.70116">
        <ele>80.4</ele>
        <time>2015-04-25T07:35:36.000Z</time>
      </trkpt>
      <trkpt lat="48.659" lon="2.70116">
        <ele>80.3</ele>
        <time>2015-04-25T07:35:41.000Z</time>
      </trkpt>
      <trkpt lat="48.65892" lon="2.70118">
        <ele>80.1</ele>
        <time>2015-04-25T07:35:47.000Z</time>
      </trkpt>
      <trkpt lat="48.65889" lon="2.7012">
        <ele>80</ele>
        <time>2015-04-25T07:35:50.000Z</time>
      </trkpt>
      <trkpt lat="48.65887" lon="2.70121">
        <ele>79.9</ele>
        <time>2015-04-25T07:35:51.000Z</time>
      </trkpt>
      <trkpt lat="48.65884" lon="2.70121">
        <ele>79.8</ele>
        <time>2015-04-25T07:35:53.000Z</time>
      </trkpt>
      <trkpt lat="48.6588" lon="2.70122">
        <ele>79.6</ele>
        <time>2015-04-25T07:35:55.000Z</time>
      </trkpt>
      <trkpt lat="48.65873" lon="2.70124">
        <ele>79.4</ele>
        <time>2015-04-25T07:36:00.000Z</time>
      </trkpt>
      <trkpt lat="48.6587" lon="2.70126">
        <ele>79.4</ele>
        <time>2015-04-25T07:36:02.000Z</time>
      </trkpt>
      <trkpt lat="48.6586" lon="2.70128">
        <ele>79.2</ele>
        <time>2015-04-25T07:36:08.000Z</time>
      </trkpt>
      <trkpt lat="48.65852" lon="2.7013">
        <ele>79.5</ele>
        <time>2015-04-25T07:36:14.000Z</time>
      </trkpt>
      <trkpt lat="48.65843" lon="2.70131">
        <ele>79.7</ele>
        <time>2015-04-25T07:36:19.000Z</time>
      </trkpt>
      <trkpt lat="48.65837" lon="2.70132">
        <ele>80</ele>
        <time>2015-04-25T07:36:22.000Z</time>
      </trkpt>
      <trkpt lat="48.65834" lon="2.70134">
        <ele>80.2</ele>
        <time>2015-04-25T07:36:24.000Z</time>
      </trkpt>
      <trkpt lat="48.65823" lon="2.70139">
        <ele>80.6</ele>
        <time>2015-04-25T07:36:30.000Z</time>
      </trkpt>
      <trkpt lat="48.65821" lon="2.70139">
        <ele>80.6</ele>
        <time>2015-04-25T07:36:31.000Z</time>
      </trkpt>
      <trkpt lat="48.6581" lon="2.70143">
        <ele>80.3</ele>
        <time>2015-04-25T07:36:37.000Z</time>
      </trkpt>
      <trkpt lat="48.65803" lon="2.70145">
        <ele>80.2</ele>
        <time>2015-04-25T07:36:42.000Z</time>
      </trkpt>
      <trkpt lat="48.65801" lon="2.70146">
        <ele>80.1</ele>
        <time>2015-04-25T07:36:43.000Z</time>
      </trkpt>
      <trkpt lat="48.65795" lon="2.70148">
        <ele>80.1</ele>
        <time>2015-04-25T07:36:47.000Z</time>
      </trkpt>
      <trkpt lat="48.65792" lon="2.70149">
        <ele>80.1</ele>
        <time>2015-04-25T07:36:49.000Z</time>
      </trkpt>
      <trkpt lat="48.65782" lon="2.70151">
        <ele>80</ele>
        <time>2015-04-25T07:36:54.000Z</time>
      </trkpt>
      <trkpt lat="48.65776" lon="2.70155">
        <ele>80.2</ele>
        <time>2015-04-25T07:36:57.000Z</time>
      </trkpt>
      <trkpt lat="48.6577" lon="2.70157">
        <ele>80.2</ele>
        <time>2015-04-25T07:37:01.000Z</time>
      </trkpt>
      <trkpt lat="48.65769" lon="2.70158">
        <ele>80.3</ele>
        <time>2015-04-25T07:37:02.000Z</time>
      </trkpt>
      <trkpt lat="48.65768" lon="2.70167">
        <ele>81</ele>
        <time>2015-04-25T07:37:06.000Z</time>
      </trkpt>
      <trkpt lat="48.65768" lon="2.70169">
        <ele>81.3</ele>
        <time>2015-04-25T07:37:07.000Z</time>
      </trkpt>
      <trkpt lat="48.65763" lon="2.70177">
        <ele>82.1</ele>
        <time>2015-04-25T07:37:13.000Z</time>
      </trkpt>
      <trkpt lat="48.65762" lon="2.70178">
        <ele>82.2</ele>
        <time>2015-04-25T07:37:14.000Z</time>
      </trkpt>
      <trkpt lat="48.65759" lon="2.70182">
        <ele>82.4</ele>
        <time>2015-04-25T07:37:17.000Z</time>
      </trkpt>
      <trkpt lat="48.65758" lon="2.70184">
        <ele>82.6</ele>
        <time>2015-04-25T07:37:19.000Z</time>
      </trkpt>
      <trkpt lat="48.65756" lon="2.70187">
        <ele>82.8</ele>
        <time>2015-04-25T07:37:21.000Z</time>
      </trkpt>
      <trkpt lat="48.65755" lon="2.70187">
        <ele>82.7</ele>
        <time>2015-04-25T07:37:22.000Z</time>
      </trkpt>
      <trkpt lat="48.65753" lon="2.70187">
        <ele>82.6</ele>
        <time>2015-04-25T07:37:24.000Z</time>
      </trkpt>
      <trkpt lat="48.6575" lon="2.7019">
        <ele>82.7</ele>
        <time>2015-04-25T07:37:27.000Z</time>
      </trkpt>
      <trkpt lat="48.65749" lon="2.70191">
        <ele>82.7</ele>
        <time>2015-04-25T07:37:28.000Z</time>
      </trkpt>
      <trkpt lat="48.65745" lon="2.70193">
        <ele>82.8</ele>
        <time>2015-04-25T07:37:31.000Z</time>
      </trkpt>
      <trkpt lat="48.65736" lon="2.70201">
        <ele>83.1</ele>
        <time>2015-04-25T07:37:37.000Z</time>
      </trkpt>
      <trkpt lat="48.65729" lon="2.70208">
        <ele>83.6</ele>
        <time>2015-04-25T07:37:43.000Z</time>
      </trkpt>
      <trkpt lat="48.65728" lon="2.70209">
        <ele>83.6</ele>
        <time>2015-04-25T07:37:44.000Z</time>
      </trkpt>
      <trkpt lat="48.65723" lon="2.70213">
        <ele>84</ele>
        <time>2015-04-25T07:37:49.000Z</time>
      </trkpt>
      <trkpt lat="48.65721" lon="2.70215">
        <ele>84.2</ele>
        <time>2015-04-25T07:37:51.000Z</time>
      </trkpt>
      <trkpt lat="48.6572" lon="2.70219">
        <ele>84.5</ele>
        <time>2015-04-25T07:37:53.000Z</time>
      </trkpt>
      <trkpt lat="48.65717" lon="2.70226">
        <ele>85</ele>
        <time>2015-04-25T07:37:56.000Z</time>
      </trkpt>
      <trkpt lat="48.65716" lon="2.70242">
        <ele>85.7</ele>
        <time>2015-04-25T07:38:03.000Z</time>
      </trkpt>
      <trkpt lat="48.65716" lon="2.70244">
        <ele>85.8</ele>
        <time>2015-04-25T07:38:04.000Z</time>
      </trkpt>
      <trkpt lat="48.65715" lon="2.7026">
        <ele>86.5</ele>
        <time>2015-04-25T07:38:11.000Z</time>
      </trkpt>
      <trkpt lat="48.65714" lon="2.70262">
        <ele>86.6</ele>
        <time>2015-04-25T07:38:12.000Z</time>
      </trkpt>
      <trkpt lat="48.6571" lon="2.70263">
        <ele>86.7</ele>
        <time>2015-04-25T07:38:15.000Z</time>
      </trkpt>
      <trkpt lat="48.65696" lon="2.70264">
        <ele>87</ele>
        <time>2015-04-25T07:38:24.000Z</time>
      </trkpt>
      <trkpt lat="48.65685" lon="2.70271">
        <ele>87.1</ele>
        <time>2015-04-25T07:38:32.000Z</time>
      </trkpt>
      <trkpt lat="48.65676" lon="2.70277">
        <ele>87.3</ele>
        <time>2015-04-25T07:38:39.000Z</time>
      </trkpt>
      <trkpt lat="48.65665" lon="2.70284">
        <ele>87.1</ele>
        <time>2015-04-25T07:38:48.000Z</time>
      </trkpt>
      <trkpt lat="48.65654" lon="2.7029">
        <ele>86.7</ele>
        <time>2015-04-25T07:38:57.000Z</time>
      </trkpt>
      <trkpt lat="48.65642" lon="2.70294">
        <ele>86.3</ele>
        <time>2015-04-25T07:39:05.000Z</time>
      </trkpt>
      <trkpt lat="48.65633" lon="2.70302">
        <ele>86.2</ele>
        <time>2015-04-25T07:39:12.000Z</time>
      </trkpt>
      <trkpt lat="48.65628" lon="2.70307">
        <ele>86.3</ele>
        <time>2015-04-25T07:39:17.000Z</time>
      </trkpt>
      <trkpt lat="48.65626" lon="2.70308">
        <ele>86.2</ele>
        <time>2015-04-25T07:39:18.000Z</time>
      </trkpt>
      <trkpt lat="48.65619" lon="2.70311">
        <ele>85.8</ele>
        <time>2015-04-25T07:39:23.000Z</time>
      </trkpt>
      <trkpt lat="48.65616" lon="2.70313">
        <ele>85.6</ele>
        <time>2015-04-25T07:39:25.000Z</time>
      </trkpt>
      <trkpt lat="48.65606" lon="2.70324">
        <ele>85.1</ele>
        <time>2015-04-25T07:39:33.000Z</time>
      </trkpt>
      <trkpt lat="48.65603" lon="2.70327">
        <ele>85</ele>
        <time>2015-04-25T07:39:36.000Z</time>
      </trkpt>
      <trkpt lat="48.656" lon="2.70331">
        <ele>85</ele>
        <time>2015-04-25T07:39:39.000Z</time>
      </trkpt>
      <trkpt lat="48.65599" lon="2.70332">
        <ele>85</ele>
        <time>2015-04-25T07:39:40.000Z</time>
      </trkpt>
      <trkpt lat="48.6559" lon="2.70342">
        <ele>85</ele>
        <time>2015-04-25T07:39:47.000Z</time>
      </trkpt>
      <trkpt lat="48.65582" lon="2.70349">
        <ele>85</ele>
        <time>2015-04-25T07:39:53.000Z</time>
      </trkpt>
      <trkpt lat="48.65573" lon="2.70361">
        <ele>84.6</ele>
        <time>2015-04-25T07:40:01.000Z</time>
      </trkpt>
      <trkpt lat="48.65566" lon="2.70373">
        <ele>84.2</ele>
        <time>2015-04-25T07:40:08.000Z</time>
      </trkpt>
      <trkpt lat="48.6556" lon="2.70382">
        <ele>84.5</ele>
        <time>2015-04-25T07:40:13.000Z</time>
      </trkpt>
      <trkpt lat="48.65557" lon="2.70384">
        <ele>84.6</ele>
        <time>2015-04-25T07:40:15.000Z</time>
      </trkpt>
      <trkpt lat="48.6555" lon="2.70394">
        <ele>83.9</ele>
        <time>2015-04-25T07:40:22.000Z</time>
      </trkpt>
      <trkpt lat="48.6554" lon="2.70406">
        <ele>83.1</ele>
        <time>2015-04-25T07:40:30.000Z</time>
      </trkpt>
      <trkpt lat="48.6554" lon="2.70408">
        <ele>83.1</ele>
        <time>2015-04-25T07:40:31.000Z</time>
      </trkpt>
      <trkpt lat="48.65535" lon="2.70415">
        <ele>83.3</ele>
        <time>2015-04-25T07:40:35.000Z</time>
      </trkpt>
      <trkpt lat="48.65527" lon="2.70428">
        <ele>83.3</ele>
        <time>2015-04-25T07:40:42.000Z</time>
      </trkpt>
      <trkpt lat="48.65525" lon="2.7043">
        <ele>83.1</ele>
        <time>2015-04-25T07:40:44.000Z</time>
      </trkpt>
      <trkpt lat="48.65522" lon="2.70436">
        <ele>82.8</ele>
        <time>2015-04-25T07:40:47.000Z</time>
      </trkpt>
      <trkpt lat="48.65515" lon="2.70445">
        <ele>82.2</ele>
        <time>2015-04-25T07:40:53.000Z</time>
      </trkpt>
      <trkpt lat="48.65509" lon="2.70455">
        <ele>82.2</ele>
        <time>2015-04-25T07:40:59.000Z</time>
      </trkpt>
      <trkpt lat="48.65503" lon="2.70467">
        <ele>82.6</ele>
        <time>2015-04-25T07:41:05.000Z</time>
      </trkpt>
      <trkpt lat="48.65495" lon="2.70478">
        <ele>82.3</ele>
        <time>2015-04-25T07:41:12.000Z</time>
      </trkpt>
      <trkpt lat="48.65488" lon="2.70488">
        <ele>82</ele>
        <time>2015-04-25T07:41:19.000Z</time>
      </trkpt>
      <trkpt lat="48.65483" lon="2.70497">
        <ele>82</ele>
        <time>2015-04-25T07:41:24.000Z</time>
      </trkpt>
      <trkpt lat="48.65481" lon="2.70501">
        <ele>82</ele>
        <time>2015-04-25T07:41:27.000Z</time>
      </trkpt>
      <trkpt lat="48.65479" lon="2.70505">
        <ele>82</ele>
        <time>2015-04-25T07:41:29.000Z</time>
      </trkpt>
      <trkpt lat="48.65475" lon="2.7051">
        <ele>82</ele>
        <time>2015-04-25T07:41:32.000Z</time>
      </trkpt>
      <trkpt lat="48.65469" lon="2.70518">
        <ele>81.9</ele>
        <time>2015-04-25T07:41:37.000Z</time>
      </trkpt>
      <trkpt lat="48.65461" lon="2.70528">
        <ele>81.4</ele>
        <time>2015-04-25T07:41:43.000Z</time>
      </trkpt>
      <trkpt lat="48.65455" lon="2.70537">
        <ele>81.1</ele>
        <time>2015-04-25T07:41:48.000Z</time>
      </trkpt>
      <trkpt lat="48.65447" lon="2.70549">
        <ele>81.4</ele>
        <time>2015-04-25T07:41:56.000Z</time>
      </trkpt>
      <trkpt lat="48.65444" lon="2.70553">
        <ele>81.7</ele>
        <time>2015-04-25T07:41:59.000Z</time>
      </trkpt>
      <trkpt lat="48.65441" lon="2.70558">
        <ele>81.6</ele>
        <time>2015-04-25T07:42:02.000Z</time>
      </trkpt>
      <trkpt lat="48.6544" lon="2.70559">
        <ele>81.5</ele>
        <time>2015-04-25T07:42:03.000Z</time>
      </trkpt>
      <trkpt lat="48.65432" lon="2.70568">
        <ele>81.1</ele>
        <time>2015-04-25T07:42:09.000Z</time>
      </trkpt>
      <trkpt lat="48.6543" lon="2.70572">
        <ele>81.2</ele>
        <time>2015-04-25T07:42:11.000Z</time>
      </trkpt>
      <trkpt lat="48.65427" lon="2.70577">
        <ele>81.2</ele>
        <time>2015-04-25T07:42:14.000Z</time>
      </trkpt>
      <trkpt lat="48.65425" lon="2.70579">
        <ele>81.2</ele>
        <time>2015-04-25T07:42:15.000Z</time>
      </trkpt>
      <trkpt lat="48.65419" lon="2.70589">
        <ele>81.4</ele>
        <time>2015-04-25T07:42:21.000Z</time>
      </trkpt>
      <trkpt lat="48.65415" lon="2.70596">
        <ele>81.3</ele>
        <time>2015-04-25T07:42:25.000Z</time>
      </trkpt>
      <trkpt lat="48.65415" lon="2.70598">
        <ele>81.3</ele>
        <time>2015-04-25T07:42:26.000Z</time>
      </trkpt>
      <trkpt lat="48.6541" lon="2.70615">
        <ele>81.3</ele>
        <time>2015-04-25T07:42:34.000Z</time>
      </trkpt>
      <trkpt lat="48.65406" lon="2.70633">
        <ele>82.2</ele>
        <time>2015-04-25T07:42:41.000Z</time>
      </trkpt>
      <trkpt lat="48.65403" lon="2.70654">
        <ele>83</ele>
        <time>2015-04-25T07:42:50.000Z</time>
      </trkpt>
      <trkpt lat="48.65402" lon="2.70659">
        <ele>83.2</ele>
        <time>2015-04-25T07:42:52.000Z</time>
      </trkpt>
      <trkpt lat="48.65402" lon="2.70664">
        <ele>83.4</ele>
        <time>2015-04-25T07:42:54.000Z</time>
      </trkpt>
      <trkpt lat="48.65403" lon="2.70679">
        <ele>83.5</ele>
        <time>2015-04-25T07:43:00.000Z</time>
      </trkpt>
      <trkpt lat="48.65402" lon="2.70692">
        <ele>83.5</ele>
        <time>2015-04-25T07:43:05.000Z</time>
      </trkpt>
      <trkpt lat="48.65402" lon="2.70719">
        <ele>83.9</ele>
        <time>2015-04-25T07:43:16.000Z</time>
      </trkpt>
      <trkpt lat="48.65403" lon="2.70739">
        <ele>84</ele>
        <time>2015-04-25T07:43:25.000Z</time>
      </trkpt>
      <trkpt lat="48.65403" lon="2.70747">
        <ele>84</ele>
        <time>2015-04-25T07:43:28.000Z</time>
      </trkpt>
      <trkpt lat="48.65403" lon="2.70752">
        <ele>84.1</ele>
        <time>2015-04-25T07:43:30.000Z</time>
      </trkpt>
      <trkpt lat="48.65404" lon="2.70761">
        <ele>84.3</ele>
        <time>2015-04-25T07:43:34.000Z</time>
      </trkpt>
      <trkpt lat="48.65404" lon="2.70765">
        <ele>84.3</ele>
        <time>2015-04-25T07:43:36.000Z</time>
      </trkpt>
      <trkpt lat="48.65404" lon="2.7077">
        <ele>84.5</ele>
        <time>2015-04-25T07:43:38.000Z</time>
      </trkpt>
      <trkpt lat="48.65405" lon="2.70776">
        <ele>84.8</ele>
        <time>2015-04-25T07:43:41.000Z</time>
      </trkpt>
      <trkpt lat="48.65407" lon="2.70783">
        <ele>84.9</ele>
        <time>2015-04-25T07:43:44.000Z</time>
      </trkpt>
      <trkpt lat="48.65408" lon="2.70787">
        <ele>84.8</ele>
        <time>2015-04-25T07:43:46.000Z</time>
      </trkpt>
      <trkpt lat="48.65408" lon="2.70789">
        <ele>84.8</ele>
        <time>2015-04-25T07:43:47.000Z</time>
      </trkpt>
      <trkpt lat="48.6541" lon="2.70798">
        <ele>84.7</ele>
        <time>2015-04-25T07:43:52.000Z</time>
      </trkpt>
      <trkpt lat="48.65411" lon="2.70805">
        <ele>84.6</ele>
        <time>2015-04-25T07:43:55.000Z</time>
      </trkpt>
      <trkpt lat="48.65416" lon="2.70818">
        <ele>84.9</ele>
        <time>2015-04-25T07:44:01.000Z</time>
      </trkpt>
      <trkpt lat="48.65416" lon="2.7082">
        <ele>84.9</ele>
        <time>2015-04-25T07:44:02.000Z</time>
      </trkpt>
      <trkpt lat="48.65417" lon="2.70825">
        <ele>85</ele>
        <time>2015-04-25T07:44:05.000Z</time>
      </trkpt>
      <trkpt lat="48.65419" lon="2.70836">
        <ele>85.3</ele>
        <time>2015-04-25T07:44:10.000Z</time>
      </trkpt>
      <trkpt lat="48.6542" lon="2.70848">
        <ele>85.7</ele>
        <time>2015-04-25T07:44:15.000Z</time>
      </trkpt>
      <trkpt lat="48.6542" lon="2.70853">
        <ele>85.8</ele>
        <time>2015-04-25T07:44:17.000Z</time>
      </trkpt>
      <trkpt lat="48.65419" lon="2.7086">
        <ele>86</ele>
        <time>2015-04-25T07:44:22.000Z</time>
      </trkpt>
      <trkpt lat="48.65417" lon="2.70863">
        <ele>86</ele>
        <time>2015-04-25T07:44:24.000Z</time>
      </trkpt>
      <trkpt lat="48.65408" lon="2.70871">
        <ele>85.2</ele>
        <time>2015-04-25T07:44:30.000Z</time>
      </trkpt>
      <trkpt lat="48.65399" lon="2.7088">
        <ele>84.5</ele>
        <time>2015-04-25T07:44:38.000Z</time>
      </trkpt>
      <trkpt lat="48.65393" lon="2.70889">
        <ele>84.3</ele>
        <time>2015-04-25T07:44:43.000Z</time>
      </trkpt>
      <trkpt lat="48.65393" lon="2.70891">
        <ele>84.3</ele>
        <time>2015-04-25T07:44:44.000Z</time>
      </trkpt>
      <trkpt lat="48.65392" lon="2.70897">
        <ele>84.2</ele>
        <time>2015-04-25T07:44:47.000Z</time>
      </trkpt>
      <trkpt lat="48.6539" lon="2.70903">
        <ele>84.1</ele>
        <time>2015-04-25T07:44:50.000Z</time>
      </trkpt>
      <trkpt lat="48.65389" lon="2.70908">
        <ele>84</ele>
        <time>2015-04-25T07:44:52.000Z</time>
      </trkpt>
      <trkpt lat="48.65387" lon="2.7092">
        <ele>84</ele>
        <time>2015-04-25T07:44:58.000Z</time>
      </trkpt>
      <trkpt lat="48.65385" lon="2.7093">
        <ele>84.3</ele>
        <time>2015-04-25T07:45:03.000Z</time>
      </trkpt>
      <trkpt lat="48.65384" lon="2.70932">
        <ele>84.3</ele>
        <time>2015-04-25T07:45:04.000Z</time>
      </trkpt>
      <trkpt lat="48.65383" lon="2.70938">
        <ele>84.4</ele>
        <time>2015-04-25T07:45:07.000Z</time>
      </trkpt>
      <trkpt lat="48.65379" lon="2.70952">
        <ele>84.4</ele>
        <time>2015-04-25T07:45:13.000Z</time>
      </trkpt>
      <trkpt lat="48.65375" lon="2.70966">
        <ele>84.4</ele>
        <time>2015-04-25T07:45:19.000Z</time>
      </trkpt>
      <trkpt lat="48.65372" lon="2.7098">
        <ele>84.5</ele>
        <time>2015-04-25T07:45:25.000Z</time>
      </trkpt>
      <trkpt lat="48.65369" lon="2.70998">
        <ele>84.5</ele>
        <time>2015-04-25T07:45:32.000Z</time>
      </trkpt>
      <trkpt lat="48.65368" lon="2.71005">
        <ele>84.5</ele>
        <time>2015-04-25T07:45:35.000Z</time>
      </trkpt>
      <trkpt lat="48.65367" lon="2.71009">
        <ele>84.4</ele>
        <time>2015-04-25T07:45:37.000Z</time>
      </trkpt>
      <trkpt lat="48.65366" lon="2.71019">
        <ele>84.3</ele>
        <time>2015-04-25T07:45:41.000Z</time>
      </trkpt>
      <trkpt lat="48.65365" lon="2.71024">
        <ele>84.3</ele>
        <time>2015-04-25T07:45:43.000Z</time>
      </trkpt>
      <trkpt lat="48.65364" lon="2.71033">
        <ele>84.4</ele>
        <time>2015-04-25T07:45:47.000Z</time>
      </trkpt>
      <trkpt lat="48.65362" lon="2.71037">
        <ele>84.4</ele>
        <time>2015-04-25T07:45:49.000Z</time>
      </trkpt>
      <trkpt lat="48.65359" lon="2.71053">
        <ele>84.8</ele>
        <time>2015-04-25T07:45:56.000Z</time>
      </trkpt>
      <trkpt lat="48.65355" lon="2.7108">
        <ele>85.3</ele>
        <time>2015-04-25T07:46:07.000Z</time>
      </trkpt>
      <trkpt lat="48.65355" lon="2.71097">
        <ele>85</ele>
        <time>2015-04-25T07:46:14.000Z</time>
      </trkpt>
      <trkpt lat="48.65353" lon="2.71115">
        <ele>84.8</ele>
        <time>2015-04-25T07:46:22.000Z</time>
      </trkpt>
      <trkpt lat="48.65348" lon="2.7113">
        <ele>84.9</ele>
        <time>2015-04-25T07:46:29.000Z</time>
      </trkpt>
      <trkpt lat="48.65345" lon="2.71144">
        <ele>85</ele>
        <time>2015-04-25T07:46:36.000Z</time>
      </trkpt>
      <trkpt lat="48.65341" lon="2.71159">
        <ele>85.1</ele>
        <time>2015-04-25T07:46:43.000Z</time>
      </trkpt>
      <trkpt lat="48.65338" lon="2.71173">
        <ele>85.4</ele>
        <time>2015-04-25T07:46:50.000Z</time>
      </trkpt>
      <trkpt lat="48.65335" lon="2.7119">
        <ele>85.9</ele>
        <time>2015-04-25T07:46:57.000Z</time>
      </trkpt>
      <trkpt lat="48.65334" lon="2.71195">
        <ele>86</ele>
        <time>2015-04-25T07:46:59.000Z</time>
      </trkpt>
      <trkpt lat="48.65333" lon="2.71202">
        <ele>86.2</ele>
        <time>2015-04-25T07:47:02.000Z</time>
      </trkpt>
      <trkpt lat="48.65331" lon="2.71215">
        <ele>86.5</ele>
        <time>2015-04-25T07:47:08.000Z</time>
      </trkpt>
      <trkpt lat="48.6533" lon="2.71217">
        <ele>86.6</ele>
        <time>2015-04-25T07:47:09.000Z</time>
      </trkpt>
      <trkpt lat="48.65328" lon="2.7123">
        <ele>86.7</ele>
        <time>2015-04-25T07:47:15.000Z</time>
      </trkpt>
      <trkpt lat="48.65325" lon="2.71244">
        <ele>86.6</ele>
        <time>2015-04-25T07:47:21.000Z</time>
      </trkpt>
      <trkpt lat="48.65322" lon="2.71263">
        <ele>86.6</ele>
        <time>2015-04-25T07:47:29.000Z</time>
      </trkpt>
      <trkpt lat="48.6532" lon="2.71278">
        <ele>86.5</ele>
        <time>2015-04-25T07:47:35.000Z</time>
      </trkpt>
      <trkpt lat="48.65318" lon="2.71287">
        <ele>86.5</ele>
        <time>2015-04-25T07:47:39.000Z</time>
      </trkpt>
      <trkpt lat="48.65318" lon="2.71292">
        <ele>86.5</ele>
        <time>2015-04-25T07:47:41.000Z</time>
      </trkpt>
      <trkpt lat="48.65318" lon="2.71308">
        <ele>86.5</ele>
        <time>2015-04-25T07:47:48.000Z</time>
      </trkpt>
      <trkpt lat="48.65318" lon="2.71317">
        <ele>86.6</ele>
        <time>2015-04-25T07:47:52.000Z</time>
      </trkpt>
      <trkpt lat="48.65318" lon="2.7132">
        <ele>86.7</ele>
        <time>2015-04-25T07:47:53.000Z</time>
      </trkpt>
      <trkpt lat="48.65318" lon="2.71339">
        <ele>86.9</ele>
        <time>2015-04-25T07:48:01.000Z</time>
      </trkpt>
      <trkpt lat="48.65317" lon="2.71344">
        <ele>86.8</ele>
        <time>2015-04-25T07:48:04.000Z</time>
      </trkpt>
      <trkpt lat="48.65315" lon="2.71347">
        <ele>86.7</ele>
        <time>2015-04-25T07:48:06.000Z</time>
      </trkpt>
      <trkpt lat="48.65305" lon="2.7135">
        <ele>85.9</ele>
        <time>2015-04-25T07:48:12.000Z</time>
      </trkpt>
      <trkpt lat="48.65303" lon="2.7135">
        <ele>85.8</ele>
        <time>2015-04-25T07:48:13.000Z</time>
      </trkpt>
      <trkpt lat="48.6529" lon="2.71352">
        <ele>85.1</ele>
        <time>2015-04-25T07:48:21.000Z</time>
      </trkpt>
      <trkpt lat="48.65281" lon="2.71354">
        <ele>84.5</ele>
        <time>2015-04-25T07:48:27.000Z</time>
      </trkpt>
      <trkpt lat="48.65269" lon="2.71356">
        <ele>83.8</ele>
        <time>2015-04-25T07:48:35.000Z</time>
      </trkpt>
      <trkpt lat="48.65254" lon="2.71357">
        <ele>83.1</ele>
        <time>2015-04-25T07:48:45.000Z</time>
      </trkpt>
      <trkpt lat="48.65244" lon="2.71357">
        <ele>82.6</ele>
        <time>2015-04-25T07:48:52.000Z</time>
      </trkpt>
      <trkpt lat="48.65235" lon="2.71355">
        <ele>82</ele>
        <time>2015-04-25T07:48:58.000Z</time>
      </trkpt>
      <trkpt lat="48.65222" lon="2.71354">
        <ele>81.3</ele>
        <time>2015-04-25T07:49:06.000Z</time>
      </trkpt>
      <trkpt lat="48.6521" lon="2.71351">
        <ele>80.9</ele>
        <time>2015-04-25T07:49:14.000Z</time>
      </trkpt>
      <trkpt lat="48.65199" lon="2.71346">
        <ele>80.7</ele>
        <time>2015-04-25T07:49:22.000Z</time>
      </trkpt>
      <trkpt lat="48.65185" lon="2.71341">
        <ele>80.4</ele>
        <time>2015-04-25T07:49:31.000Z</time>
      </trkpt>
      <trkpt lat="48.65176" lon="2.71337">
        <ele>80.2</ele>
        <time>2015-04-25T07:49:37.000Z</time>
      </trkpt>
      <trkpt lat="48.65167" lon="2.71334">
        <ele>80</ele>
        <time>2015-04-25T07:49:43.000Z</time>
      </trkpt>
      <trkpt lat="48.65155" lon="2.71329">
        <ele>79.6</ele>
        <time>2015-04-25T07:49:51.000Z</time>
      </trkpt>
      <trkpt lat="48.65145" lon="2.71324">
        <ele>79.2</ele>
        <time>2015-04-25T07:49:58.000Z</time>
      </trkpt>
      <trkpt lat="48.65135" lon="2.71319">
        <ele>78.9</ele>
        <time>2015-04-25T07:50:05.000Z</time>
      </trkpt>
      <trkpt lat="48.65125" lon="2.71314">
        <ele>78.8</ele>
        <time>2015-04-25T07:50:12.000Z</time>
      </trkpt>
      <trkpt lat="48.65115" lon="2.71311">
        <ele>78.8</ele>
        <time>2015-04-25T07:50:19.000Z</time>
      </trkpt>
      <trkpt lat="48.65102" lon="2.71306">
        <ele>78.6</ele>
        <time>2015-04-25T07:50:28.000Z</time>
      </trkpt>
      <trkpt lat="48.65087" lon="2.71302">
        <ele>78.1</ele>
        <time>2015-04-25T07:50:38.000Z</time>
      </trkpt>
      <trkpt lat="48.65077" lon="2.71302">
        <ele>78</ele>
        <time>2015-04-25T07:50:45.000Z</time>
      </trkpt>
      <trkpt lat="48.65074" lon="2.7131">
        <ele>77.8</ele>
        <time>2015-04-25T07:50:50.000Z</time>
      </trkpt>
      <trkpt lat="48.65072" lon="2.71315">
        <ele>77.7</ele>
        <time>2015-04-25T07:50:54.000Z</time>
      </trkpt>
      <trkpt lat="48.6507" lon="2.71326">
        <ele>77.3</ele>
        <time>2015-04-25T07:51:00.000Z</time>
      </trkpt>
      <trkpt lat="48.6507" lon="2.71328">
        <ele>77.2</ele>
        <time>2015-04-25T07:51:01.000Z</time>
      </trkpt>
      <trkpt lat="48.65069" lon="2.71334">
        <ele>77</ele>
        <time>2015-04-25T07:51:04.000Z</time>
      </trkpt>
      <trkpt lat="48.65067" lon="2.71342">
        <ele>76.7</ele>
        <time>2015-04-25T07:51:08.000Z</time>
      </trkpt>
      <trkpt lat="48.65065" lon="2.71348">
        <ele>76.5</ele>
        <time>2015-04-25T07:51:11.000Z</time>
      </trkpt>
      <trkpt lat="48.65064" lon="2.71354">
        <ele>76.3</ele>
        <time>2015-04-25T07:51:14.000Z</time>
      </trkpt>
      <trkpt lat="48.65064" lon="2.71356">
        <ele>76.2</ele>
        <time>2015-04-25T07:51:15.000Z</time>
      </trkpt>
      <trkpt lat="48.65062" lon="2.71369">
        <ele>75.4</ele>
        <time>2015-04-25T07:51:21.000Z</time>
      </trkpt>
      <trkpt lat="48.6506" lon="2.71375">
        <ele>75</ele>
        <time>2015-04-25T07:51:25.000Z</time>
      </trkpt>
      <trkpt lat="48.6506" lon="2.71376">
        <ele>74.9</ele>
        <time>2015-04-25T07:51:27.000Z</time>
      </trkpt>
      <trkpt lat="48.6506" lon="2.71377">
        <ele>74.9</ele>
        <time>2015-04-25T07:51:33.000Z</time>
      </trkpt>
      <trkpt lat="48.65058" lon="2.71379">
        <ele>74.7</ele>
        <time>2015-04-25T07:51:41.000Z</time>
      </trkpt>
      <trkpt lat="48.65059" lon="2.71382">
        <ele>74.5</ele>
        <time>2015-04-25T07:51:59.000Z</time>
      </trkpt>
      <trkpt lat="48.65061" lon="2.71386">
        <ele>74.2</ele>
        <time>2015-04-25T07:52:02.000Z</time>
      </trkpt>
      <trkpt lat="48.65062" lon="2.71386">
        <ele>74.2</ele>
        <time>2015-04-25T07:52:03.000Z</time>
      </trkpt>
      <trkpt lat="48.65068" lon="2.71387">
        <ele>74.1</ele>
        <time>2015-04-25T07:52:09.000Z</time>
      </trkpt>
      <trkpt lat="48.65072" lon="2.71388">
        <ele>74.1</ele>
        <time>2015-04-25T07:52:12.000Z</time>
      </trkpt>
      <trkpt lat="48.65075" lon="2.71389">
        <ele>73.9</ele>
        <time>2015-04-25T07:52:15.000Z</time>
      </trkpt>
      <trkpt lat="48.65082" lon="2.71392">
        <ele>73.6</ele>
        <time>2015-04-25T07:52:21.000Z</time>
      </trkpt>
      <trkpt lat="48.65091" lon="2.71394">
        <ele>73.7</ele>
        <time>2015-04-25T07:52:27.000Z</time>
      </trkpt>
      <trkpt lat="48.65098" lon="2.71395">
        <ele>73.9</ele>
        <time>2015-04-25T07:52:32.000Z</time>
      </trkpt>
      <trkpt lat="48.65108" lon="2.71396">
        <ele>74.2</ele>
        <time>2015-04-25T07:52:39.000Z</time>
      </trkpt>
      <trkpt lat="48.65118" lon="2.71397">
        <ele>74.2</ele>
        <time>2015-04-25T07:52:45.000Z</time>
      </trkpt>
      <trkpt lat="48.65127" lon="2.71399">
        <ele>74.1</ele>
        <time>2015-04-25T07:52:52.000Z</time>
      </trkpt>
      <trkpt lat="48.65135" lon="2.71401">
        <ele>74</ele>
        <time>2015-04-25T07:52:57.000Z</time>
      </trkpt>
      <trkpt lat="48.65147" lon="2.71404">
        <ele>74.5</ele>
        <time>2015-04-25T07:53:05.000Z</time>
      </trkpt>
      <trkpt lat="48.65157" lon="2.71406">
        <ele>75</ele>
        <time>2015-04-25T07:53:11.000Z</time>
      </trkpt>
      <trkpt lat="48.65168" lon="2.71412">
        <ele>75.4</ele>
        <time>2015-04-25T07:53:18.000Z</time>
      </trkpt>
      <trkpt lat="48.65177" lon="2.71415">
        <ele>75.5</ele>
        <time>2015-04-25T07:53:24.000Z</time>
      </trkpt>
      <trkpt lat="48.65181" lon="2.71416">
        <ele>75.6</ele>
        <time>2015-04-25T07:53:27.000Z</time>
      </trkpt>
      <trkpt lat="48.65184" lon="2.71417">
        <ele>75.6</ele>
        <time>2015-04-25T07:53:29.000Z</time>
      </trkpt>
      <trkpt lat="48.65189" lon="2.7142">
        <ele>75.5</ele>
        <time>2015-04-25T07:53:33.000Z</time>
      </trkpt>
      <trkpt lat="48.6519" lon="2.71424">
        <ele>75.2</ele>
        <time>2015-04-25T07:53:36.000Z</time>
      </trkpt>
      <trkpt lat="48.65195" lon="2.71426">
        <ele>75.3</ele>
        <time>2015-04-25T07:53:41.000Z</time>
      </trkpt>
      <trkpt lat="48.65203" lon="2.71431">
        <ele>75.4</ele>
        <time>2015-04-25T07:53:47.000Z</time>
      </trkpt>
      <trkpt lat="48.65214" lon="2.71439">
        <ele>75.2</ele>
        <time>2015-04-25T07:53:55.000Z</time>
      </trkpt>
      <trkpt lat="48.65215" lon="2.7144">
        <ele>75.2</ele>
        <time>2015-04-25T07:53:56.000Z</time>
      </trkpt>
      <trkpt lat="48.65221" lon="2.71442">
        <ele>75.2</ele>
        <time>2015-04-25T07:54:00.000Z</time>
      </trkpt>
      <trkpt lat="48.65225" lon="2.71443">
        <ele>75.4</ele>
        <time>2015-04-25T07:54:03.000Z</time>
      </trkpt>
      <trkpt lat="48.65228" lon="2.71445">
        <ele>75.4</ele>
        <time>2015-04-25T07:54:05.000Z</time>
      </trkpt>
      <trkpt lat="48.65235" lon="2.71449">
        <ele>75.5</ele>
        <time>2015-04-25T07:54:10.000Z</time>
      </trkpt>
      <trkpt lat="48.65238" lon="2.71452">
        <ele>75.4</ele>
        <time>2015-04-25T07:54:12.000Z</time>
      </trkpt>
      <trkpt lat="48.65248" lon="2.71458">
        <ele>75.4</ele>
        <time>2015-04-25T07:54:19.000Z</time>
      </trkpt>
      <trkpt lat="48.65255" lon="2.71462">
        <ele>75.3</ele>
        <time>2015-04-25T07:54:25.000Z</time>
      </trkpt>
      <trkpt lat="48.65265" lon="2.71469">
        <ele>74.8</ele>
        <time>2015-04-25T07:54:31.000Z</time>
      </trkpt>
      <trkpt lat="48.65269" lon="2.71471">
        <ele>74.7</ele>
        <time>2015-04-25T07:54:34.000Z</time>
      </trkpt>
      <trkpt lat="48.65272" lon="2.71475">
        <ele>74.6</ele>
        <time>2015-04-25T07:54:36.000Z</time>
      </trkpt>
      <trkpt lat="48.65277" lon="2.71479">
        <ele>74.5</ele>
        <time>2015-04-25T07:54:39.000Z</time>
      </trkpt>
      <trkpt lat="48.65278" lon="2.7148">
        <ele>74.5</ele>
        <time>2015-04-25T07:54:40.000Z</time>
      </trkpt>
      <trkpt lat="48.65284" lon="2.71486">
        <ele>74.5</ele>
        <time>2015-04-25T07:54:45.000Z</time>
      </trkpt>
      <trkpt lat="48.65287" lon="2.71489">
        <ele>74.5</ele>
        <time>2015-04-25T07:54:49.000Z</time>
      </trkpt>
      <trkpt lat="48.65293" lon="2.71497">
        <ele>74.3</ele>
        <time>2015-04-25T07:54:54.000Z</time>
      </trkpt>
      <trkpt lat="48.65293" lon="2.71499">
        <ele>74.2</ele>
        <time>2015-04-25T07:54:55.000Z</time>
      </trkpt>
      <trkpt lat="48.65294" lon="2.71502">
        <ele>73.9</ele>
        <time>2015-04-25T07:54:58.000Z</time>
      </trkpt>
      <trkpt lat="48.65303" lon="2.71512">
        <ele>73.5</ele>
        <time>2015-04-25T07:55:04.000Z</time>
      </trkpt>
      <trkpt lat="48.65304" lon="2.71512">
        <ele>73.5</ele>
        <time>2015-04-25T07:55:05.000Z</time>
      </trkpt>
      <trkpt lat="48.65304" lon="2.71512">
        <ele>73.6</ele>
        <time>2015-04-25T07:55:06.000Z</time>
      </trkpt>
      <trkpt lat="48.65304" lon="2.7151">
        <ele>73.8</ele>
        <time>2015-04-25T07:55:08.000Z</time>
      </trkpt>
      <trkpt lat="48.65306" lon="2.71512">
        <ele>73.8</ele>
        <time>2015-04-25T07:55:14.000Z</time>
      </trkpt>
      <trkpt lat="48.65309" lon="2.71516">
        <ele>73.5</ele>
        <time>2015-04-25T07:55:19.000Z</time>
      </trkpt>
      <trkpt lat="48.65313" lon="2.71517">
        <ele>73.7</ele>
        <time>2015-04-25T07:55:22.000Z</time>
      </trkpt>
      <trkpt lat="48.65318" lon="2.71519">
        <ele>73.8</ele>
        <time>2015-04-25T07:55:25.000Z</time>
      </trkpt>
      <trkpt lat="48.65319" lon="2.71519">
        <ele>73.9</ele>
        <time>2015-04-25T07:55:26.000Z</time>
      </trkpt>
      <trkpt lat="48.65323" lon="2.71522">
        <ele>73.9</ele>
        <time>2015-04-25T07:55:28.000Z</time>
      </trkpt>
      <trkpt lat="48.65327" lon="2.7153">
        <ele>73.4</ele>
        <time>2015-04-25T07:55:32.000Z</time>
      </trkpt>
      <trkpt lat="48.65331" lon="2.71531">
        <ele>73.5</ele>
        <time>2015-04-25T07:55:35.000Z</time>
      </trkpt>
      <trkpt lat="48.65332" lon="2.71532">
        <ele>73.6</ele>
        <time>2015-04-25T07:55:36.000Z</time>
      </trkpt>
      <trkpt lat="48.65333" lon="2.71533">
        <ele>73.6</ele>
        <time>2015-04-25T07:55:37.000Z</time>
      </trkpt>
      <trkpt lat="48.65337" lon="2.71535">
        <ele>73.8</ele>
        <time>2015-04-25T07:55:40.000Z</time>
      </trkpt>
      <trkpt lat="48.65342" lon="2.71537">
        <ele>74</ele>
        <time>2015-04-25T07:55:44.000Z</time>
      </trkpt>
      <trkpt lat="48.65348" lon="2.71542">
        <ele>74</ele>
        <time>2015-04-25T07:55:48.000Z</time>
      </trkpt>
      <trkpt lat="48.6535" lon="2.71544">
        <ele>74</ele>
        <time>2015-04-25T07:55:50.000Z</time>
      </trkpt>
      <trkpt lat="48.65358" lon="2.71549">
        <ele>74.2</ele>
        <time>2015-04-25T07:55:54.000Z</time>
      </trkpt>
      <trkpt lat="48.65365" lon="2.71555">
        <ele>74.4</ele>
        <time>2015-04-25T07:55:59.000Z</time>
      </trkpt>
      <trkpt lat="48.65366" lon="2.71556">
        <ele>74.4</ele>
        <time>2015-04-25T07:56:00.000Z</time>
      </trkpt>
      <trkpt lat="48.65368" lon="2.71556">
        <ele>74.5</ele>
        <time>2015-04-25T07:56:01.000Z</time>
      </trkpt>
      <trkpt lat="48.65369" lon="2.71555">
        <ele>74.6</ele>
        <time>2015-04-25T07:56:02.000Z</time>
      </trkpt>
      <trkpt lat="48.65376" lon="2.71554">
        <ele>75.2</ele>
        <time>2015-04-25T07:56:06.000Z</time>
      </trkpt>
      <trkpt lat="48.65381" lon="2.71549">
        <ele>76</ele>
        <time>2015-04-25T07:56:11.000Z</time>
      </trkpt>
      <trkpt lat="48.65385" lon="2.71545">
        <ele>76.4</ele>
        <time>2015-04-25T07:56:14.000Z</time>
      </trkpt>
      <trkpt lat="48.65388" lon="2.71544">
        <ele>76.7</ele>
        <time>2015-04-25T07:56:16.000Z</time>
      </trkpt>
      <trkpt lat="48.65389" lon="2.71543">
        <ele>76.9</ele>
        <time>2015-04-25T07:56:17.000Z</time>
      </trkpt>
      <trkpt lat="48.65394" lon="2.71539">
        <ele>77.6</ele>
        <time>2015-04-25T07:56:20.000Z</time>
      </trkpt>
      <trkpt lat="48.654" lon="2.71537">
        <ele>78.4</ele>
        <time>2015-04-25T07:56:24.000Z</time>
      </trkpt>
      <trkpt lat="48.65401" lon="2.71537">
        <ele>78.5</ele>
        <time>2015-04-25T07:56:25.000Z</time>
      </trkpt>
      <trkpt lat="48.65407" lon="2.71539">
        <ele>78.9</ele>
        <time>2015-04-25T07:56:29.000Z</time>
      </trkpt>
      <trkpt lat="48.65412" lon="2.71542">
        <ele>79</ele>
        <time>2015-04-25T07:56:33.000Z</time>
      </trkpt>
      <trkpt lat="48.65419" lon="2.71544">
        <ele>79.4</ele>
        <time>2015-04-25T07:56:37.000Z</time>
      </trkpt>
      <trkpt lat="48.65421" lon="2.71545">
        <ele>79.5</ele>
        <time>2015-04-25T07:56:38.000Z</time>
      </trkpt>
      <trkpt lat="48.65429" lon="2.71548">
        <ele>79.9</ele>
        <time>2015-04-25T07:56:44.000Z</time>
      </trkpt>
      <trkpt lat="48.65431" lon="2.71548">
        <ele>80</ele>
        <time>2015-04-25T07:56:45.000Z</time>
      </trkpt>
      <trkpt lat="48.65434" lon="2.71547">
        <ele>80.4</ele>
        <time>2015-04-25T07:56:47.000Z</time>
      </trkpt>
      <trkpt lat="48.65436" lon="2.71547">
        <ele>80.6</ele>
        <time>2015-04-25T07:56:49.000Z</time>
      </trkpt>
      <trkpt lat="48.65437" lon="2.71547">
        <ele>80.6</ele>
        <time>2015-04-25T07:56:50.000Z</time>
      </trkpt>
      <trkpt lat="48.6544" lon="2.71547">
        <ele>80.8</ele>
        <time>2015-04-25T07:56:54.000Z</time>
      </trkpt>
      <trkpt lat="48.65447" lon="2.71551">
        <ele>80.9</ele>
        <time>2015-04-25T07:56:59.000Z</time>
      </trkpt>
      <trkpt lat="48.6545" lon="2.71553">
        <ele>80.9</ele>
        <time>2015-04-25T07:57:01.000Z</time>
      </trkpt>
      <trkpt lat="48.65455" lon="2.71557">
        <ele>81</ele>
        <time>2015-04-25T07:57:04.000Z</time>
      </trkpt>
      <trkpt lat="48.65464" lon="2.71566">
        <ele>81.1</ele>
        <time>2015-04-25T07:57:12.000Z</time>
      </trkpt>
      <trkpt lat="48.6547" lon="2.71572">
        <ele>81</ele>
        <time>2015-04-25T07:57:17.000Z</time>
      </trkpt>
      <trkpt lat="48.65471" lon="2.71573">
        <ele>81</ele>
        <time>2015-04-25T07:57:18.000Z</time>
      </trkpt>
      <trkpt lat="48.65472" lon="2.71574">
        <ele>80.9</ele>
        <time>2015-04-25T07:57:19.000Z</time>
      </trkpt>
      <trkpt lat="48.65475" lon="2.71578">
        <ele>81.1</ele>
        <time>2015-04-25T07:57:22.000Z</time>
      </trkpt>
      <trkpt lat="48.65483" lon="2.71585">
        <ele>81.8</ele>
        <time>2015-04-25T07:57:28.000Z</time>
      </trkpt>
      <trkpt lat="48.65489" lon="2.7159">
        <ele>82.2</ele>
        <time>2015-04-25T07:57:32.000Z</time>
      </trkpt>
      <trkpt lat="48.65491" lon="2.71592">
        <ele>82.4</ele>
        <time>2015-04-25T07:57:33.000Z</time>
      </trkpt>
      <trkpt lat="48.65492" lon="2.71593">
        <ele>82.4</ele>
        <time>2015-04-25T07:57:34.000Z</time>
      </trkpt>
      <trkpt lat="48.65497" lon="2.716">
        <ele>82.2</ele>
        <time>2015-04-25T07:57:38.000Z</time>
      </trkpt>
      <trkpt lat="48.65504" lon="2.71608">
        <ele>82.3</ele>
        <time>2015-04-25T07:57:43.000Z</time>
      </trkpt>
      <trkpt lat="48.65509" lon="2.71617">
        <ele>82.5</ele>
        <time>2015-04-25T07:57:47.000Z</time>
      </trkpt>
      <trkpt lat="48.65511" lon="2.71625">
        <ele>82.5</ele>
        <time>2015-04-25T07:57:49.000Z</time>
      </trkpt>
      <trkpt lat="48.65513" lon="2.71629">
        <ele>82.5</ele>
        <time>2015-04-25T07:57:50.000Z</time>
      </trkpt>
      <trkpt lat="48.65519" lon="2.71638">
        <ele>82.7</ele>
        <time>2015-04-25T07:57:53.000Z</time>
      </trkpt>
      <trkpt lat="48.65523" lon="2.71643">
        <ele>82.9</ele>
        <time>2015-04-25T07:57:57.000Z</time>
      </trkpt>
      <trkpt lat="48.65523" lon="2.71643">
        <ele>82.9</ele>
        <time>2015-04-25T07:57:58.000Z</time>
      </trkpt>
      <trkpt lat="48.65525" lon="2.71645">
        <ele>83</ele>
        <time>2015-04-25T07:58:03.000Z</time>
      </trkpt>
      <trkpt lat="48.65527" lon="2.71649">
        <ele>82.8</ele>
        <time>2015-04-25T07:58:05.000Z</time>
      </trkpt>
      <trkpt lat="48.65532" lon="2.71657">
        <ele>82.7</ele>
        <time>2015-04-25T07:58:10.000Z</time>
      </trkpt>
      <trkpt lat="48.65537" lon="2.71665">
        <ele>82.9</ele>
        <time>2015-04-25T07:58:16.000Z</time>
      </trkpt>
      <trkpt lat="48.6554" lon="2.7167">
        <ele>83</ele>
        <time>2015-04-25T07:58:19.000Z</time>
      </trkpt>
      <trkpt lat="48.6554" lon="2.71672">
        <ele>83</ele>
        <time>2015-04-25T07:58:20.000Z</time>
      </trkpt>
      <trkpt lat="48.65546" lon="2.71685">
        <ele>83.4</ele>
        <time>2015-04-25T07:58:27.000Z</time>
      </trkpt>
      <trkpt lat="48.6555" lon="2.71692">
        <ele>83.9</ele>
        <time>2015-04-25T07:58:31.000Z</time>
      </trkpt>
      <trkpt lat="48.65553" lon="2.71698">
        <ele>83.8</ele>
        <time>2015-04-25T07:58:36.000Z</time>
      </trkpt>
      <trkpt lat="48.65554" lon="2.71701">
        <ele>83.8</ele>
        <time>2015-04-25T07:58:38.000Z</time>
      </trkpt>
      <trkpt lat="48.65557" lon="2.71707">
        <ele>83.4</ele>
        <time>2015-04-25T07:58:42.000Z</time>
      </trkpt>
      <trkpt lat="48.6556" lon="2.71713">
        <ele>83.1</ele>
        <time>2015-04-25T07:58:46.000Z</time>
      </trkpt>
      <trkpt lat="48.65561" lon="2.71714">
        <ele>83</ele>
        <time>2015-04-25T07:58:47.000Z</time>
      </trkpt>
      <trkpt lat="48.65563" lon="2.71724">
        <ele>82.2</ele>
        <time>2015-04-25T07:58:52.000Z</time>
      </trkpt>
      <trkpt lat="48.65567" lon="2.7173">
        <ele>82.4</ele>
        <time>2015-04-25T07:58:56.000Z</time>
      </trkpt>
      <trkpt lat="48.65568" lon="2.71732">
        <ele>82.5</ele>
        <time>2015-04-25T07:58:57.000Z</time>
      </trkpt>
      <trkpt lat="48.65571" lon="2.71734">
        <ele>82.7</ele>
        <time>2015-04-25T07:58:59.000Z</time>
      </trkpt>
      <trkpt lat="48.65574" lon="2.71737">
        <ele>82.9</ele>
        <time>2015-04-25T07:59:01.000Z</time>
      </trkpt>
      <trkpt lat="48.65575" lon="2.71739">
        <ele>82.9</ele>
        <time>2015-04-25T07:59:02.000Z</time>
      </trkpt>
      <trkpt lat="48.65579" lon="2.71743">
        <ele>83.1</ele>
        <time>2015-04-25T07:59:05.000Z</time>
      </trkpt>
      <trkpt lat="48.65583" lon="2.71746">
        <ele>83.4</ele>
        <time>2015-04-25T07:59:09.000Z</time>
      </trkpt>
      <trkpt lat="48.65589" lon="2.7175">
        <ele>83.8</ele>
        <time>2015-04-25T07:59:13.000Z</time>
      </trkpt>
      <trkpt lat="48.6559" lon="2.71751">
        <ele>83.9</ele>
        <time>2015-04-25T07:59:14.000Z</time>
      </trkpt>
      <trkpt lat="48.65592" lon="2.71752">
        <ele>84.1</ele>
        <time>2015-04-25T07:59:15.000Z</time>
      </trkpt>
      <trkpt lat="48.65594" lon="2.71755">
        <ele>84.2</ele>
        <time>2015-04-25T07:59:17.000Z</time>
      </trkpt>
      <trkpt lat="48.65601" lon="2.71764">
        <ele>84.5</ele>
        <time>2015-04-25T07:59:23.000Z</time>
      </trkpt>
      <trkpt lat="48.65606" lon="2.71772">
        <ele>84.6</ele>
        <time>2015-04-25T07:59:28.000Z</time>
      </trkpt>
      <trkpt lat="48.65609" lon="2.7178">
        <ele>84.6</ele>
        <time>2015-04-25T07:59:33.000Z</time>
      </trkpt>
      <trkpt lat="48.65615" lon="2.71786">
        <ele>84.7</ele>
        <time>2015-04-25T07:59:37.000Z</time>
      </trkpt>
      <trkpt lat="48.65616" lon="2.71788">
        <ele>84.7</ele>
        <time>2015-04-25T07:59:38.000Z</time>
      </trkpt>
      <trkpt lat="48.65617" lon="2.71789">
        <ele>84.7</ele>
        <time>2015-04-25T07:59:39.000Z</time>
      </trkpt>
      <trkpt lat="48.6562" lon="2.71796">
        <ele>84.5</ele>
        <time>2015-04-25T07:59:42.000Z</time>
      </trkpt>
      <trkpt lat="48.65621" lon="2.71799">
        <ele>84.4</ele>
        <time>2015-04-25T07:59:43.000Z</time>
      </trkpt>
      <trkpt lat="48.65622" lon="2.71802">
        <ele>84.4</ele>
        <time>2015-04-25T07:59:44.000Z</time>
      </trkpt>
      <trkpt lat="48.65624" lon="2.71805">
        <ele>84.4</ele>
        <time>2015-04-25T07:59:46.000Z</time>
      </trkpt>
      <trkpt lat="48.65629" lon="2.71816">
        <ele>84.5</ele>
        <time>2015-04-25T07:59:50.000Z</time>
      </trkpt>
      <trkpt lat="48.6563" lon="2.71824">
        <ele>84.2</ele>
        <time>2015-04-25T07:59:53.000Z</time>
      </trkpt>
      <trkpt lat="48.65631" lon="2.71826">
        <ele>84.1</ele>
        <time>2015-04-25T07:59:54.000Z</time>
      </trkpt>
      <trkpt lat="48.65632" lon="2.71829">
        <ele>84.1</ele>
        <time>2015-04-25T07:59:55.000Z</time>
      </trkpt>
      <trkpt lat="48.65639" lon="2.71842">
        <ele>84.3</ele>
        <time>2015-04-25T08:00:01.000Z</time>
      </trkpt>
      <trkpt lat="48.65641" lon="2.71847">
        <ele>84.1</ele>
        <time>2015-04-25T08:00:04.000Z</time>
      </trkpt>
      <trkpt lat="48.65641" lon="2.7185">
        <ele>84</ele>
        <time>2015-04-25T08:00:05.000Z</time>
      </trkpt>
      <trkpt lat="48.65645" lon="2.71861">
        <ele>83.7</ele>
        <time>2015-04-25T08:00:09.000Z</time>
      </trkpt>
      <trkpt lat="48.65646" lon="2.71864">
        <ele>83.5</ele>
        <time>2015-04-25T08:00:10.000Z</time>
      </trkpt>
      <trkpt lat="48.65647" lon="2.71873">
        <ele>82.8</ele>
        <time>2015-04-25T08:00:14.000Z</time>
      </trkpt>
      <trkpt lat="48.65648" lon="2.71875">
        <ele>82.8</ele>
        <time>2015-04-25T08:00:15.000Z</time>
      </trkpt>
      <trkpt lat="48.6565" lon="2.71879">
        <ele>82.8</ele>
        <time>2015-04-25T08:00:17.000Z</time>
      </trkpt>
      <trkpt lat="48.65655" lon="2.71889">
        <ele>82.8</ele>
        <time>2015-04-25T08:00:22.000Z</time>
      </trkpt>
      <trkpt lat="48.65662" lon="2.71903">
        <ele>83.1</ele>
        <time>2015-04-25T08:00:29.000Z</time>
      </trkpt>
      <trkpt lat="48.65663" lon="2.71904">
        <ele>83.2</ele>
        <time>2015-04-25T08:00:30.000Z</time>
      </trkpt>
      <trkpt lat="48.65667" lon="2.7191">
        <ele>83.5</ele>
        <time>2015-04-25T08:00:34.000Z</time>
      </trkpt>
      <trkpt lat="48.65672" lon="2.7192">
        <ele>83.3</ele>
        <time>2015-04-25T08:00:40.000Z</time>
      </trkpt>
      <trkpt lat="48.65673" lon="2.71922">
        <ele>83.3</ele>
        <time>2015-04-25T08:00:41.000Z</time>
      </trkpt>
      <trkpt lat="48.65679" lon="2.71936">
        <ele>82.9</ele>
        <time>2015-04-25T08:00:48.000Z</time>
      </trkpt>
      <trkpt lat="48.6568" lon="2.71938">
        <ele>82.9</ele>
        <time>2015-04-25T08:00:49.000Z</time>
      </trkpt>
      <trkpt lat="48.65683" lon="2.71944">
        <ele>83</ele>
        <time>2015-04-25T08:00:52.000Z</time>
      </trkpt>
      <trkpt lat="48.65687" lon="2.7195">
        <ele>83.2</ele>
        <time>2015-04-25T08:00:56.000Z</time>
      </trkpt>
      <trkpt lat="48.65689" lon="2.71954">
        <ele>83.4</ele>
        <time>2015-04-25T08:00:58.000Z</time>
      </trkpt>
      <trkpt lat="48.65693" lon="2.71961">
        <ele>83.5</ele>
        <time>2015-04-25T08:01:02.000Z</time>
      </trkpt>
      <trkpt lat="48.65696" lon="2.7197">
        <ele>83.2</ele>
        <time>2015-04-25T08:01:07.000Z</time>
      </trkpt>
      <trkpt lat="48.657" lon="2.71985">
        <ele>82.7</ele>
        <time>2015-04-25T08:01:14.000Z</time>
      </trkpt>
      <trkpt lat="48.65705" lon="2.72001">
        <ele>82.4</ele>
        <time>2015-04-25T08:01:21.000Z</time>
      </trkpt>
      <trkpt lat="48.65708" lon="2.72009">
        <ele>82.3</ele>
        <time>2015-04-25T08:01:25.000Z</time>
      </trkpt>
      <trkpt lat="48.65709" lon="2.72014">
        <ele>82.1</ele>
        <time>2015-04-25T08:01:27.000Z</time>
      </trkpt>
      <trkpt lat="48.65715" lon="2.72024">
        <ele>82.2</ele>
        <time>2015-04-25T08:01:33.000Z</time>
      </trkpt>
      <trkpt lat="48.65715" lon="2.72026">
        <ele>82.1</ele>
        <time>2015-04-25T08:01:34.000Z</time>
      </trkpt>
      <trkpt lat="48.65712" lon="2.72027">
        <ele>81.7</ele>
        <time>2015-04-25T08:01:39.000Z</time>
      </trkpt>
      <trkpt lat="48.65712" lon="2.72027">
        <ele>81.5</ele>
        <time>2015-04-25T08:01:40.000Z</time>
      </trkpt>
      <trkpt lat="48.65711" lon="2.72029">
        <ele>81.3</ele>
        <time>2015-04-25T08:01:42.000Z</time>
      </trkpt>
      <trkpt lat="48.65711" lon="2.7203">
        <ele>81.2</ele>
        <time>2015-04-25T08:01:45.000Z</time>
      </trkpt>
      <trkpt lat="48.65708" lon="2.72032">
        <ele>80.6</ele>
        <time>2015-04-25T08:01:50.000Z</time>
      </trkpt>
      <trkpt lat="48.65708" lon="2.72034">
        <ele>80.5</ele>
        <time>2015-04-25T08:01:55.000Z</time>
      </trkpt>
      <trkpt lat="48.65708" lon="2.72037">
        <ele>80.3</ele>
        <time>2015-04-25T08:03:02.000Z</time>
      </trkpt>
      <trkpt lat="48.65708" lon="2.72032">
        <ele>80.6</ele>
        <time>2015-04-25T08:03:30.000Z</time>
      </trkpt>
      <trkpt lat="48.65707" lon="2.72035">
        <ele>80.3</ele>
        <time>2015-04-25T08:04:18.000Z</time>
      </trkpt>
      <trkpt lat="48.65707" lon="2.72036">
        <ele>80.3</ele>
        <time>2015-04-25T08:04:24.000Z</time>
      </trkpt>
      <trkpt lat="48.65707" lon="2.72039">
        <ele>80.1</ele>
        <time>2015-04-25T08:04:42.000Z</time>
      </trkpt>
      <trkpt lat="48.65706" lon="2.72034">
        <ele>80.2</ele>
        <time>2015-04-25T08:04:52.000Z</time>
      </trkpt>
      <trkpt lat="48.65709" lon="2.72036">
        <ele>80.5</ele>
        <time>2015-04-25T08:05:27.000Z</time>
      </trkpt>
      <trkpt lat="48.65709" lon="2.72036">
        <ele>80.5</ele>
        <time>2015-04-25T08:05:52.000Z</time>
      </trkpt>
      <trkpt lat="48.65703" lon="2.72039">
        <ele>79.4</ele>
        <time>2015-04-25T08:05:58.000Z</time>
      </trkpt>
      <trkpt lat="48.65693" lon="2.72042">
        <ele>77.9</ele>
        <time>2015-04-25T08:06:04.000Z</time>
      </trkpt>
      <trkpt lat="48.65685" lon="2.72043">
        <ele>76.8</ele>
        <time>2015-04-25T08:06:10.000Z</time>
      </trkpt>
      <trkpt lat="48.65681" lon="2.72045">
        <ele>76.3</ele>
        <time>2015-04-25T08:06:15.000Z</time>
      </trkpt>
      <trkpt lat="48.65676" lon="2.72046">
        <ele>75.7</ele>
        <time>2015-04-25T08:06:21.000Z</time>
      </trkpt>
      <trkpt lat="48.65672" lon="2.72047">
        <ele>75.3</ele>
        <time>2015-04-25T08:06:25.000Z</time>
      </trkpt>
      <trkpt lat="48.65671" lon="2.72047">
        <ele>75.1</ele>
        <time>2015-04-25T08:06:26.000Z</time>
      </trkpt>
      <trkpt lat="48.65668" lon="2.72047">
        <ele>74.8</ele>
        <time>2015-04-25T08:06:33.000Z</time>
      </trkpt>
      <trkpt lat="48.65665" lon="2.7205">
        <ele>74.1</ele>
        <time>2015-04-25T08:06:39.000Z</time>
      </trkpt>
      <trkpt lat="48.65659" lon="2.72051">
        <ele>73.1</ele>
        <time>2015-04-25T08:06:43.000Z</time>
      </trkpt>
      <trkpt lat="48.65658" lon="2.72051">
        <ele>72.9</ele>
        <time>2015-04-25T08:06:44.000Z</time>
      </trkpt>
      <trkpt lat="48.65653" lon="2.72052">
        <ele>71.9</ele>
        <time>2015-04-25T08:06:47.000Z</time>
      </trkpt>
      <trkpt lat="48.65651" lon="2.72053">
        <ele>71.5</ele>
        <time>2015-04-25T08:06:48.000Z</time>
      </trkpt>
      <trkpt lat="48.65643" lon="2.72054">
        <ele>69.9</ele>
        <time>2015-04-25T08:06:53.000Z</time>
      </trkpt>
      <trkpt lat="48.65639" lon="2.72056">
        <ele>69.1</ele>
        <time>2015-04-25T08:06:56.000Z</time>
      </trkpt>
      <trkpt lat="48.65636" lon="2.72057">
        <ele>68.6</ele>
        <time>2015-04-25T08:06:58.000Z</time>
      </trkpt>
      <trkpt lat="48.6563" lon="2.72057">
        <ele>67.7</ele>
        <time>2015-04-25T08:07:02.000Z</time>
      </trkpt>
      <trkpt lat="48.65629" lon="2.72056">
        <ele>67.5</ele>
        <time>2015-04-25T08:07:04.000Z</time>
      </trkpt>
      <trkpt lat="48.65627" lon="2.72057">
        <ele>67.3</ele>
        <time>2015-04-25T08:07:05.000Z</time>
      </trkpt>
      <trkpt lat="48.65622" lon="2.72058">
        <ele>66.5</ele>
        <time>2015-04-25T08:07:07.000Z</time>
      </trkpt>
      <trkpt lat="48.65611" lon="2.72058">
        <ele>64.9</ele>
        <time>2015-04-25T08:07:11.000Z</time>
      </trkpt>
      <trkpt lat="48.65599" lon="2.7206">
        <ele>63.7</ele>
        <time>2015-04-25T08:07:15.000Z</time>
      </trkpt>
      <trkpt lat="48.65589" lon="2.72066">
        <ele>62.8</ele>
        <time>2015-04-25T08:07:21.000Z</time>
      </trkpt>
      <trkpt lat="48.65587" lon="2.72068">
        <ele>62.7</ele>
        <time>2015-04-25T08:07:24.000Z</time>
      </trkpt>
      <trkpt lat="48.65585" lon="2.72068">
        <ele>62.6</ele>
        <time>2015-04-25T08:07:25.000Z</time>
      </trkpt>
      <trkpt lat="48.6558" lon="2.72069">
        <ele>62.4</ele>
        <time>2015-04-25T08:07:29.000Z</time>
      </trkpt>
      <trkpt lat="48.65583" lon="2.72068">
        <ele>62.5</ele>
        <time>2015-04-25T08:07:33.000Z</time>
      </trkpt>
      <trkpt lat="48.65583" lon="2.72068">
        <ele>62.4</ele>
        <time>2015-04-25T08:07:39.000Z</time>
      </trkpt>
      <trkpt lat="48.65581" lon="2.72068">
        <ele>62.4</ele>
        <time>2015-04-25T08:07:44.000Z</time>
      </trkpt>
      <trkpt lat="48.65585" lon="2.72064">
        <ele>62.5</ele>
        <time>2015-04-25T08:08:56.000Z</time>
      </trkpt>
      <trkpt lat="48.65587" lon="2.72063">
        <ele>62.6</ele>
        <time>2015-04-25T08:08:58.000Z</time>
      </trkpt>
      <trkpt lat="48.65587" lon="2.72064">
        <ele>62.6</ele>
        <time>2015-04-25T08:09:00.000Z</time>
      </trkpt>
      <trkpt lat="48.65582" lon="2.72066">
        <ele>62.4</ele>
        <time>2015-04-25T08:09:19.000Z</time>
      </trkpt>
      <trkpt lat="48.65573" lon="2.72069">
        <ele>62.3</ele>
        <time>2015-04-25T08:09:27.000Z</time>
      </trkpt>
      <trkpt lat="48.65572" lon="2.72072">
        <ele>62.4</ele>
        <time>2015-04-25T08:09:32.000Z</time>
      </trkpt>
      <trkpt lat="48.65568" lon="2.72077">
        <ele>62.4</ele>
        <time>2015-04-25T08:09:36.000Z</time>
      </trkpt>
      <trkpt lat="48.65564" lon="2.72082">
        <ele>62.3</ele>
        <time>2015-04-25T08:09:41.000Z</time>
      </trkpt>
      <trkpt lat="48.65557" lon="2.72093">
        <ele>62</ele>
        <time>2015-04-25T08:09:50.000Z</time>
      </trkpt>
      <trkpt lat="48.6555" lon="2.72102">
        <ele>62</ele>
        <time>2015-04-25T08:09:58.000Z</time>
      </trkpt>
      <trkpt lat="48.65542" lon="2.72117">
        <ele>62.1</ele>
        <time>2015-04-25T08:10:08.000Z</time>
      </trkpt>
      <trkpt lat="48.65534" lon="2.7213">
        <ele>62.5</ele>
        <time>2015-04-25T08:10:17.000Z</time>
      </trkpt>
      <trkpt lat="48.65528" lon="2.72141">
        <ele>62.9</ele>
        <time>2015-04-25T08:10:24.000Z</time>
      </trkpt>
      <trkpt lat="48.6552" lon="2.72154">
        <ele>62.6</ele>
        <time>2015-04-25T08:10:33.000Z</time>
      </trkpt>
      <trkpt lat="48.65511" lon="2.72169">
        <ele>62.6</ele>
        <time>2015-04-25T08:10:44.000Z</time>
      </trkpt>
      <trkpt lat="48.65504" lon="2.72179">
        <ele>62.8</ele>
        <time>2015-04-25T08:10:51.000Z</time>
      </trkpt>
      <trkpt lat="48.65499" lon="2.72187">
        <ele>63</ele>
        <time>2015-04-25T08:10:57.000Z</time>
      </trkpt>
      <trkpt lat="48.65494" lon="2.72197">
        <ele>62.9</ele>
        <time>2015-04-25T08:11:04.000Z</time>
      </trkpt>
      <trkpt lat="48.65487" lon="2.72214">
        <ele>62.6</ele>
        <time>2015-04-25T08:11:14.000Z</time>
      </trkpt>
      <trkpt lat="48.6548" lon="2.72226">
        <ele>62.7</ele>
        <time>2015-04-25T08:11:22.000Z</time>
      </trkpt>
      <trkpt lat="48.65473" lon="2.72238">
        <ele>63</ele>
        <time>2015-04-25T08:11:30.000Z</time>
      </trkpt>
      <trkpt lat="48.65466" lon="2.72249">
        <ele>63</ele>
        <time>2015-04-25T08:11:38.000Z</time>
      </trkpt>
      <trkpt lat="48.65459" lon="2.72261">
        <ele>63</ele>
        <time>2015-04-25T08:11:46.000Z</time>
      </trkpt>
      <trkpt lat="48.65452" lon="2.72273">
        <ele>63</ele>
        <time>2015-04-25T08:11:54.000Z</time>
      </trkpt>
      <trkpt lat="48.65443" lon="2.72287">
        <ele>63</ele>
        <time>2015-04-25T08:12:04.000Z</time>
      </trkpt>
      <trkpt lat="48.65436" lon="2.723">
        <ele>63.1</ele>
        <time>2015-04-25T08:12:13.000Z</time>
      </trkpt>
      <trkpt lat="48.65429" lon="2.72312">
        <ele>63</ele>
        <time>2015-04-25T08:12:21.000Z</time>
      </trkpt>
      <trkpt lat="48.65423" lon="2.72321">
        <ele>63</ele>
        <time>2015-04-25T08:12:27.000Z</time>
      </trkpt>
      <trkpt lat="48.65422" lon="2.72323">
        <ele>63</ele>
        <time>2015-04-25T08:12:28.000Z</time>
      </trkpt>
      <trkpt lat="48.65415" lon="2.72335">
        <ele>63.1</ele>
        <time>2015-04-25T08:12:35.000Z</time>
      </trkpt>
      <trkpt lat="48.6541" lon="2.72343">
        <ele>63.2</ele>
        <time>2015-04-25T08:12:40.000Z</time>
      </trkpt>
      <trkpt lat="48.65407" lon="2.72348">
        <ele>63.2</ele>
        <time>2015-04-25T08:12:43.000Z</time>
      </trkpt>
      <trkpt lat="48.65403" lon="2.72355">
        <ele>63.1</ele>
        <time>2015-04-25T08:12:48.000Z</time>
      </trkpt>
      <trkpt lat="48.65397" lon="2.72366">
        <ele>63</ele>
        <time>2015-04-25T08:12:55.000Z</time>
      </trkpt>
      <trkpt lat="48.65389" lon="2.7238">
        <ele>63</ele>
        <time>2015-04-25T08:13:03.000Z</time>
      </trkpt>
      <trkpt lat="48.65383" lon="2.72393">
        <ele>63.2</ele>
        <time>2015-04-25T08:13:10.000Z</time>
      </trkpt>
      <trkpt lat="48.65376" lon="2.72403">
        <ele>63.2</ele>
        <time>2015-04-25T08:13:16.000Z</time>
      </trkpt>
      <trkpt lat="48.65369" lon="2.7241">
        <ele>63.2</ele>
        <time>2015-04-25T08:13:21.000Z</time>
      </trkpt>
      <trkpt lat="48.65367" lon="2.72412">
        <ele>63.1</ele>
        <time>2015-04-25T08:13:22.000Z</time>
      </trkpt>
      <trkpt lat="48.65361" lon="2.72419">
        <ele>63</ele>
        <time>2015-04-25T08:13:27.000Z</time>
      </trkpt>
      <trkpt lat="48.65359" lon="2.72419">
        <ele>63.1</ele>
        <time>2015-04-25T08:13:28.000Z</time>
      </trkpt>
      <trkpt lat="48.65355" lon="2.72418">
        <ele>63.2</ele>
        <time>2015-04-25T08:13:32.000Z</time>
      </trkpt>
      <trkpt lat="48.65352" lon="2.72417">
        <ele>63.3</ele>
        <time>2015-04-25T08:13:34.000Z</time>
      </trkpt>
      <trkpt lat="48.65346" lon="2.72408">
        <ele>63.7</ele>
        <time>2015-04-25T08:13:40.000Z</time>
      </trkpt>
      <trkpt lat="48.65339" lon="2.72396">
        <ele>64</ele>
        <time>2015-04-25T08:13:48.000Z</time>
      </trkpt>
      <trkpt lat="48.65331" lon="2.7238">
        <ele>64.4</ele>
        <time>2015-04-25T08:13:56.000Z</time>
      </trkpt>
      <trkpt lat="48.65326" lon="2.72372">
        <ele>64.7</ele>
        <time>2015-04-25T08:14:02.000Z</time>
      </trkpt>
      <trkpt lat="48.65326" lon="2.72371">
        <ele>64.7</ele>
        <time>2015-04-25T08:14:03.000Z</time>
      </trkpt>
      <trkpt lat="48.65321" lon="2.72361">
        <ele>65</ele>
        <time>2015-04-25T08:14:10.000Z</time>
      </trkpt>
      <trkpt lat="48.65319" lon="2.72355">
        <ele>65</ele>
        <time>2015-04-25T08:14:14.000Z</time>
      </trkpt>
      <trkpt lat="48.65318" lon="2.72353">
        <ele>65</ele>
        <time>2015-04-25T08:14:16.000Z</time>
      </trkpt>
      <trkpt lat="48.65313" lon="2.72346">
        <ele>65</ele>
        <time>2015-04-25T08:14:22.000Z</time>
      </trkpt>
      <trkpt lat="48.6531" lon="2.72337">
        <ele>65</ele>
        <time>2015-04-25T08:14:27.000Z</time>
      </trkpt>
      <trkpt lat="48.65309" lon="2.72335">
        <ele>65</ele>
        <time>2015-04-25T08:14:28.000Z</time>
      </trkpt>
      <trkpt lat="48.65302" lon="2.72318">
        <ele>65.1</ele>
        <time>2015-04-25T08:14:36.000Z</time>
      </trkpt>
      <trkpt lat="48.65297" lon="2.72306">
        <ele>65.3</ele>
        <time>2015-04-25T08:14:44.000Z</time>
      </trkpt>
      <trkpt lat="48.65293" lon="2.72298">
        <ele>65.6</ele>
        <time>2015-04-25T08:14:50.000Z</time>
      </trkpt>
      <trkpt lat="48.65287" lon="2.72283">
        <ele>65.9</ele>
        <time>2015-04-25T08:14:55.000Z</time>
      </trkpt>
      <trkpt lat="48.65283" lon="2.72272">
        <ele>66</ele>
        <time>2015-04-25T08:14:59.000Z</time>
      </trkpt>
      <trkpt lat="48.65283" lon="2.72272">
        <ele>66</ele>
        <time>2015-04-25T08:15:00.000Z</time>
      </trkpt>
      <trkpt lat="48.65281" lon="2.72269">
        <ele>66</ele>
        <time>2015-04-25T08:15:05.000Z</time>
      </trkpt>
      <trkpt lat="48.65282" lon="2.72266">
        <ele>65.9</ele>
        <time>2015-04-25T08:15:15.000Z</time>
      </trkpt>
      <trkpt lat="48.65282" lon="2.72262">
        <ele>65.9</ele>
        <time>2015-04-25T08:15:17.000Z</time>
      </trkpt>
      <trkpt lat="48.65279" lon="2.72242">
        <ele>66</ele>
        <time>2015-04-25T08:15:26.000Z</time>
      </trkpt>
      <trkpt lat="48.65274" lon="2.72223">
        <ele>66.1</ele>
        <time>2015-04-25T08:15:34.000Z</time>
      </trkpt>
      <trkpt lat="48.65273" lon="2.72221">
        <ele>66.2</ele>
        <time>2015-04-25T08:15:35.000Z</time>
      </trkpt>
      <trkpt lat="48.65271" lon="2.72209">
        <ele>66.1</ele>
        <time>2015-04-25T08:15:40.000Z</time>
      </trkpt>
      <trkpt lat="48.65268" lon="2.72192">
        <ele>66</ele>
        <time>2015-04-25T08:15:47.000Z</time>
      </trkpt>
      <trkpt lat="48.65265" lon="2.72177">
        <ele>66</ele>
        <time>2015-04-25T08:15:54.000Z</time>
      </trkpt>
      <trkpt lat="48.65262" lon="2.72164">
        <ele>66</ele>
        <time>2015-04-25T08:15:59.000Z</time>
      </trkpt>
      <trkpt lat="48.65259" lon="2.72147">
        <ele>66</ele>
        <time>2015-04-25T08:16:07.000Z</time>
      </trkpt>
      <trkpt lat="48.65253" lon="2.72128">
        <ele>66</ele>
        <time>2015-04-25T08:16:16.000Z</time>
      </trkpt>
      <trkpt lat="48.65248" lon="2.72115">
        <ele>66.1</ele>
        <time>2015-04-25T08:16:23.000Z</time>
      </trkpt>
      <trkpt lat="48.65243" lon="2.72106">
        <ele>66.2</ele>
        <time>2015-04-25T08:16:28.000Z</time>
      </trkpt>
      <trkpt lat="48.65238" lon="2.72096">
        <ele>66.4</ele>
        <time>2015-04-25T08:16:34.000Z</time>
      </trkpt>
      <trkpt lat="48.65233" lon="2.72087">
        <ele>66.6</ele>
        <time>2015-04-25T08:16:39.000Z</time>
      </trkpt>
      <trkpt lat="48.65227" lon="2.72076">
        <ele>66.8</ele>
        <time>2015-04-25T08:16:45.000Z</time>
      </trkpt>
      <trkpt lat="48.6522" lon="2.72064">
        <ele>67</ele>
        <time>2015-04-25T08:16:52.000Z</time>
      </trkpt>
      <trkpt lat="48.65214" lon="2.72055">
        <ele>67</ele>
        <time>2015-04-25T08:16:58.000Z</time>
      </trkpt>
      <trkpt lat="48.65207" lon="2.72044">
        <ele>67</ele>
        <time>2015-04-25T08:17:05.000Z</time>
      </trkpt>
      <trkpt lat="48.65202" lon="2.72038">
        <ele>67</ele>
        <time>2015-04-25T08:17:09.000Z</time>
      </trkpt>
      <trkpt lat="48.652" lon="2.72036">
        <ele>67</ele>
        <time>2015-04-25T08:17:10.000Z</time>
      </trkpt>
      <trkpt lat="48.65194" lon="2.72028">
        <ele>67</ele>
        <time>2015-04-25T08:17:15.000Z</time>
      </trkpt>
      <trkpt lat="48.65193" lon="2.72027">
        <ele>67</ele>
        <time>2015-04-25T08:17:16.000Z</time>
      </trkpt>
      <trkpt lat="48.65193" lon="2.72025">
        <ele>67</ele>
        <time>2015-04-25T08:17:17.000Z</time>
      </trkpt>
      <trkpt lat="48.65191" lon="2.72022">
        <ele>67</ele>
        <time>2015-04-25T08:17:19.000Z</time>
      </trkpt>
      <trkpt lat="48.65183" lon="2.72007">
        <ele>67</ele>
        <time>2015-04-25T08:17:27.000Z</time>
      </trkpt>
      <trkpt lat="48.65177" lon="2.71997">
        <ele>67</ele>
        <time>2015-04-25T08:17:33.000Z</time>
      </trkpt>
      <trkpt lat="48.65172" lon="2.71986">
        <ele>67</ele>
        <time>2015-04-25T08:17:39.000Z</time>
      </trkpt>
      <trkpt lat="48.65168" lon="2.71978">
        <ele>67</ele>
        <time>2015-04-25T08:17:43.000Z</time>
      </trkpt>
      <trkpt lat="48.65167" lon="2.71977">
        <ele>67</ele>
        <time>2015-04-25T08:17:44.000Z</time>
      </trkpt>
      <trkpt lat="48.65164" lon="2.71968">
        <ele>67</ele>
        <time>2015-04-25T08:17:49.000Z</time>
      </trkpt>
      <trkpt lat="48.65163" lon="2.71967">
        <ele>67</ele>
        <time>2015-04-25T08:17:50.000Z</time>
      </trkpt>
      <trkpt lat="48.65159" lon="2.71961">
        <ele>67</ele>
        <time>2015-04-25T08:17:53.000Z</time>
      </trkpt>
      <trkpt lat="48.65158" lon="2.71959">
        <ele>67</ele>
        <time>2015-04-25T08:17:54.000Z</time>
      </trkpt>
      <trkpt lat="48.65152" lon="2.71948">
        <ele>67</ele>
        <time>2015-04-25T08:17:59.000Z</time>
      </trkpt>
      <trkpt lat="48.65143" lon="2.71933">
        <ele>66.6</ele>
        <time>2015-04-25T08:18:03.000Z</time>
      </trkpt>
      <trkpt lat="48.65131" lon="2.71912">
        <ele>66</ele>
        <time>2015-04-25T08:18:08.000Z</time>
      </trkpt>
      <trkpt lat="48.65127" lon="2.71905">
        <ele>66</ele>
        <time>2015-04-25T08:18:10.000Z</time>
      </trkpt>
      <trkpt lat="48.6512" lon="2.71899">
        <ele>66</ele>
        <time>2015-04-25T08:18:14.000Z</time>
      </trkpt>
      <trkpt lat="48.65119" lon="2.71896">
        <ele>66</ele>
        <time>2015-04-25T08:18:18.000Z</time>
      </trkpt>
      <trkpt lat="48.65123" lon="2.71888">
        <ele>66</ele>
        <time>2015-04-25T08:18:45.000Z</time>
      </trkpt>
      <trkpt lat="48.65122" lon="2.71886">
        <ele>66</ele>
        <time>2015-04-25T08:18:46.000Z</time>
      </trkpt>
      <trkpt lat="48.65119" lon="2.7188">
        <ele>65.9</ele>
        <time>2015-04-25T08:18:50.000Z</time>
      </trkpt>
      <trkpt lat="48.65118" lon="2.71878">
        <ele>65.9</ele>
        <time>2015-04-25T08:18:51.000Z</time>
      </trkpt>
      <trkpt lat="48.65117" lon="2.71877">
        <ele>65.9</ele>
        <time>2015-04-25T08:18:52.000Z</time>
      </trkpt>
      <trkpt lat="48.65114" lon="2.71874">
        <ele>66</ele>
        <time>2015-04-25T08:18:55.000Z</time>
      </trkpt>
      <trkpt lat="48.65111" lon="2.71873">
        <ele>66</ele>
        <time>2015-04-25T08:18:57.000Z</time>
      </trkpt>
      <trkpt lat="48.65109" lon="2.7187">
        <ele>66</ele>
        <time>2015-04-25T08:19:00.000Z</time>
      </trkpt>
      <trkpt lat="48.65106" lon="2.71869">
        <ele>66</ele>
        <time>2015-04-25T08:19:02.000Z</time>
      </trkpt>
      <trkpt lat="48.65099" lon="2.71869">
        <ele>66</ele>
        <time>2015-04-25T08:19:07.000Z</time>
      </trkpt>
      <trkpt lat="48.6509" lon="2.71865">
        <ele>66</ele>
        <time>2015-04-25T08:19:12.000Z</time>
      </trkpt>
      <trkpt lat="48.65077" lon="2.7186">
        <ele>66</ele>
        <time>2015-04-25T08:19:17.000Z</time>
      </trkpt>
      <trkpt lat="48.65057" lon="2.7185">
        <ele>66</ele>
        <time>2015-04-25T08:19:23.000Z</time>
      </trkpt>
      <trkpt lat="48.65054" lon="2.71849">
        <ele>66</ele>
        <time>2015-04-25T08:19:24.000Z</time>
      </trkpt>
      <trkpt lat="48.65045" lon="2.71844">
        <ele>65.6</ele>
        <time>2015-04-25T08:19:29.000Z</time>
      </trkpt>
      <trkpt lat="48.65042" lon="2.71842">
        <ele>65.5</ele>
        <time>2015-04-25T08:19:31.000Z</time>
      </trkpt>
      <trkpt lat="48.65037" lon="2.7184">
        <ele>65.3</ele>
        <time>2015-04-25T08:19:34.000Z</time>
      </trkpt>
      <trkpt lat="48.65036" lon="2.71839">
        <ele>65.3</ele>
        <time>2015-04-25T08:19:35.000Z</time>
      </trkpt>
      <trkpt lat="48.65025" lon="2.71835">
        <ele>65</ele>
        <time>2015-04-25T08:19:42.000Z</time>
      </trkpt>
      <trkpt lat="48.65016" lon="2.71832">
        <ele>65</ele>
        <time>2015-04-25T08:19:47.000Z</time>
      </trkpt>
      <trkpt lat="48.65009" lon="2.71827">
        <ele>65</ele>
        <time>2015-04-25T08:19:53.000Z</time>
      </trkpt>
      <trkpt lat="48.65006" lon="2.71824">
        <ele>65</ele>
        <time>2015-04-25T08:19:55.000Z</time>
      </trkpt>
      <trkpt lat="48.65002" lon="2.71822">
        <ele>65</ele>
        <time>2015-04-25T08:19:58.000Z</time>
      </trkpt>
      <trkpt lat="48.65" lon="2.71821">
        <ele>65</ele>
        <time>2015-04-25T08:19:59.000Z</time>
      </trkpt>
      <trkpt lat="48.64992" lon="2.71817">
        <ele>65</ele>
        <time>2015-04-25T08:20:05.000Z</time>
      </trkpt>
      <trkpt lat="48.6498" lon="2.7181">
        <ele>65</ele>
        <time>2015-04-25T08:20:14.000Z</time>
      </trkpt>
      <trkpt lat="48.64978" lon="2.7181">
        <ele>65</ele>
        <time>2015-04-25T08:20:15.000Z</time>
      </trkpt>
      <trkpt lat="48.64973" lon="2.71808">
        <ele>65</ele>
        <time>2015-04-25T08:20:18.000Z</time>
      </trkpt>
      <trkpt lat="48.64972" lon="2.71807">
        <ele>65</ele>
        <time>2015-04-25T08:20:19.000Z</time>
      </trkpt>
      <trkpt lat="48.64962" lon="2.71801">
        <ele>65</ele>
        <time>2015-04-25T08:20:26.000Z</time>
      </trkpt>
      <trkpt lat="48.64947" lon="2.71793">
        <ele>65</ele>
        <time>2015-04-25T08:20:33.000Z</time>
      </trkpt>
      <trkpt lat="48.64928" lon="2.71784">
        <ele>65</ele>
        <time>2015-04-25T08:20:39.000Z</time>
      </trkpt>
      <trkpt lat="48.64925" lon="2.71782">
        <ele>65</ele>
        <time>2015-04-25T08:20:40.000Z</time>
      </trkpt>
      <trkpt lat="48.64908" lon="2.71772">
        <ele>65.3</ele>
        <time>2015-04-25T08:20:46.000Z</time>
      </trkpt>
      <trkpt lat="48.64898" lon="2.71765">
        <ele>65.4</ele>
        <time>2015-04-25T08:20:51.000Z</time>
      </trkpt>
      <trkpt lat="48.64898" lon="2.71765">
        <ele>65.4</ele>
        <time>2015-04-25T08:20:52.000Z</time>
      </trkpt>
      <trkpt lat="48.64896" lon="2.71765">
        <ele>65.4</ele>
        <time>2015-04-25T08:20:55.000Z</time>
      </trkpt>
      <trkpt lat="48.64896" lon="2.71764">
        <ele>65.4</ele>
        <time>2015-04-25T08:21:05.000Z</time>
      </trkpt>
      <trkpt lat="48.64897" lon="2.71762">
        <ele>65.3</ele>
        <time>2015-04-25T08:21:11.000Z</time>
      </trkpt>
      <trkpt lat="48.64894" lon="2.71762">
        <ele>65.4</ele>
        <time>2015-04-25T08:21:37.000Z</time>
      </trkpt>
      <trkpt lat="48.6489" lon="2.71761">
        <ele>65.4</ele>
        <time>2015-04-25T08:21:39.000Z</time>
      </trkpt>
      <trkpt lat="48.64884" lon="2.7176">
        <ele>65.6</ele>
        <time>2015-04-25T08:21:44.000Z</time>
      </trkpt>
      <trkpt lat="48.64879" lon="2.71761">
        <ele>65.8</ele>
        <time>2015-04-25T08:21:48.000Z</time>
      </trkpt>
      <trkpt lat="48.64869" lon="2.71768">
        <ele>66.2</ele>
        <time>2015-04-25T08:21:51.000Z</time>
      </trkpt>
      <trkpt lat="48.64862" lon="2.71771">
        <ele>66.2</ele>
        <time>2015-04-25T08:21:54.000Z</time>
      </trkpt>
      <trkpt lat="48.64856" lon="2.71766">
        <ele>67</ele>
        <time>2015-04-25T08:21:58.000Z</time>
      </trkpt>
      <trkpt lat="48.64854" lon="2.71759">
        <ele>67.1</ele>
        <time>2015-04-25T08:22:01.000Z</time>
      </trkpt>
      <trkpt lat="48.64852" lon="2.71759">
        <ele>67.2</ele>
        <time>2015-04-25T08:22:02.000Z</time>
      </trkpt>
      <trkpt lat="48.64845" lon="2.71754">
        <ele>67.3</ele>
        <time>2015-04-25T08:22:07.000Z</time>
      </trkpt>
      <trkpt lat="48.64844" lon="2.71753">
        <ele>67.3</ele>
        <time>2015-04-25T08:22:08.000Z</time>
      </trkpt>
      <trkpt lat="48.64841" lon="2.71752">
        <ele>67.2</ele>
        <time>2015-04-25T08:22:13.000Z</time>
      </trkpt>
      <trkpt lat="48.64837" lon="2.7175">
        <ele>67</ele>
        <time>2015-04-25T08:22:19.000Z</time>
      </trkpt>
      <trkpt lat="48.64832" lon="2.71752">
        <ele>67.2</ele>
        <time>2015-04-25T08:22:22.000Z</time>
      </trkpt>
      <trkpt lat="48.6483" lon="2.71752">
        <ele>67.1</ele>
        <time>2015-04-25T08:22:23.000Z</time>
      </trkpt>
      <trkpt lat="48.64829" lon="2.7175">
        <ele>66.8</ele>
        <time>2015-04-25T08:22:26.000Z</time>
      </trkpt>
      <trkpt lat="48.64828" lon="2.71749">
        <ele>66.8</ele>
        <time>2015-04-25T08:22:27.000Z</time>
      </trkpt>
      <trkpt lat="48.64823" lon="2.71748">
        <ele>66.5</ele>
        <time>2015-04-25T08:22:30.000Z</time>
      </trkpt>
      <trkpt lat="48.64815" lon="2.71747">
        <ele>66.2</ele>
        <time>2015-04-25T08:22:36.000Z</time>
      </trkpt>
      <trkpt lat="48.64808" lon="2.71746">
        <ele>65.9</ele>
        <time>2015-04-25T08:22:41.000Z</time>
      </trkpt>
      <trkpt lat="48.64807" lon="2.71746">
        <ele>65.9</ele>
        <time>2015-04-25T08:22:42.000Z</time>
      </trkpt>
      <trkpt lat="48.64796" lon="2.71745">
        <ele>66.1</ele>
        <time>2015-04-25T08:22:49.000Z</time>
      </trkpt>
      <trkpt lat="48.64786" lon="2.71742">
        <ele>66.4</ele>
        <time>2015-04-25T08:22:56.000Z</time>
      </trkpt>
      <trkpt lat="48.64772" lon="2.71739">
        <ele>66.7</ele>
        <time>2015-04-25T08:23:05.000Z</time>
      </trkpt>
      <trkpt lat="48.6476" lon="2.71736">
        <ele>66.8</ele>
        <time>2015-04-25T08:23:13.000Z</time>
      </trkpt>
      <trkpt lat="48.6475" lon="2.71733">
        <ele>67</ele>
        <time>2015-04-25T08:23:20.000Z</time>
      </trkpt>
      <trkpt lat="48.64738" lon="2.7173">
        <ele>67.1</ele>
        <time>2015-04-25T08:23:28.000Z</time>
      </trkpt>
      <trkpt lat="48.64727" lon="2.71728">
        <ele>67.2</ele>
        <time>2015-04-25T08:23:35.000Z</time>
      </trkpt>
      <trkpt lat="48.64716" lon="2.71726">
        <ele>67.4</ele>
        <time>2015-04-25T08:23:43.000Z</time>
      </trkpt>
      <trkpt lat="48.64706" lon="2.71725">
        <ele>67.7</ele>
        <time>2015-04-25T08:23:50.000Z</time>
      </trkpt>
      <trkpt lat="48.64698" lon="2.71724">
        <ele>67.9</ele>
        <time>2015-04-25T08:23:56.000Z</time>
      </trkpt>
      <trkpt lat="48.64689" lon="2.71723">
        <ele>68.2</ele>
        <time>2015-04-25T08:24:03.000Z</time>
      </trkpt>
      <trkpt lat="48.64681" lon="2.71721">
        <ele>68.4</ele>
        <time>2015-04-25T08:24:09.000Z</time>
      </trkpt>
      <trkpt lat="48.64671" lon="2.71718">
        <ele>68.7</ele>
        <time>2015-04-25T08:24:16.000Z</time>
      </trkpt>
      <trkpt lat="48.64658" lon="2.71715">
        <ele>69</ele>
        <time>2015-04-25T08:24:20.000Z</time>
      </trkpt>
      <trkpt lat="48.64654" lon="2.71713">
        <ele>69</ele>
        <time>2015-04-25T08:24:24.000Z</time>
      </trkpt>
      <trkpt lat="48.6465" lon="2.7171">
        <ele>68.9</ele>
        <time>2015-04-25T08:24:29.000Z</time>
      </trkpt>
      <trkpt lat="48.64647" lon="2.71708">
        <ele>68.8</ele>
        <time>2015-04-25T08:24:31.000Z</time>
      </trkpt>
      <trkpt lat="48.6464" lon="2.71706">
        <ele>68.8</ele>
        <time>2015-04-25T08:24:36.000Z</time>
      </trkpt>
      <trkpt lat="48.6463" lon="2.71703">
        <ele>69.1</ele>
        <time>2015-04-25T08:24:44.000Z</time>
      </trkpt>
      <trkpt lat="48.64616" lon="2.71701">
        <ele>69.7</ele>
        <time>2015-04-25T08:24:50.000Z</time>
      </trkpt>
      <trkpt lat="48.64606" lon="2.71698">
        <ele>70.2</ele>
        <time>2015-04-25T08:24:55.000Z</time>
      </trkpt>
      <trkpt lat="48.64593" lon="2.71694">
        <ele>70.6</ele>
        <time>2015-04-25T08:25:01.000Z</time>
      </trkpt>
      <trkpt lat="48.64588" lon="2.71695">
        <ele>70.8</ele>
        <time>2015-04-25T08:25:04.000Z</time>
      </trkpt>
      <trkpt lat="48.64585" lon="2.71695">
        <ele>70.9</ele>
        <time>2015-04-25T08:25:05.000Z</time>
      </trkpt>
      <trkpt lat="48.64572" lon="2.7169">
        <ele>71.8</ele>
        <time>2015-04-25T08:25:10.000Z</time>
      </trkpt>
      <trkpt lat="48.6457" lon="2.71688">
        <ele>71.9</ele>
        <time>2015-04-25T08:25:11.000Z</time>
      </trkpt>
      <trkpt lat="48.64567" lon="2.71684">
        <ele>72.1</ele>
        <time>2015-04-25T08:25:13.000Z</time>
      </trkpt>
      <trkpt lat="48.64568" lon="2.71681">
        <ele>72.1</ele>
        <time>2015-04-25T08:25:14.000Z</time>
      </trkpt>
      <trkpt lat="48.64572" lon="2.71673">
        <ele>71.8</ele>
        <time>2015-04-25T08:25:18.000Z</time>
      </trkpt>
      <trkpt lat="48.64573" lon="2.71671">
        <ele>71.7</ele>
        <time>2015-04-25T08:25:19.000Z</time>
      </trkpt>
      <trkpt lat="48.64577" lon="2.71663">
        <ele>71.3</ele>
        <time>2015-04-25T08:25:22.000Z</time>
      </trkpt>
      <trkpt lat="48.64578" lon="2.71661">
        <ele>71.2</ele>
        <time>2015-04-25T08:25:23.000Z</time>
      </trkpt>
      <trkpt lat="48.64581" lon="2.71652">
        <ele>70.7</ele>
        <time>2015-04-25T08:25:28.000Z</time>
      </trkpt>
      <trkpt lat="48.64581" lon="2.71651">
        <ele>70.7</ele>
        <time>2015-04-25T08:25:29.000Z</time>
      </trkpt>
      <trkpt lat="48.64579" lon="2.7165">
        <ele>70.8</ele>
        <time>2015-04-25T08:25:39.000Z</time>
      </trkpt>
      <trkpt lat="48.64578" lon="2.71649">
        <ele>70.9</ele>
        <time>2015-04-25T08:25:51.000Z</time>
      </trkpt>
      <trkpt lat="48.64578" lon="2.71652">
        <ele>70.9</ele>
        <time>2015-04-25T08:26:09.000Z</time>
      </trkpt>
      <trkpt lat="48.6458" lon="2.71651">
        <ele>70.8</ele>
        <time>2015-04-25T08:26:11.000Z</time>
      </trkpt>
      <trkpt lat="48.64581" lon="2.71648">
        <ele>70.5</ele>
        <time>2015-04-25T08:26:13.000Z</time>
      </trkpt>
      <trkpt lat="48.64584" lon="2.71642">
        <ele>70</ele>
        <time>2015-04-25T08:26:18.000Z</time>
      </trkpt>
      <trkpt lat="48.64588" lon="2.71636">
        <ele>69.6</ele>
        <time>2015-04-25T08:26:23.000Z</time>
      </trkpt>
      <trkpt lat="48.6459" lon="2.71633">
        <ele>69.4</ele>
        <time>2015-04-25T08:26:25.000Z</time>
      </trkpt>
      <trkpt lat="48.64598" lon="2.71623">
        <ele>68.6</ele>
        <time>2015-04-25T08:26:33.000Z</time>
      </trkpt>
      <trkpt lat="48.646" lon="2.7162">
        <ele>68.4</ele>
        <time>2015-04-25T08:26:35.000Z</time>
      </trkpt>
      <trkpt lat="48.64603" lon="2.71616">
        <ele>68</ele>
        <time>2015-04-25T08:26:38.000Z</time>
      </trkpt>
      <trkpt lat="48.64608" lon="2.7161">
        <ele>67.3</ele>
        <time>2015-04-25T08:26:43.000Z</time>
      </trkpt>
      <trkpt lat="48.64613" lon="2.71603">
        <ele>66.9</ele>
        <time>2015-04-25T08:26:49.000Z</time>
      </trkpt>
      <trkpt lat="48.64614" lon="2.71601">
        <ele>66.8</ele>
        <time>2015-04-25T08:26:50.000Z</time>
      </trkpt>
      <trkpt lat="48.64622" lon="2.71594">
        <ele>66.4</ele>
        <time>2015-04-25T08:26:56.000Z</time>
      </trkpt>
      <trkpt lat="48.64623" lon="2.71593">
        <ele>66.3</ele>
        <time>2015-04-25T08:26:57.000Z</time>
      </trkpt>
      <trkpt lat="48.64628" lon="2.71585">
        <ele>65.8</ele>
        <time>2015-04-25T08:27:02.000Z</time>
      </trkpt>
      <trkpt lat="48.64635" lon="2.71572">
        <ele>64.8</ele>
        <time>2015-04-25T08:27:10.000Z</time>
      </trkpt>
      <trkpt lat="48.64639" lon="2.71561">
        <ele>64.2</ele>
        <time>2015-04-25T08:27:16.000Z</time>
      </trkpt>
      <trkpt lat="48.6464" lon="2.7156">
        <ele>64.1</ele>
        <time>2015-04-25T08:27:17.000Z</time>
      </trkpt>
      <trkpt lat="48.64642" lon="2.71552">
        <ele>63.9</ele>
        <time>2015-04-25T08:27:21.000Z</time>
      </trkpt>
      <trkpt lat="48.64643" lon="2.71541">
        <ele>63.5</ele>
        <time>2015-04-25T08:27:25.000Z</time>
      </trkpt>
      <trkpt lat="48.64644" lon="2.71534">
        <ele>63.2</ele>
        <time>2015-04-25T08:27:29.000Z</time>
      </trkpt>
      <trkpt lat="48.64645" lon="2.7153">
        <ele>63.1</ele>
        <time>2015-04-25T08:27:31.000Z</time>
      </trkpt>
      <trkpt lat="48.64645" lon="2.71522">
        <ele>62.8</ele>
        <time>2015-04-25T08:27:34.000Z</time>
      </trkpt>
      <trkpt lat="48.64645" lon="2.7152">
        <ele>62.7</ele>
        <time>2015-04-25T08:27:36.000Z</time>
      </trkpt>
      <trkpt lat="48.64647" lon="2.71508">
        <ele>62.3</ele>
        <time>2015-04-25T08:27:41.000Z</time>
      </trkpt>
      <trkpt lat="48.64647" lon="2.71503">
        <ele>62.1</ele>
        <time>2015-04-25T08:27:45.000Z</time>
      </trkpt>
      <trkpt lat="48.64646" lon="2.71493">
        <ele>61.7</ele>
        <time>2015-04-25T08:27:50.000Z</time>
      </trkpt>
      <trkpt lat="48.64646" lon="2.71491">
        <ele>61.7</ele>
        <time>2015-04-25T08:27:51.000Z</time>
      </trkpt>
      <trkpt lat="48.64646" lon="2.71487">
        <ele>61.5</ele>
        <time>2015-04-25T08:27:53.000Z</time>
      </trkpt>
      <trkpt lat="48.64646" lon="2.71487">
        <ele>61.5</ele>
        <time>2015-04-25T08:27:55.000Z</time>
      </trkpt>
      <trkpt lat="48.64644" lon="2.71476">
        <ele>61.1</ele>
        <time>2015-04-25T08:28:06.000Z</time>
      </trkpt>
      <trkpt lat="48.64644" lon="2.71473">
        <ele>61</ele>
        <time>2015-04-25T08:28:13.000Z</time>
      </trkpt>
      <trkpt lat="48.64644" lon="2.71466">
        <ele>61.2</ele>
        <time>2015-04-25T08:28:20.000Z</time>
      </trkpt>
      <trkpt lat="48.64644" lon="2.71463">
        <ele>61.3</ele>
        <time>2015-04-25T08:28:27.000Z</time>
      </trkpt>
      <trkpt lat="48.64644" lon="2.71461">
        <ele>61.4</ele>
        <time>2015-04-25T08:28:34.000Z</time>
      </trkpt>
      <trkpt lat="48.64645" lon="2.7146">
        <ele>61.4</ele>
        <time>2015-04-25T08:29:07.000Z</time>
      </trkpt>
      <trkpt lat="48.64644" lon="2.71467">
        <ele>61.2</ele>
        <time>2015-04-25T08:29:14.000Z</time>
      </trkpt>
      <trkpt lat="48.64644" lon="2.71468">
        <ele>61.1</ele>
        <time>2015-04-25T08:29:15.000Z</time>
      </trkpt>
      <trkpt lat="48.64646" lon="2.71482">
        <ele>61.3</ele>
        <time>2015-04-25T08:29:24.000Z</time>
      </trkpt>
      <trkpt lat="48.64646" lon="2.71484">
        <ele>61.4</ele>
        <time>2015-04-25T08:29:25.000Z</time>
      </trkpt>
      <trkpt lat="48.64646" lon="2.71489">
        <ele>61.6</ele>
        <time>2015-04-25T08:29:29.000Z</time>
      </trkpt>
      <trkpt lat="48.64647" lon="2.71496">
        <ele>61.9</ele>
        <time>2015-04-25T08:29:34.000Z</time>
      </trkpt>
      <trkpt lat="48.64648" lon="2.715">
        <ele>62</ele>
        <time>2015-04-25T08:29:36.000Z</time>
      </trkpt>
      <trkpt lat="48.64649" lon="2.71508">
        <ele>62.3</ele>
        <time>2015-04-25T08:29:41.000Z</time>
      </trkpt>
      <trkpt lat="48.64651" lon="2.71511">
        <ele>62.4</ele>
        <time>2015-04-25T08:29:43.000Z</time>
      </trkpt>
      <trkpt lat="48.64651" lon="2.71516">
        <ele>62.6</ele>
        <time>2015-04-25T08:29:45.000Z</time>
      </trkpt>
      <trkpt lat="48.64651" lon="2.71525">
        <ele>62.9</ele>
        <time>2015-04-25T08:29:49.000Z</time>
      </trkpt>
      <trkpt lat="48.6465" lon="2.71527">
        <ele>63</ele>
        <time>2015-04-25T08:29:51.000Z</time>
      </trkpt>
      <trkpt lat="48.64648" lon="2.71523">
        <ele>62.8</ele>
        <time>2015-04-25T08:29:52.000Z</time>
      </trkpt>
      <trkpt lat="48.64646" lon="2.71522">
        <ele>62.8</ele>
        <time>2015-04-25T08:29:53.000Z</time>
      </trkpt>
      <trkpt lat="48.6464" lon="2.71516">
        <ele>62.6</ele>
        <time>2015-04-25T08:29:59.000Z</time>
      </trkpt>
      <trkpt lat="48.64636" lon="2.71512">
        <ele>62.7</ele>
        <time>2015-04-25T08:30:03.000Z</time>
      </trkpt>
      <trkpt lat="48.64633" lon="2.71512">
        <ele>62.8</ele>
        <time>2015-04-25T08:30:05.000Z</time>
      </trkpt>
      <trkpt lat="48.64629" lon="2.71507">
        <ele>63</ele>
        <time>2015-04-25T08:30:09.000Z</time>
      </trkpt>
      <trkpt lat="48.64621" lon="2.71499">
        <ele>63.2</ele>
        <time>2015-04-25T08:30:17.000Z</time>
      </trkpt>
      <trkpt lat="48.64617" lon="2.71496">
        <ele>63.3</ele>
        <time>2015-04-25T08:30:22.000Z</time>
      </trkpt>
      <trkpt lat="48.64613" lon="2.71493">
        <ele>63.4</ele>
        <time>2015-04-25T08:30:26.000Z</time>
      </trkpt>
      <trkpt lat="48.64609" lon="2.71488">
        <ele>63.2</ele>
        <time>2015-04-25T08:30:31.000Z</time>
      </trkpt>
      <trkpt lat="48.64602" lon="2.71481">
        <ele>62.9</ele>
        <time>2015-04-25T08:30:36.000Z</time>
      </trkpt>
      <trkpt lat="48.64599" lon="2.7148">
        <ele>63</ele>
        <time>2015-04-25T08:30:40.000Z</time>
      </trkpt>
      <trkpt lat="48.64598" lon="2.71484">
        <ele>63.3</ele>
        <time>2015-04-25T08:30:43.000Z</time>
      </trkpt>
      <trkpt lat="48.64596" lon="2.71487">
        <ele>63.6</ele>
        <time>2015-04-25T08:30:46.000Z</time>
      </trkpt>
      <trkpt lat="48.64593" lon="2.7149">
        <ele>63.9</ele>
        <time>2015-04-25T08:30:51.000Z</time>
      </trkpt>
      <trkpt lat="48.64591" lon="2.71497">
        <ele>64.5</ele>
        <time>2015-04-25T08:30:55.000Z</time>
      </trkpt>
      <trkpt lat="48.64586" lon="2.71507">
        <ele>65.4</ele>
        <time>2015-04-25T08:30:59.000Z</time>
      </trkpt>
      <trkpt lat="48.64583" lon="2.71512">
        <ele>65.9</ele>
        <time>2015-04-25T08:31:03.000Z</time>
      </trkpt>
      <trkpt lat="48.64577" lon="2.71515">
        <ele>66.8</ele>
        <time>2015-04-25T08:31:14.000Z</time>
      </trkpt>
      <trkpt lat="48.6457" lon="2.71515">
        <ele>67.5</ele>
        <time>2015-04-25T08:31:20.000Z</time>
      </trkpt>
      <trkpt lat="48.64564" lon="2.71517">
        <ele>68.2</ele>
        <time>2015-04-25T08:31:25.000Z</time>
      </trkpt>
      <trkpt lat="48.64556" lon="2.71516">
        <ele>69.1</ele>
        <time>2015-04-25T08:31:31.000Z</time>
      </trkpt>
      <trkpt lat="48.64552" lon="2.71515">
        <ele>69.4</ele>
        <time>2015-04-25T08:31:33.000Z</time>
      </trkpt>
      <trkpt lat="48.64551" lon="2.71513">
        <ele>69.5</ele>
        <time>2015-04-25T08:31:35.000Z</time>
      </trkpt>
      <trkpt lat="48.64544" lon="2.7151">
        <ele>70</ele>
        <time>2015-04-25T08:31:40.000Z</time>
      </trkpt>
      <trkpt lat="48.64543" lon="2.7151">
        <ele>70.1</ele>
        <time>2015-04-25T08:31:41.000Z</time>
      </trkpt>
      <trkpt lat="48.64537" lon="2.71506">
        <ele>70.4</ele>
        <time>2015-04-25T08:31:46.000Z</time>
      </trkpt>
      <trkpt lat="48.64532" lon="2.71503">
        <ele>70.7</ele>
        <time>2015-04-25T08:31:51.000Z</time>
      </trkpt>
      <trkpt lat="48.64531" lon="2.71502">
        <ele>70.8</ele>
        <time>2015-04-25T08:31:52.000Z</time>
      </trkpt>
      <trkpt lat="48.64524" lon="2.71498">
        <ele>71.2</ele>
        <time>2015-04-25T08:31:58.000Z</time>
      </trkpt>
      <trkpt lat="48.64517" lon="2.71493">
        <ele>71.7</ele>
        <time>2015-04-25T08:32:04.000Z</time>
      </trkpt>
      <trkpt lat="48.64513" lon="2.71493">
        <ele>72.2</ele>
        <time>2015-04-25T08:32:08.000Z</time>
      </trkpt>
      <trkpt lat="48.64513" lon="2.71494">
        <ele>72.2</ele>
        <time>2015-04-25T08:32:09.000Z</time>
      </trkpt>
      <trkpt lat="48.64511" lon="2.71495">
        <ele>72.6</ele>
        <time>2015-04-25T08:32:12.000Z</time>
      </trkpt>
      <trkpt lat="48.64508" lon="2.71498">
        <ele>73</ele>
        <time>2015-04-25T08:32:15.000Z</time>
      </trkpt>
      <trkpt lat="48.64505" lon="2.71501">
        <ele>73.5</ele>
        <time>2015-04-25T08:32:19.000Z</time>
      </trkpt>
      <trkpt lat="48.64499" lon="2.71507">
        <ele>74.3</ele>
        <time>2015-04-25T08:32:24.000Z</time>
      </trkpt>
      <trkpt lat="48.64496" lon="2.71513">
        <ele>74.6</ele>
        <time>2015-04-25T08:32:27.000Z</time>
      </trkpt>
      <trkpt lat="48.64496" lon="2.71514">
        <ele>74.7</ele>
        <time>2015-04-25T08:32:28.000Z</time>
      </trkpt>
      <trkpt lat="48.64491" lon="2.71514">
        <ele>74.8</ele>
        <time>2015-04-25T08:32:32.000Z</time>
      </trkpt>
      <trkpt lat="48.64487" lon="2.71512">
        <ele>74.9</ele>
        <time>2015-04-25T08:32:37.000Z</time>
      </trkpt>
      <trkpt lat="48.64485" lon="2.71509">
        <ele>74.9</ele>
        <time>2015-04-25T08:32:44.000Z</time>
      </trkpt>
      <trkpt lat="48.6448" lon="2.71504">
        <ele>74.9</ele>
        <time>2015-04-25T08:32:49.000Z</time>
      </trkpt>
      <trkpt lat="48.64479" lon="2.71503">
        <ele>74.9</ele>
        <time>2015-04-25T08:32:50.000Z</time>
      </trkpt>
      <trkpt lat="48.64476" lon="2.715">
        <ele>74.9</ele>
        <time>2015-04-25T08:32:53.000Z</time>
      </trkpt>
      <trkpt lat="48.64475" lon="2.71499">
        <ele>74.9</ele>
        <time>2015-04-25T08:32:54.000Z</time>
      </trkpt>
      <trkpt lat="48.6447" lon="2.71493">
        <ele>75.1</ele>
        <time>2015-04-25T08:32:58.000Z</time>
      </trkpt>
      <trkpt lat="48.64468" lon="2.71491">
        <ele>75.3</ele>
        <time>2015-04-25T08:33:00.000Z</time>
      </trkpt>
      <trkpt lat="48.64466" lon="2.7149">
        <ele>75.4</ele>
        <time>2015-04-25T08:33:02.000Z</time>
      </trkpt>
      <trkpt lat="48.64463" lon="2.71489">
        <ele>75.7</ele>
        <time>2015-04-25T08:33:05.000Z</time>
      </trkpt>
      <trkpt lat="48.64461" lon="2.71488">
        <ele>75.8</ele>
        <time>2015-04-25T08:33:06.000Z</time>
      </trkpt>
      <trkpt lat="48.64458" lon="2.71489">
        <ele>76</ele>
        <time>2015-04-25T08:33:09.000Z</time>
      </trkpt>
      <trkpt lat="48.64455" lon="2.7149">
        <ele>76.2</ele>
        <time>2015-04-25T08:33:11.000Z</time>
      </trkpt>
      <trkpt lat="48.64449" lon="2.71491">
        <ele>76.7</ele>
        <time>2015-04-25T08:33:15.000Z</time>
      </trkpt>
      <trkpt lat="48.64448" lon="2.71491">
        <ele>76.8</ele>
        <time>2015-04-25T08:33:16.000Z</time>
      </trkpt>
      <trkpt lat="48.64443" lon="2.71491">
        <ele>77.1</ele>
        <time>2015-04-25T08:33:20.000Z</time>
      </trkpt>
      <trkpt lat="48.64435" lon="2.71492">
        <ele>77.6</ele>
        <time>2015-04-25T08:33:35.000Z</time>
      </trkpt>
      <trkpt lat="48.64434" lon="2.71492">
        <ele>77.6</ele>
        <time>2015-04-25T08:33:36.000Z</time>
      </trkpt>
      <trkpt lat="48.64427" lon="2.71494">
        <ele>78.1</ele>
        <time>2015-04-25T08:33:41.000Z</time>
      </trkpt>
      <trkpt lat="48.64421" lon="2.71495">
        <ele>78.5</ele>
        <time>2015-04-25T08:33:46.000Z</time>
      </trkpt>
      <trkpt lat="48.6442" lon="2.71495">
        <ele>78.6</ele>
        <time>2015-04-25T08:33:47.000Z</time>
      </trkpt>
      <trkpt lat="48.64418" lon="2.71496">
        <ele>78.8</ele>
        <time>2015-04-25T08:33:49.000Z</time>
      </trkpt>
      <trkpt lat="48.64415" lon="2.71496">
        <ele>79</ele>
        <time>2015-04-25T08:33:50.000Z</time>
      </trkpt>
      <trkpt lat="48.64405" lon="2.71496">
        <ele>80.1</ele>
        <time>2015-04-25T08:33:54.000Z</time>
      </trkpt>
      <trkpt lat="48.64402" lon="2.71495">
        <ele>80.5</ele>
        <time>2015-04-25T08:33:55.000Z</time>
      </trkpt>
      <trkpt lat="48.64389" lon="2.71488">
        <ele>82</ele>
        <time>2015-04-25T08:34:01.000Z</time>
      </trkpt>
      <trkpt lat="48.64382" lon="2.71482">
        <ele>82.3</ele>
        <time>2015-04-25T08:34:06.000Z</time>
      </trkpt>
      <trkpt lat="48.64375" lon="2.71476">
        <ele>82.6</ele>
        <time>2015-04-25T08:34:11.000Z</time>
      </trkpt>
      <trkpt lat="48.64371" lon="2.71471">
        <ele>82.6</ele>
        <time>2015-04-25T08:34:15.000Z</time>
      </trkpt>
      <trkpt lat="48.64366" lon="2.71466">
        <ele>82.6</ele>
        <time>2015-04-25T08:34:19.000Z</time>
      </trkpt>
      <trkpt lat="48.64358" lon="2.71464">
        <ele>82.9</ele>
        <time>2015-04-25T08:34:25.000Z</time>
      </trkpt>
      <trkpt lat="48.64355" lon="2.71463">
        <ele>83.2</ele>
        <time>2015-04-25T08:34:27.000Z</time>
      </trkpt>
      <trkpt lat="48.64349" lon="2.71463">
        <ele>83.7</ele>
        <time>2015-04-25T08:34:32.000Z</time>
      </trkpt>
      <trkpt lat="48.64347" lon="2.71462">
        <ele>83.8</ele>
        <time>2015-04-25T08:34:34.000Z</time>
      </trkpt>
      <trkpt lat="48.64347" lon="2.71461">
        <ele>83.8</ele>
        <time>2015-04-25T08:34:37.000Z</time>
      </trkpt>
      <trkpt lat="48.64346" lon="2.7146">
        <ele>83.9</ele>
        <time>2015-04-25T08:34:42.000Z</time>
      </trkpt>
      <trkpt lat="48.64345" lon="2.71459">
        <ele>84</ele>
        <time>2015-04-25T08:34:44.000Z</time>
      </trkpt>
      <trkpt lat="48.64343" lon="2.7146">
        <ele>84.1</ele>
        <time>2015-04-25T08:34:47.000Z</time>
      </trkpt>
      <trkpt lat="48.64338" lon="2.71459">
        <ele>84.5</ele>
        <time>2015-04-25T08:34:51.000Z</time>
      </trkpt>
      <trkpt lat="48.64331" lon="2.71454">
        <ele>85.1</ele>
        <time>2015-04-25T08:34:57.000Z</time>
      </trkpt>
      <trkpt lat="48.64324" lon="2.71452">
        <ele>85.4</ele>
        <time>2015-04-25T08:35:02.000Z</time>
      </trkpt>
      <trkpt lat="48.64319" lon="2.7145">
        <ele>85.6</ele>
        <time>2015-04-25T08:35:06.000Z</time>
      </trkpt>
      <trkpt lat="48.64317" lon="2.7145">
        <ele>85.7</ele>
        <time>2015-04-25T08:35:07.000Z</time>
      </trkpt>
      <trkpt lat="48.64309" lon="2.71447">
        <ele>86</ele>
        <time>2015-04-25T08:35:13.000Z</time>
      </trkpt>
      <trkpt lat="48.64305" lon="2.71447">
        <ele>86.1</ele>
        <time>2015-04-25T08:35:15.000Z</time>
      </trkpt>
      <trkpt lat="48.64297" lon="2.71445">
        <ele>86.6</ele>
        <time>2015-04-25T08:35:19.000Z</time>
      </trkpt>
      <trkpt lat="48.64289" lon="2.71444">
        <ele>87.2</ele>
        <time>2015-04-25T08:35:23.000Z</time>
      </trkpt>
      <trkpt lat="48.64289" lon="2.71444">
        <ele>87.2</ele>
        <time>2015-04-25T08:35:24.000Z</time>
      </trkpt>
      <trkpt lat="48.64286" lon="2.71441">
        <ele>87.3</ele>
        <time>2015-04-25T08:35:31.000Z</time>
      </trkpt>
      <trkpt lat="48.64275" lon="2.7144">
        <ele>87.8</ele>
        <time>2015-04-25T08:35:38.000Z</time>
      </trkpt>
      <trkpt lat="48.64271" lon="2.7144">
        <ele>87.9</ele>
        <time>2015-04-25T08:35:42.000Z</time>
      </trkpt>
      <trkpt lat="48.64263" lon="2.71443">
        <ele>88</ele>
        <time>2015-04-25T08:35:48.000Z</time>
      </trkpt>
      <trkpt lat="48.64253" lon="2.71446">
        <ele>88.1</ele>
        <time>2015-04-25T08:35:55.000Z</time>
      </trkpt>
      <trkpt lat="48.64238" lon="2.71455">
        <ele>88.8</ele>
        <time>2015-04-25T08:36:02.000Z</time>
      </trkpt>
      <trkpt lat="48.64231" lon="2.71461">
        <ele>89.3</ele>
        <time>2015-04-25T08:36:06.000Z</time>
      </trkpt>
      <trkpt lat="48.64231" lon="2.71461">
        <ele>89.3</ele>
        <time>2015-04-25T08:36:07.000Z</time>
      </trkpt>
      <trkpt lat="48.6423" lon="2.71457">
        <ele>89.2</ele>
        <time>2015-04-25T08:36:12.000Z</time>
      </trkpt>
      <trkpt lat="48.64225" lon="2.71446">
        <ele>88.9</ele>
        <time>2015-04-25T08:36:16.000Z</time>
      </trkpt>
      <trkpt lat="48.6422" lon="2.7144">
        <ele>88.9</ele>
        <time>2015-04-25T08:36:21.000Z</time>
      </trkpt>
      <trkpt lat="48.64218" lon="2.71439">
        <ele>88.9</ele>
        <time>2015-04-25T08:36:22.000Z</time>
      </trkpt>
      <trkpt lat="48.64208" lon="2.71432">
        <ele>88.8</ele>
        <time>2015-04-25T08:36:29.000Z</time>
      </trkpt>
      <trkpt lat="48.64202" lon="2.71423">
        <ele>88.4</ele>
        <time>2015-04-25T08:36:35.000Z</time>
      </trkpt>
      <trkpt lat="48.64197" lon="2.71412">
        <ele>87.7</ele>
        <time>2015-04-25T08:36:41.000Z</time>
      </trkpt>
      <trkpt lat="48.64195" lon="2.71403">
        <ele>87.1</ele>
        <time>2015-04-25T08:36:46.000Z</time>
      </trkpt>
      <trkpt lat="48.64195" lon="2.71403">
        <ele>87</ele>
        <time>2015-04-25T08:36:47.000Z</time>
      </trkpt>
      <trkpt lat="48.64196" lon="2.71403">
        <ele>87.1</ele>
        <time>2015-04-25T08:36:52.000Z</time>
      </trkpt>
      <trkpt lat="48.64196" lon="2.71393">
        <ele>86.4</ele>
        <time>2015-04-25T08:37:02.000Z</time>
      </trkpt>
      <trkpt lat="48.64196" lon="2.71391">
        <ele>86.2</ele>
        <time>2015-04-25T08:37:03.000Z</time>
      </trkpt>
      <trkpt lat="48.64197" lon="2.71383">
        <ele>85.7</ele>
        <time>2015-04-25T08:37:07.000Z</time>
      </trkpt>
      <trkpt lat="48.64198" lon="2.71366">
        <ele>84.5</ele>
        <time>2015-04-25T08:37:11.000Z</time>
      </trkpt>
      <trkpt lat="48.64199" lon="2.71347">
        <ele>83.6</ele>
        <time>2015-04-25T08:37:16.000Z</time>
      </trkpt>
      <trkpt lat="48.64199" lon="2.71337">
        <ele>83.2</ele>
        <time>2015-04-25T08:37:20.000Z</time>
      </trkpt>
      <trkpt lat="48.64199" lon="2.71335">
        <ele>83.1</ele>
        <time>2015-04-25T08:37:21.000Z</time>
      </trkpt>
      <trkpt lat="48.64201" lon="2.71329">
        <ele>82.8</ele>
        <time>2015-04-25T08:37:24.000Z</time>
      </trkpt>
      <trkpt lat="48.64202" lon="2.71325">
        <ele>82.7</ele>
        <time>2015-04-25T08:37:26.000Z</time>
      </trkpt>
      <trkpt lat="48.64203" lon="2.71311">
        <ele>82.2</ele>
        <time>2015-04-25T08:37:32.000Z</time>
      </trkpt>
      <trkpt lat="48.64203" lon="2.71297">
        <ele>81.7</ele>
        <time>2015-04-25T08:37:38.000Z</time>
      </trkpt>
      <trkpt lat="48.64204" lon="2.71295">
        <ele>81.6</ele>
        <time>2015-04-25T08:37:39.000Z</time>
      </trkpt>
      <trkpt lat="48.64205" lon="2.71283">
        <ele>81.2</ele>
        <time>2015-04-25T08:37:44.000Z</time>
      </trkpt>
      <trkpt lat="48.64205" lon="2.71278">
        <ele>81</ele>
        <time>2015-04-25T08:37:46.000Z</time>
      </trkpt>
      <trkpt lat="48.64209" lon="2.71275">
        <ele>80.9</ele>
        <time>2015-04-25T08:37:49.000Z</time>
      </trkpt>
      <trkpt lat="48.64212" lon="2.71274">
        <ele>80.8</ele>
        <time>2015-04-25T08:37:52.000Z</time>
      </trkpt>
      <trkpt lat="48.64212" lon="2.71274">
        <ele>80.8</ele>
        <time>2015-04-25T08:37:54.000Z</time>
      </trkpt>
      <trkpt lat="48.64211" lon="2.7127">
        <ele>80.7</ele>
        <time>2015-04-25T08:38:06.000Z</time>
      </trkpt>
      <trkpt lat="48.64212" lon="2.71265">
        <ele>80.4</ele>
        <time>2015-04-25T08:38:09.000Z</time>
      </trkpt>
      <trkpt lat="48.64215" lon="2.71257">
        <ele>79.9</ele>
        <time>2015-04-25T08:38:13.000Z</time>
      </trkpt>
      <trkpt lat="48.64219" lon="2.7125">
        <ele>79.2</ele>
        <time>2015-04-25T08:38:17.000Z</time>
      </trkpt>
      <trkpt lat="48.64221" lon="2.71248">
        <ele>79.2</ele>
        <time>2015-04-25T08:38:18.000Z</time>
      </trkpt>
      <trkpt lat="48.64228" lon="2.71238">
        <ele>79</ele>
        <time>2015-04-25T08:38:22.000Z</time>
      </trkpt>
      <trkpt lat="48.64239" lon="2.71227">
        <ele>78.3</ele>
        <time>2015-04-25T08:38:28.000Z</time>
      </trkpt>
      <trkpt lat="48.64242" lon="2.71223">
        <ele>77.9</ele>
        <time>2015-04-25T08:38:30.000Z</time>
      </trkpt>
      <trkpt lat="48.64245" lon="2.71219">
        <ele>77.6</ele>
        <time>2015-04-25T08:38:33.000Z</time>
      </trkpt>
      <trkpt lat="48.64249" lon="2.71216">
        <ele>77.4</ele>
        <time>2015-04-25T08:38:37.000Z</time>
      </trkpt>
      <trkpt lat="48.64251" lon="2.71211">
        <ele>77.3</ele>
        <time>2015-04-25T08:38:41.000Z</time>
      </trkpt>
      <trkpt lat="48.64255" lon="2.71204">
        <ele>77</ele>
        <time>2015-04-25T08:38:45.000Z</time>
      </trkpt>
      <trkpt lat="48.64255" lon="2.71202">
        <ele>77</ele>
        <time>2015-04-25T08:38:46.000Z</time>
      </trkpt>
      <trkpt lat="48.64257" lon="2.71198">
        <ele>77</ele>
        <time>2015-04-25T08:38:48.000Z</time>
      </trkpt>
      <trkpt lat="48.64257" lon="2.71196">
        <ele>77</ele>
        <time>2015-04-25T08:38:49.000Z</time>
      </trkpt>
      <trkpt lat="48.64262" lon="2.71191">
        <ele>76.5</ele>
        <time>2015-04-25T08:38:53.000Z</time>
      </trkpt>
      <trkpt lat="48.64265" lon="2.71189">
        <ele>76.3</ele>
        <time>2015-04-25T08:38:56.000Z</time>
      </trkpt>
      <trkpt lat="48.64267" lon="2.71188">
        <ele>76</ele>
        <time>2015-04-25T08:38:58.000Z</time>
      </trkpt>
      <trkpt lat="48.64271" lon="2.71183">
        <ele>75.8</ele>
        <time>2015-04-25T08:39:03.000Z</time>
      </trkpt>
      <trkpt lat="48.64277" lon="2.71179">
        <ele>75.2</ele>
        <time>2015-04-25T08:39:08.000Z</time>
      </trkpt>
      <trkpt lat="48.64281" lon="2.71171">
        <ele>75.1</ele>
        <time>2015-04-25T08:39:12.000Z</time>
      </trkpt>
      <trkpt lat="48.64282" lon="2.71164">
        <ele>75.1</ele>
        <time>2015-04-25T08:39:17.000Z</time>
      </trkpt>
      <trkpt lat="48.64282" lon="2.71162">
        <ele>75.3</ele>
        <time>2015-04-25T08:39:18.000Z</time>
      </trkpt>
      <trkpt lat="48.64278" lon="2.71158">
        <ele>76.3</ele>
        <time>2015-04-25T08:39:21.000Z</time>
      </trkpt>
      <trkpt lat="48.64278" lon="2.71154">
        <ele>76.4</ele>
        <time>2015-04-25T08:39:24.000Z</time>
      </trkpt>
      <trkpt lat="48.64278" lon="2.71154">
        <ele>76.3</ele>
        <time>2015-04-25T08:39:26.000Z</time>
      </trkpt>
      <trkpt lat="48.64287" lon="2.71143">
        <ele>74.8</ele>
        <time>2015-04-25T08:40:58.000Z</time>
      </trkpt>
      <trkpt lat="48.64284" lon="2.71134">
        <ele>75.9</ele>
        <time>2015-04-25T08:41:04.000Z</time>
      </trkpt>
      <trkpt lat="48.64281" lon="2.71126">
        <ele>77</ele>
        <time>2015-04-25T08:41:10.000Z</time>
      </trkpt>
      <trkpt lat="48.64277" lon="2.71117">
        <ele>77.8</ele>
        <time>2015-04-25T08:41:16.000Z</time>
      </trkpt>
      <trkpt lat="48.64274" lon="2.7111">
        <ele>78.3</ele>
        <time>2015-04-25T08:41:23.000Z</time>
      </trkpt>
      <trkpt lat="48.64272" lon="2.71103">
        <ele>78.7</ele>
        <time>2015-04-25T08:41:29.000Z</time>
      </trkpt>
      <trkpt lat="48.6427" lon="2.71101">
        <ele>78.9</ele>
        <time>2015-04-25T08:41:32.000Z</time>
      </trkpt>
      <trkpt lat="48.64269" lon="2.71097">
        <ele>79.2</ele>
        <time>2015-04-25T08:41:34.000Z</time>
      </trkpt>
      <trkpt lat="48.64268" lon="2.71095">
        <ele>79.3</ele>
        <time>2015-04-25T08:41:36.000Z</time>
      </trkpt>
      <trkpt lat="48.64266" lon="2.71086">
        <ele>79.8</ele>
        <time>2015-04-25T08:41:39.000Z</time>
      </trkpt>
      <trkpt lat="48.64263" lon="2.71075">
        <ele>80.1</ele>
        <time>2015-04-25T08:41:43.000Z</time>
      </trkpt>
      <trkpt lat="48.64259" lon="2.71058">
        <ele>80.3</ele>
        <time>2015-04-25T08:41:48.000Z</time>
      </trkpt>
      <trkpt lat="48.64255" lon="2.71044">
        <ele>80.6</ele>
        <time>2015-04-25T08:41:51.000Z</time>
      </trkpt>
      <trkpt lat="48.64252" lon="2.71027">
        <ele>80.9</ele>
        <time>2015-04-25T08:41:55.000Z</time>
      </trkpt>
      <trkpt lat="48.64245" lon="2.71004">
        <ele>80.3</ele>
        <time>2015-04-25T08:42:00.000Z</time>
      </trkpt>
      <trkpt lat="48.64243" lon="2.70999">
        <ele>80.2</ele>
        <time>2015-04-25T08:42:01.000Z</time>
      </trkpt>
      <trkpt lat="48.64237" lon="2.70983">
        <ele>80.4</ele>
        <time>2015-04-25T08:42:04.000Z</time>
      </trkpt>
      <trkpt lat="48.64231" lon="2.70961">
        <ele>80.6</ele>
        <time>2015-04-25T08:42:08.000Z</time>
      </trkpt>
      <trkpt lat="48.64226" lon="2.70935">
        <ele>80.5</ele>
        <time>2015-04-25T08:42:13.000Z</time>
      </trkpt>
      <trkpt lat="48.64221" lon="2.70914">
        <ele>80.9</ele>
        <time>2015-04-25T08:42:17.000Z</time>
      </trkpt>
      <trkpt lat="48.6422" lon="2.7089">
        <ele>80.2</ele>
        <time>2015-04-25T08:42:21.000Z</time>
      </trkpt>
      <trkpt lat="48.6422" lon="2.70886">
        <ele>80.1</ele>
        <time>2015-04-25T08:42:22.000Z</time>
      </trkpt>
      <trkpt lat="48.6422" lon="2.70881">
        <ele>79.9</ele>
        <time>2015-04-25T08:42:23.000Z</time>
      </trkpt>
      <trkpt lat="48.64222" lon="2.70873">
        <ele>79.5</ele>
        <time>2015-04-25T08:42:25.000Z</time>
      </trkpt>
      <trkpt lat="48.64227" lon="2.70853">
        <ele>78.4</ele>
        <time>2015-04-25T08:42:30.000Z</time>
      </trkpt>
      <trkpt lat="48.64226" lon="2.7085">
        <ele>78.4</ele>
        <time>2015-04-25T08:42:32.000Z</time>
      </trkpt>
      <trkpt lat="48.64227" lon="2.70844">
        <ele>78.3</ele>
        <time>2015-04-25T08:42:34.000Z</time>
      </trkpt>
      <trkpt lat="48.64229" lon="2.70843">
        <ele>78.1</ele>
        <time>2015-04-25T08:42:35.000Z</time>
      </trkpt>
      <trkpt lat="48.64229" lon="2.70837">
        <ele>78</ele>
        <time>2015-04-25T08:42:38.000Z</time>
      </trkpt>
      <trkpt lat="48.6423" lon="2.70837">
        <ele>77.9</ele>
        <time>2015-04-25T08:42:39.000Z</time>
      </trkpt>
      <trkpt lat="48.64231" lon="2.70834">
        <ele>77.8</ele>
        <time>2015-04-25T08:42:40.000Z</time>
      </trkpt>
      <trkpt lat="48.64233" lon="2.70831">
        <ele>77.5</ele>
        <time>2015-04-25T08:42:41.000Z</time>
      </trkpt>
      <trkpt lat="48.64241" lon="2.70815">
        <ele>76.7</ele>
        <time>2015-04-25T08:42:46.000Z</time>
      </trkpt>
      <trkpt lat="48.64246" lon="2.70804">
        <ele>76.4</ele>
        <time>2015-04-25T08:42:50.000Z</time>
      </trkpt>
      <trkpt lat="48.64249" lon="2.70796">
        <ele>76.2</ele>
        <time>2015-04-25T08:42:54.000Z</time>
      </trkpt>
      <trkpt lat="48.6425" lon="2.70793">
        <ele>76</ele>
        <time>2015-04-25T08:42:55.000Z</time>
      </trkpt>
      <trkpt lat="48.64254" lon="2.70784">
        <ele>75.4</ele>
        <time>2015-04-25T08:43:00.000Z</time>
      </trkpt>
      <trkpt lat="48.64257" lon="2.70774">
        <ele>75.2</ele>
        <time>2015-04-25T08:43:04.000Z</time>
      </trkpt>
      <trkpt lat="48.64257" lon="2.70762">
        <ele>75.5</ele>
        <time>2015-04-25T08:43:09.000Z</time>
      </trkpt>
      <trkpt lat="48.64259" lon="2.70753">
        <ele>75.6</ele>
        <time>2015-04-25T08:43:13.000Z</time>
      </trkpt>
      <trkpt lat="48.64259" lon="2.70752">
        <ele>75.6</ele>
        <time>2015-04-25T08:43:14.000Z</time>
      </trkpt>
      <trkpt lat="48.6426" lon="2.7075">
        <ele>75.6</ele>
        <time>2015-04-25T08:43:18.000Z</time>
      </trkpt>
      <trkpt lat="48.6426" lon="2.70746">
        <ele>75.6</ele>
        <time>2015-04-25T08:43:25.000Z</time>
      </trkpt>
      <trkpt lat="48.64259" lon="2.70742">
        <ele>75.7</ele>
        <time>2015-04-25T08:43:27.000Z</time>
      </trkpt>
      <trkpt lat="48.6426" lon="2.70734">
        <ele>75.5</ele>
        <time>2015-04-25T08:43:32.000Z</time>
      </trkpt>
      <trkpt lat="48.6426" lon="2.70725">
        <ele>75.5</ele>
        <time>2015-04-25T08:43:37.000Z</time>
      </trkpt>
      <trkpt lat="48.6426" lon="2.70721">
        <ele>75.5</ele>
        <time>2015-04-25T08:43:39.000Z</time>
      </trkpt>
      <trkpt lat="48.64259" lon="2.70713">
        <ele>75.6</ele>
        <time>2015-04-25T08:43:42.000Z</time>
      </trkpt>
      <trkpt lat="48.64257" lon="2.70709">
        <ele>75.6</ele>
        <time>2015-04-25T08:43:44.000Z</time>
      </trkpt>
      <trkpt lat="48.64259" lon="2.70707">
        <ele>75.4</ele>
        <time>2015-04-25T08:43:46.000Z</time>
      </trkpt>
      <trkpt lat="48.64259" lon="2.70692">
        <ele>75.1</ele>
        <time>2015-04-25T08:43:52.000Z</time>
      </trkpt>
      <trkpt lat="48.64259" lon="2.70679">
        <ele>75.4</ele>
        <time>2015-04-25T08:43:57.000Z</time>
      </trkpt>
      <trkpt lat="48.64259" lon="2.70671">
        <ele>75.6</ele>
        <time>2015-04-25T08:44:00.000Z</time>
      </trkpt>
      <trkpt lat="48.6426" lon="2.70667">
        <ele>75.6</ele>
        <time>2015-04-25T08:44:02.000Z</time>
      </trkpt>
      <trkpt lat="48.6426" lon="2.70665">
        <ele>75.5</ele>
        <time>2015-04-25T08:44:03.000Z</time>
      </trkpt>
      <trkpt lat="48.64262" lon="2.70657">
        <ele>75.3</ele>
        <time>2015-04-25T08:44:07.000Z</time>
      </trkpt>
      <trkpt lat="48.64262" lon="2.70653">
        <ele>75.3</ele>
        <time>2015-04-25T08:44:09.000Z</time>
      </trkpt>
      <trkpt lat="48.64262" lon="2.7065">
        <ele>75.2</ele>
        <time>2015-04-25T08:44:10.000Z</time>
      </trkpt>
      <trkpt lat="48.64263" lon="2.70643">
        <ele>75.1</ele>
        <time>2015-04-25T08:44:12.000Z</time>
      </trkpt>
      <trkpt lat="48.64263" lon="2.7064">
        <ele>75.1</ele>
        <time>2015-04-25T08:44:14.000Z</time>
      </trkpt>
      <trkpt lat="48.64263" lon="2.70637">
        <ele>75.2</ele>
        <time>2015-04-25T08:44:15.000Z</time>
      </trkpt>
      <trkpt lat="48.64264" lon="2.70632">
        <ele>75.1</ele>
        <time>2015-04-25T08:44:17.000Z</time>
      </trkpt>
      <trkpt lat="48.64265" lon="2.70624">
        <ele>75.1</ele>
        <time>2015-04-25T08:44:20.000Z</time>
      </trkpt>
      <trkpt lat="48.64266" lon="2.70618">
        <ele>75.2</ele>
        <time>2015-04-25T08:44:24.000Z</time>
      </trkpt>
      <trkpt lat="48.64265" lon="2.70614">
        <ele>75.3</ele>
        <time>2015-04-25T08:44:27.000Z</time>
      </trkpt>
      <trkpt lat="48.64266" lon="2.70612">
        <ele>75.3</ele>
        <time>2015-04-25T08:44:28.000Z</time>
      </trkpt>
      <trkpt lat="48.64266" lon="2.7061">
        <ele>75.3</ele>
        <time>2015-04-25T08:44:29.000Z</time>
      </trkpt>
      <trkpt lat="48.64266" lon="2.70604">
        <ele>75.5</ele>
        <time>2015-04-25T08:44:32.000Z</time>
      </trkpt>
      <trkpt lat="48.64269" lon="2.70597">
        <ele>75.5</ele>
        <time>2015-04-25T08:44:35.000Z</time>
      </trkpt>
      <trkpt lat="48.64268" lon="2.70589">
        <ele>75.8</ele>
        <time>2015-04-25T08:44:39.000Z</time>
      </trkpt>
      <trkpt lat="48.6427" lon="2.70577">
        <ele>75.8</ele>
        <time>2015-04-25T08:44:44.000Z</time>
      </trkpt>
      <trkpt lat="48.6427" lon="2.70575">
        <ele>75.8</ele>
        <time>2015-04-25T08:44:45.000Z</time>
      </trkpt>
      <trkpt lat="48.6427" lon="2.7057">
        <ele>75.9</ele>
        <time>2015-04-25T08:44:47.000Z</time>
      </trkpt>
      <trkpt lat="48.6427" lon="2.70565">
        <ele>75.8</ele>
        <time>2015-04-25T08:44:50.000Z</time>
      </trkpt>
      <trkpt lat="48.64273" lon="2.70558">
        <ele>75.6</ele>
        <time>2015-04-25T08:44:55.000Z</time>
      </trkpt>
      <trkpt lat="48.64275" lon="2.70551">
        <ele>75.4</ele>
        <time>2015-04-25T08:44:58.000Z</time>
      </trkpt>
      <trkpt lat="48.64278" lon="2.70545">
        <ele>75.3</ele>
        <time>2015-04-25T08:45:01.000Z</time>
      </trkpt>
      <trkpt lat="48.6428" lon="2.70532">
        <ele>75.6</ele>
        <time>2015-04-25T08:45:06.000Z</time>
      </trkpt>
      <trkpt lat="48.64281" lon="2.7053">
        <ele>75.5</ele>
        <time>2015-04-25T08:45:07.000Z</time>
      </trkpt>
      <trkpt lat="48.64284" lon="2.70526">
        <ele>75.1</ele>
        <time>2015-04-25T08:45:09.000Z</time>
      </trkpt>
      <trkpt lat="48.64284" lon="2.70523">
        <ele>75.2</ele>
        <time>2015-04-25T08:45:10.000Z</time>
      </trkpt>
      <trkpt lat="48.64286" lon="2.7051">
        <ele>75.5</ele>
        <time>2015-04-25T08:45:15.000Z</time>
      </trkpt>
      <trkpt lat="48.6429" lon="2.705">
        <ele>75.3</ele>
        <time>2015-04-25T08:45:19.000Z</time>
      </trkpt>
      <trkpt lat="48.64292" lon="2.70489">
        <ele>75.2</ele>
        <time>2015-04-25T08:45:23.000Z</time>
      </trkpt>
      <trkpt lat="48.64292" lon="2.70479">
        <ele>75.3</ele>
        <time>2015-04-25T08:45:27.000Z</time>
      </trkpt>
      <trkpt lat="48.64293" lon="2.70475">
        <ele>75.3</ele>
        <time>2015-04-25T08:45:29.000Z</time>
      </trkpt>
      <trkpt lat="48.64295" lon="2.70464">
        <ele>75.6</ele>
        <time>2015-04-25T08:45:33.000Z</time>
      </trkpt>
      <trkpt lat="48.64298" lon="2.70457">
        <ele>75.8</ele>
        <time>2015-04-25T08:45:37.000Z</time>
      </trkpt>
      <trkpt lat="48.643" lon="2.70449">
        <ele>76.1</ele>
        <time>2015-04-25T08:45:41.000Z</time>
      </trkpt>
      <trkpt lat="48.64301" lon="2.70445">
        <ele>76.3</ele>
        <time>2015-04-25T08:45:43.000Z</time>
      </trkpt>
      <trkpt lat="48.64301" lon="2.70443">
        <ele>76.4</ele>
        <time>2015-04-25T08:45:44.000Z</time>
      </trkpt>
      <trkpt lat="48.64302" lon="2.7044">
        <ele>76.4</ele>
        <time>2015-04-25T08:45:46.000Z</time>
      </trkpt>
      <trkpt lat="48.64303" lon="2.70437">
        <ele>76.5</ele>
        <time>2015-04-25T08:45:49.000Z</time>
      </trkpt>
      <trkpt lat="48.64304" lon="2.70436">
        <ele>76.5</ele>
        <time>2015-04-25T08:45:51.000Z</time>
      </trkpt>
      <trkpt lat="48.64306" lon="2.70433">
        <ele>76.4</ele>
        <time>2015-04-25T08:46:05.000Z</time>
      </trkpt>
      <trkpt lat="48.64307" lon="2.70427">
        <ele>76.5</ele>
        <time>2015-04-25T08:46:09.000Z</time>
      </trkpt>
      <trkpt lat="48.64309" lon="2.70425">
        <ele>76.4</ele>
        <time>2015-04-25T08:46:11.000Z</time>
      </trkpt>
      <trkpt lat="48.64311" lon="2.70417">
        <ele>76.6</ele>
        <time>2015-04-25T08:46:16.000Z</time>
      </trkpt>
      <trkpt lat="48.64312" lon="2.7041">
        <ele>77</ele>
        <time>2015-04-25T08:46:20.000Z</time>
      </trkpt>
      <trkpt lat="48.64316" lon="2.70404">
        <ele>77</ele>
        <time>2015-04-25T08:46:24.000Z</time>
      </trkpt>
      <trkpt lat="48.64321" lon="2.70396">
        <ele>76.9</ele>
        <time>2015-04-25T08:46:29.000Z</time>
      </trkpt>
      <trkpt lat="48.64323" lon="2.70393">
        <ele>76.9</ele>
        <time>2015-04-25T08:46:31.000Z</time>
      </trkpt>
      <trkpt lat="48.64325" lon="2.70392">
        <ele>76.8</ele>
        <time>2015-04-25T08:46:33.000Z</time>
      </trkpt>
      <trkpt lat="48.6433" lon="2.7039">
        <ele>76.4</ele>
        <time>2015-04-25T08:46:36.000Z</time>
      </trkpt>
      <trkpt lat="48.64333" lon="2.70389">
        <ele>76.1</ele>
        <time>2015-04-25T08:46:39.000Z</time>
      </trkpt>
      <trkpt lat="48.64334" lon="2.70388">
        <ele>76</ele>
        <time>2015-04-25T08:46:40.000Z</time>
      </trkpt>
      <trkpt lat="48.6434" lon="2.70388">
        <ele>75.6</ele>
        <time>2015-04-25T08:46:44.000Z</time>
      </trkpt>
      <trkpt lat="48.6434" lon="2.70388">
        <ele>75.6</ele>
        <time>2015-04-25T08:46:45.000Z</time>
      </trkpt>
      <trkpt lat="48.64343" lon="2.70387">
        <ele>75.4</ele>
        <time>2015-04-25T08:46:48.000Z</time>
      </trkpt>
      <trkpt lat="48.64345" lon="2.70388">
        <ele>75.2</ele>
        <time>2015-04-25T08:46:50.000Z</time>
      </trkpt>
      <trkpt lat="48.64349" lon="2.70388">
        <ele>74.9</ele>
        <time>2015-04-25T08:46:54.000Z</time>
      </trkpt>
      <trkpt lat="48.6435" lon="2.70388">
        <ele>74.8</ele>
        <time>2015-04-25T08:46:55.000Z</time>
      </trkpt>
      <trkpt lat="48.64354" lon="2.70387">
        <ele>74.7</ele>
        <time>2015-04-25T08:46:58.000Z</time>
      </trkpt>
      <trkpt lat="48.64355" lon="2.70387">
        <ele>74.6</ele>
        <time>2015-04-25T08:46:59.000Z</time>
      </trkpt>
      <trkpt lat="48.64356" lon="2.70385">
        <ele>74.6</ele>
        <time>2015-04-25T08:47:00.000Z</time>
      </trkpt>
      <trkpt lat="48.64359" lon="2.70383">
        <ele>74.6</ele>
        <time>2015-04-25T08:47:02.000Z</time>
      </trkpt>
      <trkpt lat="48.64361" lon="2.70381">
        <ele>74.6</ele>
        <time>2015-04-25T08:47:04.000Z</time>
      </trkpt>
      <trkpt lat="48.64365" lon="2.70376">
        <ele>74.4</ele>
        <time>2015-04-25T08:47:08.000Z</time>
      </trkpt>
      <trkpt lat="48.64372" lon="2.7037">
        <ele>74.1</ele>
        <time>2015-04-25T08:47:12.000Z</time>
      </trkpt>
      <trkpt lat="48.64378" lon="2.70364">
        <ele>73.9</ele>
        <time>2015-04-25T08:47:16.000Z</time>
      </trkpt>
      <trkpt lat="48.64379" lon="2.70362">
        <ele>73.9</ele>
        <time>2015-04-25T08:47:17.000Z</time>
      </trkpt>
      <trkpt lat="48.64382" lon="2.70362">
        <ele>73.7</ele>
        <time>2015-04-25T08:47:24.000Z</time>
      </trkpt>
      <trkpt lat="48.64387" lon="2.70359">
        <ele>73.4</ele>
        <time>2015-04-25T08:47:35.000Z</time>
      </trkpt>
      <trkpt lat="48.6439" lon="2.70357">
        <ele>73.1</ele>
        <time>2015-04-25T08:47:37.000Z</time>
      </trkpt>
      <trkpt lat="48.64394" lon="2.70354">
        <ele>72.9</ele>
        <time>2015-04-25T08:47:40.000Z</time>
      </trkpt>
      <trkpt lat="48.64397" lon="2.70349">
        <ele>72.9</ele>
        <time>2015-04-25T08:47:44.000Z</time>
      </trkpt>
      <trkpt lat="48.64407" lon="2.70345">
        <ele>72.3</ele>
        <time>2015-04-25T08:47:49.000Z</time>
      </trkpt>
      <trkpt lat="48.64412" lon="2.70341">
        <ele>72.3</ele>
        <time>2015-04-25T08:47:52.000Z</time>
      </trkpt>
      <trkpt lat="48.64419" lon="2.70336">
        <ele>72.3</ele>
        <time>2015-04-25T08:47:57.000Z</time>
      </trkpt>
      <trkpt lat="48.64424" lon="2.70329">
        <ele>72.4</ele>
        <time>2015-04-25T08:48:02.000Z</time>
      </trkpt>
      <trkpt lat="48.64427" lon="2.70322">
        <ele>72.6</ele>
        <time>2015-04-25T08:48:07.000Z</time>
      </trkpt>
      <trkpt lat="48.64431" lon="2.70317">
        <ele>72.7</ele>
        <time>2015-04-25T08:48:11.000Z</time>
      </trkpt>
      <trkpt lat="48.6444" lon="2.70312">
        <ele>72.5</ele>
        <time>2015-04-25T08:48:16.000Z</time>
      </trkpt>
      <trkpt lat="48.64448" lon="2.70308">
        <ele>72.1</ele>
        <time>2015-04-25T08:48:19.000Z</time>
      </trkpt>
      <trkpt lat="48.64452" lon="2.70307">
        <ele>71.8</ele>
        <time>2015-04-25T08:48:20.000Z</time>
      </trkpt>
      <trkpt lat="48.64465" lon="2.70304">
        <ele>70.4</ele>
        <time>2015-04-25T08:48:24.000Z</time>
      </trkpt>
      <trkpt lat="48.64474" lon="2.70298">
        <ele>70</ele>
        <time>2015-04-25T08:48:29.000Z</time>
      </trkpt>
      <trkpt lat="48.64476" lon="2.70296">
        <ele>69.9</ele>
        <time>2015-04-25T08:48:38.000Z</time>
      </trkpt>
      <trkpt lat="48.64481" lon="2.70293">
        <ele>69.6</ele>
        <time>2015-04-25T08:48:52.000Z</time>
      </trkpt>
      <trkpt lat="48.64489" lon="2.70284">
        <ele>70.1</ele>
        <time>2015-04-25T08:48:57.000Z</time>
      </trkpt>
      <trkpt lat="48.64491" lon="2.70282">
        <ele>70.5</ele>
        <time>2015-04-25T08:48:58.000Z</time>
      </trkpt>
      <trkpt lat="48.64495" lon="2.70275">
        <ele>71.1</ele>
        <time>2015-04-25T08:49:02.000Z</time>
      </trkpt>
      <trkpt lat="48.64498" lon="2.70273">
        <ele>71.2</ele>
        <time>2015-04-25T08:49:04.000Z</time>
      </trkpt>
      <trkpt lat="48.64501" lon="2.70268">
        <ele>71.7</ele>
        <time>2015-04-25T08:49:07.000Z</time>
      </trkpt>
      <trkpt lat="48.64507" lon="2.70261">
        <ele>72.3</ele>
        <time>2015-04-25T08:49:12.000Z</time>
      </trkpt>
      <trkpt lat="48.64512" lon="2.70258">
        <ele>72.1</ele>
        <time>2015-04-25T08:49:16.000Z</time>
      </trkpt>
      <trkpt lat="48.64516" lon="2.70259">
        <ele>71.6</ele>
        <time>2015-04-25T08:49:20.000Z</time>
      </trkpt>
      <trkpt lat="48.64518" lon="2.70257">
        <ele>71.5</ele>
        <time>2015-04-25T08:49:25.000Z</time>
      </trkpt>
      <trkpt lat="48.64525" lon="2.70255">
        <ele>71.1</ele>
        <time>2015-04-25T08:51:55.000Z</time>
      </trkpt>
      <trkpt lat="48.6453" lon="2.7026">
        <ele>69.8</ele>
        <time>2015-04-25T08:52:02.000Z</time>
      </trkpt>
      <trkpt lat="48.64532" lon="2.70262">
        <ele>69.5</ele>
        <time>2015-04-25T08:52:04.000Z</time>
      </trkpt>
      <trkpt lat="48.64533" lon="2.70263">
        <ele>69.3</ele>
        <time>2015-04-25T08:52:07.000Z</time>
      </trkpt>
      <trkpt lat="48.64537" lon="2.70265">
        <ele>68.9</ele>
        <time>2015-04-25T08:52:11.000Z</time>
      </trkpt>
      <trkpt lat="48.64539" lon="2.70265">
        <ele>69</ele>
        <time>2015-04-25T08:52:13.000Z</time>
      </trkpt>
      <trkpt lat="48.64543" lon="2.70264">
        <ele>69.3</ele>
        <time>2015-04-25T08:52:17.000Z</time>
      </trkpt>
      <trkpt lat="48.64548" lon="2.70262">
        <ele>69.7</ele>
        <time>2015-04-25T08:52:22.000Z</time>
      </trkpt>
      <trkpt lat="48.64552" lon="2.70261">
        <ele>70.2</ele>
        <time>2015-04-25T08:52:26.000Z</time>
      </trkpt>
      <trkpt lat="48.64555" lon="2.70261">
        <ele>70.3</ele>
        <time>2015-04-25T08:52:29.000Z</time>
      </trkpt>
      <trkpt lat="48.64558" lon="2.70259">
        <ele>70.7</ele>
        <time>2015-04-25T08:52:32.000Z</time>
      </trkpt>
      <trkpt lat="48.64563" lon="2.70257">
        <ele>70.9</ele>
        <time>2015-04-25T08:52:36.000Z</time>
      </trkpt>
      <trkpt lat="48.64563" lon="2.70257">
        <ele>71</ele>
        <time>2015-04-25T08:52:37.000Z</time>
      </trkpt>
      <trkpt lat="48.64565" lon="2.70257">
        <ele>70.9</ele>
        <time>2015-04-25T08:52:38.000Z</time>
      </trkpt>
      <trkpt lat="48.64566" lon="2.70257">
        <ele>70.8</ele>
        <time>2015-04-25T08:52:41.000Z</time>
      </trkpt>
      <trkpt lat="48.64571" lon="2.70257">
        <ele>70.6</ele>
        <time>2015-04-25T08:52:46.000Z</time>
      </trkpt>
      <trkpt lat="48.64572" lon="2.70257">
        <ele>70.6</ele>
        <time>2015-04-25T08:52:47.000Z</time>
      </trkpt>
      <trkpt lat="48.6458" lon="2.70254">
        <ele>71.1</ele>
        <time>2015-04-25T08:52:53.000Z</time>
      </trkpt>
      <trkpt lat="48.6458" lon="2.70251">
        <ele>71.7</ele>
        <time>2015-04-25T08:52:56.000Z</time>
      </trkpt>
      <trkpt lat="48.64581" lon="2.70251">
        <ele>71.8</ele>
        <time>2015-04-25T08:52:57.000Z</time>
      </trkpt>
      <trkpt lat="48.64582" lon="2.70251">
        <ele>71.8</ele>
        <time>2015-04-25T08:52:58.000Z</time>
      </trkpt>
      <trkpt lat="48.64587" lon="2.70249">
        <ele>71.9</ele>
        <time>2015-04-25T08:53:02.000Z</time>
      </trkpt>
      <trkpt lat="48.64589" lon="2.70249">
        <ele>71.7</ele>
        <time>2015-04-25T08:53:04.000Z</time>
      </trkpt>
      <trkpt lat="48.64595" lon="2.70248">
        <ele>71.5</ele>
        <time>2015-04-25T08:53:08.000Z</time>
      </trkpt>
      <trkpt lat="48.64599" lon="2.70248">
        <ele>71.1</ele>
        <time>2015-04-25T08:53:11.000Z</time>
      </trkpt>
      <trkpt lat="48.64601" lon="2.70248">
        <ele>71</ele>
        <time>2015-04-25T08:53:12.000Z</time>
      </trkpt>
      <trkpt lat="48.64605" lon="2.70247">
        <ele>70.8</ele>
        <time>2015-04-25T08:53:15.000Z</time>
      </trkpt>
      <trkpt lat="48.64607" lon="2.70246">
        <ele>70.8</ele>
        <time>2015-04-25T08:53:16.000Z</time>
      </trkpt>
      <trkpt lat="48.64616" lon="2.70247">
        <ele>70.3</ele>
        <time>2015-04-25T08:53:21.000Z</time>
      </trkpt>
      <trkpt lat="48.64623" lon="2.70244">
        <ele>70.6</ele>
        <time>2015-04-25T08:53:26.000Z</time>
      </trkpt>
      <trkpt lat="48.64625" lon="2.70243">
        <ele>70.6</ele>
        <time>2015-04-25T08:53:27.000Z</time>
      </trkpt>
      <trkpt lat="48.64629" lon="2.70242">
        <ele>70.7</ele>
        <time>2015-04-25T08:53:29.000Z</time>
      </trkpt>
      <trkpt lat="48.64633" lon="2.7024">
        <ele>71</ele>
        <time>2015-04-25T08:53:31.000Z</time>
      </trkpt>
      <trkpt lat="48.64634" lon="2.7024">
        <ele>70.9</ele>
        <time>2015-04-25T08:53:32.000Z</time>
      </trkpt>
      <trkpt lat="48.64637" lon="2.7024">
        <ele>70.9</ele>
        <time>2015-04-25T08:53:35.000Z</time>
      </trkpt>
      <trkpt lat="48.64646" lon="2.70237">
        <ele>71.3</ele>
        <time>2015-04-25T08:53:40.000Z</time>
      </trkpt>
      <trkpt lat="48.64653" lon="2.70235">
        <ele>71.7</ele>
        <time>2015-04-25T08:53:44.000Z</time>
      </trkpt>
      <trkpt lat="48.64662" lon="2.70234">
        <ele>72</ele>
        <time>2015-04-25T08:53:49.000Z</time>
      </trkpt>
      <trkpt lat="48.64669" lon="2.70232">
        <ele>72.1</ele>
        <time>2015-04-25T08:53:53.000Z</time>
      </trkpt>
      <trkpt lat="48.64673" lon="2.7023">
        <ele>72.3</ele>
        <time>2015-04-25T08:53:56.000Z</time>
      </trkpt>
      <trkpt lat="48.64676" lon="2.70229">
        <ele>72.4</ele>
        <time>2015-04-25T08:53:58.000Z</time>
      </trkpt>
      <trkpt lat="48.64678" lon="2.70228">
        <ele>72.5</ele>
        <time>2015-04-25T08:54:00.000Z</time>
      </trkpt>
      <trkpt lat="48.64685" lon="2.70226">
        <ele>72.6</ele>
        <time>2015-04-25T08:54:04.000Z</time>
      </trkpt>
      <trkpt lat="48.64686" lon="2.70229">
        <ele>71.8</ele>
        <time>2015-04-25T08:54:06.000Z</time>
      </trkpt>
      <trkpt lat="48.64687" lon="2.70228">
        <ele>72.1</ele>
        <time>2015-04-25T08:54:07.000Z</time>
      </trkpt>
      <trkpt lat="48.64695" lon="2.70224">
        <ele>72.6</ele>
        <time>2015-04-25T08:54:12.000Z</time>
      </trkpt>
      <trkpt lat="48.64697" lon="2.70223">
        <ele>72.8</ele>
        <time>2015-04-25T08:54:14.000Z</time>
      </trkpt>
      <trkpt lat="48.64702" lon="2.7022">
        <ele>72.9</ele>
        <time>2015-04-25T08:54:18.000Z</time>
      </trkpt>
      <trkpt lat="48.64708" lon="2.70218">
        <ele>72.9</ele>
        <time>2015-04-25T08:54:23.000Z</time>
      </trkpt>
      <trkpt lat="48.64713" lon="2.70215">
        <ele>73.1</ele>
        <time>2015-04-25T08:54:27.000Z</time>
      </trkpt>
      <trkpt lat="48.64712" lon="2.70213">
        <ele>73.4</ele>
        <time>2015-04-25T08:54:28.000Z</time>
      </trkpt>
      <trkpt lat="48.64714" lon="2.70212">
        <ele>73.4</ele>
        <time>2015-04-25T08:54:31.000Z</time>
      </trkpt>
      <trkpt lat="48.64715" lon="2.70211">
        <ele>73.5</ele>
        <time>2015-04-25T08:54:32.000Z</time>
      </trkpt>
      <trkpt lat="48.6472" lon="2.70211">
        <ele>73.3</ele>
        <time>2015-04-25T08:54:36.000Z</time>
      </trkpt>
      <trkpt lat="48.64731" lon="2.70207">
        <ele>73.5</ele>
        <time>2015-04-25T08:54:43.000Z</time>
      </trkpt>
      <trkpt lat="48.64734" lon="2.70206">
        <ele>73.5</ele>
        <time>2015-04-25T08:54:46.000Z</time>
      </trkpt>
      <trkpt lat="48.64739" lon="2.70205">
        <ele>73.7</ele>
        <time>2015-04-25T08:54:49.000Z</time>
      </trkpt>
      <trkpt lat="48.64746" lon="2.70205">
        <ele>73.5</ele>
        <time>2015-04-25T08:54:54.000Z</time>
      </trkpt>
      <trkpt lat="48.6475" lon="2.70205">
        <ele>73.5</ele>
        <time>2015-04-25T08:54:56.000Z</time>
      </trkpt>
      <trkpt lat="48.64754" lon="2.70204">
        <ele>73.4</ele>
        <time>2015-04-25T08:54:59.000Z</time>
      </trkpt>
      <trkpt lat="48.64759" lon="2.70203">
        <ele>73.3</ele>
        <time>2015-04-25T08:55:02.000Z</time>
      </trkpt>
      <trkpt lat="48.64763" lon="2.70202">
        <ele>73.2</ele>
        <time>2015-04-25T08:55:05.000Z</time>
      </trkpt>
      <trkpt lat="48.64767" lon="2.70201">
        <ele>73.2</ele>
        <time>2015-04-25T08:55:07.000Z</time>
      </trkpt>
      <trkpt lat="48.64771" lon="2.70199">
        <ele>73.4</ele>
        <time>2015-04-25T08:55:11.000Z</time>
      </trkpt>
      <trkpt lat="48.64773" lon="2.70199">
        <ele>73.3</ele>
        <time>2015-04-25T08:55:12.000Z</time>
      </trkpt>
      <trkpt lat="48.6478" lon="2.70197">
        <ele>73.2</ele>
        <time>2015-04-25T08:55:16.000Z</time>
      </trkpt>
      <trkpt lat="48.64783" lon="2.70196">
        <ele>73.2</ele>
        <time>2015-04-25T08:55:18.000Z</time>
      </trkpt>
      <trkpt lat="48.64787" lon="2.70196">
        <ele>73.1</ele>
        <time>2015-04-25T08:55:20.000Z</time>
      </trkpt>
      <trkpt lat="48.64789" lon="2.70195">
        <ele>73.1</ele>
        <time>2015-04-25T08:55:22.000Z</time>
      </trkpt>
      <trkpt lat="48.64791" lon="2.70194">
        <ele>73.1</ele>
        <time>2015-04-25T08:55:24.000Z</time>
      </trkpt>
      <trkpt lat="48.64792" lon="2.70193">
        <ele>73.1</ele>
        <time>2015-04-25T08:55:25.000Z</time>
      </trkpt>
      <trkpt lat="48.64798" lon="2.70192">
        <ele>72.8</ele>
        <time>2015-04-25T08:55:29.000Z</time>
      </trkpt>
      <trkpt lat="48.64805" lon="2.7019">
        <ele>72.7</ele>
        <time>2015-04-25T08:55:33.000Z</time>
      </trkpt>
      <trkpt lat="48.64807" lon="2.7019">
        <ele>72.5</ele>
        <time>2015-04-25T08:55:35.000Z</time>
      </trkpt>
      <trkpt lat="48.64808" lon="2.7019">
        <ele>72.5</ele>
        <time>2015-04-25T08:55:37.000Z</time>
      </trkpt>
      <trkpt lat="48.64815" lon="2.70188">
        <ele>72.1</ele>
        <time>2015-04-25T08:55:43.000Z</time>
      </trkpt>
      <trkpt lat="48.64821" lon="2.70186">
        <ele>71.9</ele>
        <time>2015-04-25T08:55:48.000Z</time>
      </trkpt>
      <trkpt lat="48.6483" lon="2.70184">
        <ele>71.6</ele>
        <time>2015-04-25T08:55:53.000Z</time>
      </trkpt>
      <trkpt lat="48.6484" lon="2.70178">
        <ele>71.9</ele>
        <time>2015-04-25T08:55:58.000Z</time>
      </trkpt>
      <trkpt lat="48.64844" lon="2.70174">
        <ele>72.3</ele>
        <time>2015-04-25T08:56:01.000Z</time>
      </trkpt>
      <trkpt lat="48.64847" lon="2.70173">
        <ele>72.4</ele>
        <time>2015-04-25T08:56:03.000Z</time>
      </trkpt>
      <trkpt lat="48.6485" lon="2.7017">
        <ele>72.7</ele>
        <time>2015-04-25T08:56:05.000Z</time>
      </trkpt>
      <trkpt lat="48.64852" lon="2.70168">
        <ele>73.2</ele>
        <time>2015-04-25T08:56:07.000Z</time>
      </trkpt>
      <trkpt lat="48.64854" lon="2.70166">
        <ele>73.6</ele>
        <time>2015-04-25T08:56:09.000Z</time>
      </trkpt>
      <trkpt lat="48.64858" lon="2.70164">
        <ele>73.5</ele>
        <time>2015-04-25T08:56:12.000Z</time>
      </trkpt>
      <trkpt lat="48.6486" lon="2.70163">
        <ele>73.4</ele>
        <time>2015-04-25T08:56:13.000Z</time>
      </trkpt>
      <trkpt lat="48.64862" lon="2.70163">
        <ele>73.3</ele>
        <time>2015-04-25T08:56:14.000Z</time>
      </trkpt>
      <trkpt lat="48.64868" lon="2.7016">
        <ele>72.8</ele>
        <time>2015-04-25T08:56:18.000Z</time>
      </trkpt>
      <trkpt lat="48.64876" lon="2.70156">
        <ele>72.3</ele>
        <time>2015-04-25T08:56:24.000Z</time>
      </trkpt>
      <trkpt lat="48.64879" lon="2.70152">
        <ele>72.7</ele>
        <time>2015-04-25T08:56:27.000Z</time>
      </trkpt>
      <trkpt lat="48.64884" lon="2.70146">
        <ele>73.6</ele>
        <time>2015-04-25T08:56:31.000Z</time>
      </trkpt>
      <trkpt lat="48.64886" lon="2.70145">
        <ele>73.6</ele>
        <time>2015-04-25T08:56:32.000Z</time>
      </trkpt>
      <trkpt lat="48.64892" lon="2.70141">
        <ele>74.1</ele>
        <time>2015-04-25T08:56:36.000Z</time>
      </trkpt>
      <trkpt lat="48.64899" lon="2.70137">
        <ele>74.1</ele>
        <time>2015-04-25T08:56:40.000Z</time>
      </trkpt>
      <trkpt lat="48.649" lon="2.70136">
        <ele>74.1</ele>
        <time>2015-04-25T08:56:41.000Z</time>
      </trkpt>
      <trkpt lat="48.64906" lon="2.70132">
        <ele>73.9</ele>
        <time>2015-04-25T08:56:45.000Z</time>
      </trkpt>
      <trkpt lat="48.64908" lon="2.70131">
        <ele>73.9</ele>
        <time>2015-04-25T08:56:46.000Z</time>
      </trkpt>
      <trkpt lat="48.6491" lon="2.7013">
        <ele>73.8</ele>
        <time>2015-04-25T08:56:47.000Z</time>
      </trkpt>
      <trkpt lat="48.64916" lon="2.70124">
        <ele>74.2</ele>
        <time>2015-04-25T08:56:51.000Z</time>
      </trkpt>
      <trkpt lat="48.64918" lon="2.70122">
        <ele>74.4</ele>
        <time>2015-04-25T08:56:52.000Z</time>
      </trkpt>
      <trkpt lat="48.64926" lon="2.70119">
        <ele>74.3</ele>
        <time>2015-04-25T08:56:57.000Z</time>
      </trkpt>
      <trkpt lat="48.64935" lon="2.70116">
        <ele>74.2</ele>
        <time>2015-04-25T08:57:04.000Z</time>
      </trkpt>
      <trkpt lat="48.64937" lon="2.70116">
        <ele>74.2</ele>
        <time>2015-04-25T08:57:05.000Z</time>
      </trkpt>
      <trkpt lat="48.64942" lon="2.70114">
        <ele>74.4</ele>
        <time>2015-04-25T08:57:09.000Z</time>
      </trkpt>
      <trkpt lat="48.64949" lon="2.70113">
        <ele>74</ele>
        <time>2015-04-25T08:57:13.000Z</time>
      </trkpt>
      <trkpt lat="48.6495" lon="2.70113">
        <ele>74</ele>
        <time>2015-04-25T08:57:14.000Z</time>
      </trkpt>
      <trkpt lat="48.64957" lon="2.70114">
        <ele>73</ele>
        <time>2015-04-25T08:57:19.000Z</time>
      </trkpt>
      <trkpt lat="48.64959" lon="2.70114">
        <ele>72.9</ele>
        <time>2015-04-25T08:57:20.000Z</time>
      </trkpt>
      <trkpt lat="48.6496" lon="2.70113">
        <ele>72.9</ele>
        <time>2015-04-25T08:57:21.000Z</time>
      </trkpt>
      <trkpt lat="48.64965" lon="2.70112">
        <ele>72.6</ele>
        <time>2015-04-25T08:57:24.000Z</time>
      </trkpt>
      <trkpt lat="48.6497" lon="2.70111">
        <ele>72.2</ele>
        <time>2015-04-25T08:57:28.000Z</time>
      </trkpt>
      <trkpt lat="48.6498" lon="2.70109">
        <ele>71.6</ele>
        <time>2015-04-25T08:57:33.000Z</time>
      </trkpt>
      <trkpt lat="48.64985" lon="2.70107">
        <ele>71.5</ele>
        <time>2015-04-25T08:57:36.000Z</time>
      </trkpt>
      <trkpt lat="48.64986" lon="2.70106">
        <ele>71.4</ele>
        <time>2015-04-25T08:57:37.000Z</time>
      </trkpt>
      <trkpt lat="48.64991" lon="2.70104">
        <ele>71.3</ele>
        <time>2015-04-25T08:57:41.000Z</time>
      </trkpt>
      <trkpt lat="48.64995" lon="2.70103">
        <ele>71.2</ele>
        <time>2015-04-25T08:57:43.000Z</time>
      </trkpt>
      <trkpt lat="48.64998" lon="2.70102">
        <ele>71.1</ele>
        <time>2015-04-25T08:57:45.000Z</time>
      </trkpt>
      <trkpt lat="48.65002" lon="2.701">
        <ele>71.1</ele>
        <time>2015-04-25T08:57:48.000Z</time>
      </trkpt>
      <trkpt lat="48.65003" lon="2.70099">
        <ele>71.1</ele>
        <time>2015-04-25T08:57:49.000Z</time>
      </trkpt>
      <trkpt lat="48.65008" lon="2.70098">
        <ele>70.9</ele>
        <time>2015-04-25T08:57:53.000Z</time>
      </trkpt>
      <trkpt lat="48.65012" lon="2.70098">
        <ele>70.6</ele>
        <time>2015-04-25T08:57:55.000Z</time>
      </trkpt>
      <trkpt lat="48.65018" lon="2.70096">
        <ele>70.3</ele>
        <time>2015-04-25T08:57:59.000Z</time>
      </trkpt>
      <trkpt lat="48.6502" lon="2.70096">
        <ele>70.2</ele>
        <time>2015-04-25T08:58:00.000Z</time>
      </trkpt>
      <trkpt lat="48.65031" lon="2.70094">
        <ele>69.7</ele>
        <time>2015-04-25T08:58:06.000Z</time>
      </trkpt>
      <trkpt lat="48.65041" lon="2.70093">
        <ele>69.3</ele>
        <time>2015-04-25T08:58:12.000Z</time>
      </trkpt>
      <trkpt lat="48.65044" lon="2.70093">
        <ele>69.2</ele>
        <time>2015-04-25T08:58:14.000Z</time>
      </trkpt>
      <trkpt lat="48.65053" lon="2.70087">
        <ele>69.6</ele>
        <time>2015-04-25T08:58:21.000Z</time>
      </trkpt>
      <trkpt lat="48.6506" lon="2.70078">
        <ele>70.2</ele>
        <time>2015-04-25T08:58:27.000Z</time>
      </trkpt>
      <trkpt lat="48.65061" lon="2.70076">
        <ele>70.3</ele>
        <time>2015-04-25T08:58:28.000Z</time>
      </trkpt>
      <trkpt lat="48.65067" lon="2.70068">
        <ele>70.5</ele>
        <time>2015-04-25T08:58:33.000Z</time>
      </trkpt>
      <trkpt lat="48.65073" lon="2.70062">
        <ele>70.5</ele>
        <time>2015-04-25T08:58:38.000Z</time>
      </trkpt>
      <trkpt lat="48.65073" lon="2.7006">
        <ele>70.5</ele>
        <time>2015-04-25T08:58:39.000Z</time>
      </trkpt>
      <trkpt lat="48.65079" lon="2.70052">
        <ele>70.6</ele>
        <time>2015-04-25T08:58:43.000Z</time>
      </trkpt>
      <trkpt lat="48.65085" lon="2.70042">
        <ele>70.9</ele>
        <time>2015-04-25T08:58:48.000Z</time>
      </trkpt>
      <trkpt lat="48.65092" lon="2.70031">
        <ele>71.2</ele>
        <time>2015-04-25T08:58:54.000Z</time>
      </trkpt>
      <trkpt lat="48.65099" lon="2.7002">
        <ele>71</ele>
        <time>2015-04-25T08:59:00.000Z</time>
      </trkpt>
      <trkpt lat="48.6511" lon="2.70004">
        <ele>70.9</ele>
        <time>2015-04-25T08:59:10.000Z</time>
      </trkpt>
      <trkpt lat="48.65118" lon="2.69993">
        <ele>70.8</ele>
        <time>2015-04-25T08:59:17.000Z</time>
      </trkpt>
      <trkpt lat="48.65124" lon="2.69989">
        <ele>70.7</ele>
        <time>2015-04-25T08:59:22.000Z</time>
      </trkpt>
      <trkpt lat="48.65126" lon="2.69988">
        <ele>70.7</ele>
        <time>2015-04-25T08:59:23.000Z</time>
      </trkpt>
      <trkpt lat="48.65133" lon="2.69984">
        <ele>70.7</ele>
        <time>2015-04-25T08:59:29.000Z</time>
      </trkpt>
      <trkpt lat="48.65135" lon="2.69983">
        <ele>70.6</ele>
        <time>2015-04-25T08:59:31.000Z</time>
      </trkpt>
      <trkpt lat="48.65141" lon="2.69982">
        <ele>70.6</ele>
        <time>2015-04-25T08:59:35.000Z</time>
      </trkpt>
      <trkpt lat="48.65148" lon="2.6998">
        <ele>70.4</ele>
        <time>2015-04-25T08:59:39.000Z</time>
      </trkpt>
      <trkpt lat="48.65156" lon="2.69978">
        <ele>70.2</ele>
        <time>2015-04-25T08:59:44.000Z</time>
      </trkpt>
      <trkpt lat="48.65165" lon="2.69976">
        <ele>69.9</ele>
        <time>2015-04-25T08:59:49.000Z</time>
      </trkpt>
      <trkpt lat="48.65173" lon="2.69974">
        <ele>69.7</ele>
        <time>2015-04-25T08:59:55.000Z</time>
      </trkpt>
      <trkpt lat="48.6518" lon="2.69971">
        <ele>69.5</ele>
        <time>2015-04-25T09:00:01.000Z</time>
      </trkpt>
      <trkpt lat="48.65184" lon="2.69969">
        <ele>69.4</ele>
        <time>2015-04-25T09:00:04.000Z</time>
      </trkpt>
      <trkpt lat="48.65187" lon="2.69969">
        <ele>69.4</ele>
        <time>2015-04-25T09:00:06.000Z</time>
      </trkpt>
      <trkpt lat="48.65194" lon="2.69966">
        <ele>69.2</ele>
        <time>2015-04-25T09:00:12.000Z</time>
      </trkpt>
      <trkpt lat="48.65197" lon="2.69966">
        <ele>69.2</ele>
        <time>2015-04-25T09:00:15.000Z</time>
      </trkpt>
      <trkpt lat="48.65196" lon="2.69966">
        <ele>69.2</ele>
        <time>2015-04-25T09:00:16.000Z</time>
      </trkpt>
      <trkpt lat="48.65195" lon="2.69963">
        <ele>69.3</ele>
        <time>2015-04-25T09:00:23.000Z</time>
      </trkpt>
      <trkpt lat="48.65199" lon="2.69965">
        <ele>69.2</ele>
        <time>2015-04-25T09:00:56.000Z</time>
      </trkpt>
      <trkpt lat="48.65202" lon="2.69967">
        <ele>69.1</ele>
        <time>2015-04-25T09:01:53.000Z</time>
      </trkpt>
      <trkpt lat="48.6521" lon="2.69966">
        <ele>69.1</ele>
        <time>2015-04-25T09:02:29.000Z</time>
      </trkpt>
      <trkpt lat="48.65214" lon="2.69966">
        <ele>69.1</ele>
        <time>2015-04-25T09:02:32.000Z</time>
      </trkpt>
      <trkpt lat="48.65218" lon="2.69963">
        <ele>69</ele>
        <time>2015-04-25T09:02:36.000Z</time>
      </trkpt>
      <trkpt lat="48.65221" lon="2.69962">
        <ele>69</ele>
        <time>2015-04-25T09:02:38.000Z</time>
      </trkpt>
      <trkpt lat="48.65225" lon="2.69961">
        <ele>68.9</ele>
        <time>2015-04-25T09:02:42.000Z</time>
      </trkpt>
      <trkpt lat="48.65226" lon="2.69961">
        <ele>68.9</ele>
        <time>2015-04-25T09:02:43.000Z</time>
      </trkpt>
      <trkpt lat="48.65232" lon="2.69959">
        <ele>68.8</ele>
        <time>2015-04-25T09:02:48.000Z</time>
      </trkpt>
      <trkpt lat="48.65234" lon="2.69958">
        <ele>68.8</ele>
        <time>2015-04-25T09:02:49.000Z</time>
      </trkpt>
      <trkpt lat="48.6524" lon="2.69956">
        <ele>68.7</ele>
        <time>2015-04-25T09:02:54.000Z</time>
      </trkpt>
      <trkpt lat="48.65246" lon="2.69955">
        <ele>68.7</ele>
        <time>2015-04-25T09:03:00.000Z</time>
      </trkpt>
      <trkpt lat="48.65247" lon="2.69956">
        <ele>68.6</ele>
        <time>2015-04-25T09:03:01.000Z</time>
      </trkpt>
      <trkpt lat="48.65249" lon="2.69959">
        <ele>68.5</ele>
        <time>2015-04-25T09:03:03.000Z</time>
      </trkpt>
      <trkpt lat="48.65251" lon="2.69963">
        <ele>68.3</ele>
        <time>2015-04-25T09:03:05.000Z</time>
      </trkpt>
      <trkpt lat="48.65252" lon="2.6997">
        <ele>68</ele>
        <time>2015-04-25T09:03:10.000Z</time>
      </trkpt>
      <trkpt lat="48.65252" lon="2.69977">
        <ele>67.7</ele>
        <time>2015-04-25T09:03:14.000Z</time>
      </trkpt>
      <trkpt lat="48.65253" lon="2.69982">
        <ele>67.6</ele>
        <time>2015-04-25T09:03:16.000Z</time>
      </trkpt>
      <trkpt lat="48.65254" lon="2.69999">
        <ele>66.9</ele>
        <time>2015-04-25T09:03:24.000Z</time>
      </trkpt>
      <trkpt lat="48.65256" lon="2.70013">
        <ele>66.8</ele>
        <time>2015-04-25T09:03:30.000Z</time>
      </trkpt>
      <trkpt lat="48.65258" lon="2.70021">
        <ele>66.7</ele>
        <time>2015-04-25T09:03:34.000Z</time>
      </trkpt>
      <trkpt lat="48.65258" lon="2.70023">
        <ele>66.7</ele>
        <time>2015-04-25T09:03:35.000Z</time>
      </trkpt>
      <trkpt lat="48.65259" lon="2.7003">
        <ele>66.6</ele>
        <time>2015-04-25T09:03:39.000Z</time>
      </trkpt>
      <trkpt lat="48.6526" lon="2.70036">
        <ele>66.3</ele>
        <time>2015-04-25T09:03:42.000Z</time>
      </trkpt>
      <trkpt lat="48.65261" lon="2.70048">
        <ele>65.6</ele>
        <time>2015-04-25T09:03:48.000Z</time>
      </trkpt>
      <trkpt lat="48.65262" lon="2.7005">
        <ele>65.5</ele>
        <time>2015-04-25T09:03:49.000Z</time>
      </trkpt>
      <trkpt lat="48.65262" lon="2.70056">
        <ele>65.1</ele>
        <time>2015-04-25T09:03:52.000Z</time>
      </trkpt>
      <trkpt lat="48.65262" lon="2.7006">
        <ele>65.1</ele>
        <time>2015-04-25T09:03:54.000Z</time>
      </trkpt>
      <trkpt lat="48.65264" lon="2.70067">
        <ele>64.8</ele>
        <time>2015-04-25T09:03:57.000Z</time>
      </trkpt>
      <trkpt lat="48.65263" lon="2.70071">
        <ele>64.8</ele>
        <time>2015-04-25T09:03:59.000Z</time>
      </trkpt>
      <trkpt lat="48.6526" lon="2.70084">
        <ele>64.5</ele>
        <time>2015-04-25T09:04:05.000Z</time>
      </trkpt>
      <trkpt lat="48.65258" lon="2.70091">
        <ele>64</ele>
        <time>2015-04-25T09:04:09.000Z</time>
      </trkpt>
      <trkpt lat="48.65254" lon="2.70096">
        <ele>63.6</ele>
        <time>2015-04-25T09:04:11.000Z</time>
      </trkpt>
      <trkpt lat="48.65247" lon="2.70108">
        <ele>62.4</ele>
        <time>2015-04-25T09:04:14.000Z</time>
      </trkpt>
      <trkpt lat="48.65243" lon="2.70115">
        <ele>61.7</ele>
        <time>2015-04-25T09:04:16.000Z</time>
      </trkpt>
      <trkpt lat="48.65232" lon="2.70133">
        <ele>60.9</ele>
        <time>2015-04-25T09:04:21.000Z</time>
      </trkpt>
      <trkpt lat="48.6522" lon="2.70157">
        <ele>60.9</ele>
        <time>2015-04-25T09:04:27.000Z</time>
      </trkpt>
      <trkpt lat="48.65208" lon="2.70174">
        <ele>60.6</ele>
        <time>2015-04-25T09:04:32.000Z</time>
      </trkpt>
      <trkpt lat="48.65194" lon="2.70197">
        <ele>61</ele>
        <time>2015-04-25T09:04:38.000Z</time>
      </trkpt>
      <trkpt lat="48.65181" lon="2.70219">
        <ele>61</ele>
        <time>2015-04-25T09:04:44.000Z</time>
      </trkpt>
      <trkpt lat="48.65179" lon="2.70223">
        <ele>61</ele>
        <time>2015-04-25T09:04:45.000Z</time>
      </trkpt>
      <trkpt lat="48.65175" lon="2.7024">
        <ele>60.4</ele>
        <time>2015-04-25T09:04:50.000Z</time>
      </trkpt>
      <trkpt lat="48.65175" lon="2.70243">
        <ele>60.3</ele>
        <time>2015-04-25T09:04:52.000Z</time>
      </trkpt>
      <trkpt lat="48.65175" lon="2.70246">
        <ele>60.1</ele>
        <time>2015-04-25T09:04:54.000Z</time>
      </trkpt>
      <trkpt lat="48.65172" lon="2.70258">
        <ele>60.3</ele>
        <time>2015-04-25T09:05:00.000Z</time>
      </trkpt>
      <trkpt lat="48.65171" lon="2.70261">
        <ele>60.4</ele>
        <time>2015-04-25T09:05:06.000Z</time>
      </trkpt>
      <trkpt lat="48.6517" lon="2.70265">
        <ele>60.5</ele>
        <time>2015-04-25T09:05:10.000Z</time>
      </trkpt>
      <trkpt lat="48.6517" lon="2.70266">
        <ele>60.6</ele>
        <time>2015-04-25T09:05:15.000Z</time>
      </trkpt>
      <trkpt lat="48.6517" lon="2.70269">
        <ele>60.7</ele>
        <time>2015-04-25T09:07:06.000Z</time>
      </trkpt>
      <trkpt lat="48.65177" lon="2.70271">
        <ele>60.7</ele>
        <time>2015-04-25T09:07:12.000Z</time>
      </trkpt>
      <trkpt lat="48.65186" lon="2.70273">
        <ele>60.8</ele>
        <time>2015-04-25T09:07:19.000Z</time>
      </trkpt>
      <trkpt lat="48.65195" lon="2.70274">
        <ele>60.9</ele>
        <time>2015-04-25T09:07:25.000Z</time>
      </trkpt>
      <trkpt lat="48.65201" lon="2.70274">
        <ele>60.9</ele>
        <time>2015-04-25T09:07:30.000Z</time>
      </trkpt>
      <trkpt lat="48.65202" lon="2.70274">
        <ele>60.9</ele>
        <time>2015-04-25T09:07:31.000Z</time>
      </trkpt>
      <trkpt lat="48.65208" lon="2.70271">
        <ele>60.8</ele>
        <time>2015-04-25T09:07:35.000Z</time>
      </trkpt>
      <trkpt lat="48.65209" lon="2.70271">
        <ele>60.7</ele>
        <time>2015-04-25T09:07:36.000Z</time>
      </trkpt>
      <trkpt lat="48.65214" lon="2.70268">
        <ele>60.6</ele>
        <time>2015-04-25T09:07:41.000Z</time>
      </trkpt>
      <trkpt lat="48.65216" lon="2.70267">
        <ele>60.6</ele>
        <time>2015-04-25T09:07:42.000Z</time>
      </trkpt>
      <trkpt lat="48.65219" lon="2.70265">
        <ele>60.5</ele>
        <time>2015-04-25T09:07:46.000Z</time>
      </trkpt>
      <trkpt lat="48.65226" lon="2.70263">
        <ele>60.5</ele>
        <time>2015-04-25T09:07:50.000Z</time>
      </trkpt>
      <trkpt lat="48.6523" lon="2.70263">
        <ele>60.5</ele>
        <time>2015-04-25T09:07:52.000Z</time>
      </trkpt>
      <trkpt lat="48.65248" lon="2.70257">
        <ele>60.2</ele>
        <time>2015-04-25T09:07:57.000Z</time>
      </trkpt>
      <trkpt lat="48.65268" lon="2.70251">
        <ele>60.6</ele>
        <time>2015-04-25T09:08:03.000Z</time>
      </trkpt>
      <trkpt lat="48.65279" lon="2.70246">
        <ele>60.9</ele>
        <time>2015-04-25T09:08:07.000Z</time>
      </trkpt>
      <trkpt lat="48.6529" lon="2.70241">
        <ele>60.7</ele>
        <time>2015-04-25T09:08:11.000Z</time>
      </trkpt>
      <trkpt lat="48.65293" lon="2.7024">
        <ele>60.6</ele>
        <time>2015-04-25T09:08:12.000Z</time>
      </trkpt>
      <trkpt lat="48.65306" lon="2.70235">
        <ele>60.5</ele>
        <time>2015-04-25T09:08:16.000Z</time>
      </trkpt>
      <trkpt lat="48.6532" lon="2.7023">
        <ele>60.3</ele>
        <time>2015-04-25T09:08:21.000Z</time>
      </trkpt>
      <trkpt lat="48.65327" lon="2.70227">
        <ele>60.2</ele>
        <time>2015-04-25T09:08:25.000Z</time>
      </trkpt>
      <trkpt lat="48.65327" lon="2.70227">
        <ele>60.2</ele>
        <time>2015-04-25T09:08:26.000Z</time>
      </trkpt>
      <trkpt lat="48.65327" lon="2.70228">
        <ele>60.2</ele>
        <time>2015-04-25T09:08:27.000Z</time>
      </trkpt>
      <trkpt lat="48.65329" lon="2.70229">
        <ele>60.2</ele>
        <time>2015-04-25T09:08:33.000Z</time>
      </trkpt>
      <trkpt lat="48.6533" lon="2.7023">
        <ele>60.3</ele>
        <time>2015-04-25T09:08:39.000Z</time>
      </trkpt>
      <trkpt lat="48.65331" lon="2.70228">
        <ele>60.2</ele>
        <time>2015-04-25T09:08:59.000Z</time>
      </trkpt>
      <trkpt lat="48.65334" lon="2.70227">
        <ele>60.2</ele>
        <time>2015-04-25T09:09:01.000Z</time>
      </trkpt>
      <trkpt lat="48.65344" lon="2.70223">
        <ele>60.4</ele>
        <time>2015-04-25T09:09:09.000Z</time>
      </trkpt>
      <trkpt lat="48.65354" lon="2.70218">
        <ele>60.7</ele>
        <time>2015-04-25T09:09:16.000Z</time>
      </trkpt>
      <trkpt lat="48.65356" lon="2.70218">
        <ele>60.7</ele>
        <time>2015-04-25T09:09:17.000Z</time>
      </trkpt>
      <trkpt lat="48.65364" lon="2.70217">
        <ele>60.8</ele>
        <time>2015-04-25T09:09:23.000Z</time>
      </trkpt>
      <trkpt lat="48.65373" lon="2.70215">
        <ele>60.8</ele>
        <time>2015-04-25T09:09:30.000Z</time>
      </trkpt>
      <trkpt lat="48.65376" lon="2.70214">
        <ele>60.9</ele>
        <time>2015-04-25T09:09:32.000Z</time>
      </trkpt>
      <trkpt lat="48.6538" lon="2.70213">
        <ele>60.9</ele>
        <time>2015-04-25T09:09:35.000Z</time>
      </trkpt>
      <trkpt lat="48.6539" lon="2.70212">
        <ele>61</ele>
        <time>2015-04-25T09:09:42.000Z</time>
      </trkpt>
      <trkpt lat="48.654" lon="2.70214">
        <ele>61.3</ele>
        <time>2015-04-25T09:09:50.000Z</time>
      </trkpt>
      <trkpt lat="48.65409" lon="2.70215">
        <ele>61.5</ele>
        <time>2015-04-25T09:09:57.000Z</time>
      </trkpt>
      <trkpt lat="48.65416" lon="2.7021">
        <ele>61.6</ele>
        <time>2015-04-25T09:10:02.000Z</time>
      </trkpt>
      <trkpt lat="48.65417" lon="2.7021">
        <ele>61.6</ele>
        <time>2015-04-25T09:10:03.000Z</time>
      </trkpt>
      <trkpt lat="48.65426" lon="2.70206">
        <ele>61.5</ele>
        <time>2015-04-25T09:10:09.000Z</time>
      </trkpt>
      <trkpt lat="48.6543" lon="2.70203">
        <ele>61.5</ele>
        <time>2015-04-25T09:10:13.000Z</time>
      </trkpt>
      <trkpt lat="48.6543" lon="2.70203">
        <ele>61.5</ele>
        <time>2015-04-25T09:10:14.000Z</time>
      </trkpt>
      <trkpt lat="48.65432" lon="2.70199">
        <ele>61.3</ele>
        <time>2015-04-25T09:10:20.000Z</time>
      </trkpt>
      <trkpt lat="48.65436" lon="2.70196">
        <ele>61.1</ele>
        <time>2015-04-25T09:10:22.000Z</time>
      </trkpt>
      <trkpt lat="48.65441" lon="2.70189">
        <ele>60.8</ele>
        <time>2015-04-25T09:10:26.000Z</time>
      </trkpt>
      <trkpt lat="48.65443" lon="2.70188">
        <ele>60.8</ele>
        <time>2015-04-25T09:10:28.000Z</time>
      </trkpt>
      <trkpt lat="48.65448" lon="2.70184">
        <ele>60.8</ele>
        <time>2015-04-25T09:10:31.000Z</time>
      </trkpt>
      <trkpt lat="48.65456" lon="2.70175">
        <ele>60.9</ele>
        <time>2015-04-25T09:10:38.000Z</time>
      </trkpt>
      <trkpt lat="48.65462" lon="2.70169">
        <ele>60.7</ele>
        <time>2015-04-25T09:10:44.000Z</time>
      </trkpt>
      <trkpt lat="48.65464" lon="2.70167">
        <ele>60.7</ele>
        <time>2015-04-25T09:10:46.000Z</time>
      </trkpt>
      <trkpt lat="48.65468" lon="2.70164">
        <ele>60.7</ele>
        <time>2015-04-25T09:10:49.000Z</time>
      </trkpt>
      <trkpt lat="48.65473" lon="2.70158">
        <ele>60.8</ele>
        <time>2015-04-25T09:10:53.000Z</time>
      </trkpt>
      <trkpt lat="48.65474" lon="2.70157">
        <ele>60.9</ele>
        <time>2015-04-25T09:10:54.000Z</time>
      </trkpt>
      <trkpt lat="48.65478" lon="2.70151">
        <ele>61</ele>
        <time>2015-04-25T09:10:57.000Z</time>
      </trkpt>
      <trkpt lat="48.65479" lon="2.7015">
        <ele>61.1</ele>
        <time>2015-04-25T09:10:58.000Z</time>
      </trkpt>
      <trkpt lat="48.65487" lon="2.70141">
        <ele>61.2</ele>
        <time>2015-04-25T09:11:04.000Z</time>
      </trkpt>
      <trkpt lat="48.65492" lon="2.70136">
        <ele>61.4</ele>
        <time>2015-04-25T09:11:09.000Z</time>
      </trkpt>
      <trkpt lat="48.65492" lon="2.70136">
        <ele>61.4</ele>
        <time>2015-04-25T09:11:10.000Z</time>
      </trkpt>
      <trkpt lat="48.65494" lon="2.70132">
        <ele>61.4</ele>
        <time>2015-04-25T09:11:15.000Z</time>
      </trkpt>
      <trkpt lat="48.65495" lon="2.70129">
        <ele>61.4</ele>
        <time>2015-04-25T09:11:16.000Z</time>
      </trkpt>
      <trkpt lat="48.65502" lon="2.70114">
        <ele>61.4</ele>
        <time>2015-04-25T09:11:21.000Z</time>
      </trkpt>
      <trkpt lat="48.65503" lon="2.70113">
        <ele>61.4</ele>
        <time>2015-04-25T09:11:22.000Z</time>
      </trkpt>
      <trkpt lat="48.65506" lon="2.70107">
        <ele>61.7</ele>
        <time>2015-04-25T09:11:26.000Z</time>
      </trkpt>
      <trkpt lat="48.65511" lon="2.70097">
        <ele>62</ele>
        <time>2015-04-25T09:11:33.000Z</time>
      </trkpt>
      <trkpt lat="48.65513" lon="2.70094">
        <ele>62.2</ele>
        <time>2015-04-25T09:11:36.000Z</time>
      </trkpt>
      <trkpt lat="48.65513" lon="2.70094">
        <ele>62.2</ele>
        <time>2015-04-25T09:11:39.000Z</time>
      </trkpt>
      <trkpt lat="48.65512" lon="2.70086">
        <ele>61.8</ele>
        <time>2015-04-25T09:11:57.000Z</time>
      </trkpt>
      <trkpt lat="48.65513" lon="2.70083">
        <ele>61.8</ele>
        <time>2015-04-25T09:11:58.000Z</time>
      </trkpt>
      <trkpt lat="48.65515" lon="2.70078">
        <ele>61.8</ele>
        <time>2015-04-25T09:12:01.000Z</time>
      </trkpt>
      <trkpt lat="48.65517" lon="2.70075">
        <ele>61.7</ele>
        <time>2015-04-25T09:12:03.000Z</time>
      </trkpt>
      <trkpt lat="48.65523" lon="2.70067">
        <ele>61.3</ele>
        <time>2015-04-25T09:12:09.000Z</time>
      </trkpt>
      <trkpt lat="48.65529" lon="2.70057">
        <ele>60.4</ele>
        <time>2015-04-25T09:12:16.000Z</time>
      </trkpt>
      <trkpt lat="48.65537" lon="2.70046">
        <ele>60.8</ele>
        <time>2015-04-25T09:12:24.000Z</time>
      </trkpt>
      <trkpt lat="48.65537" lon="2.70046">
        <ele>60.8</ele>
        <time>2015-04-25T09:12:25.000Z</time>
      </trkpt>
      <trkpt lat="48.6554" lon="2.70051">
        <ele>61.1</ele>
        <time>2015-04-25T09:12:37.000Z</time>
      </trkpt>
      <trkpt lat="48.65539" lon="2.70049">
        <ele>61.1</ele>
        <time>2015-04-25T09:12:53.000Z</time>
      </trkpt>
      <trkpt lat="48.65541" lon="2.70053">
        <ele>61.4</ele>
        <time>2015-04-25T09:13:22.000Z</time>
      </trkpt>
      <trkpt lat="48.65546" lon="2.70047">
        <ele>61.5</ele>
        <time>2015-04-25T09:13:34.000Z</time>
      </trkpt>
      <trkpt lat="48.65554" lon="2.70043">
        <ele>62</ele>
        <time>2015-04-25T09:13:40.000Z</time>
      </trkpt>
      <trkpt lat="48.65561" lon="2.70038">
        <ele>62.1</ele>
        <time>2015-04-25T09:13:46.000Z</time>
      </trkpt>
      <trkpt lat="48.65561" lon="2.70038">
        <ele>62.1</ele>
        <time>2015-04-25T09:13:51.000Z</time>
      </trkpt>
      <trkpt lat="48.65563" lon="2.70033">
        <ele>61.9</ele>
        <time>2015-04-25T09:14:15.000Z</time>
      </trkpt>
      <trkpt lat="48.65564" lon="2.70026">
        <ele>61.7</ele>
        <time>2015-04-25T09:14:18.000Z</time>
      </trkpt>
      <trkpt lat="48.65564" lon="2.70025">
        <ele>61.8</ele>
        <time>2015-04-25T09:14:20.000Z</time>
      </trkpt>
      <trkpt lat="48.65562" lon="2.70019">
        <ele>62</ele>
        <time>2015-04-25T09:14:28.000Z</time>
      </trkpt>
      <trkpt lat="48.65562" lon="2.70017">
        <ele>62.1</ele>
        <time>2015-04-25T09:14:29.000Z</time>
      </trkpt>
      <trkpt lat="48.65561" lon="2.70011">
        <ele>62.4</ele>
        <time>2015-04-25T09:14:32.000Z</time>
      </trkpt>
      <trkpt lat="48.6556" lon="2.70009">
        <ele>62.5</ele>
        <time>2015-04-25T09:14:34.000Z</time>
      </trkpt>
      <trkpt lat="48.65559" lon="2.70007">
        <ele>62.6</ele>
        <time>2015-04-25T09:14:39.000Z</time>
      </trkpt>
      <trkpt lat="48.6556" lon="2.70005">
        <ele>62.7</ele>
        <time>2015-04-25T09:14:44.000Z</time>
      </trkpt>
      <trkpt lat="48.6556" lon="2.70002">
        <ele>62.9</ele>
        <time>2015-04-25T09:14:52.000Z</time>
      </trkpt>
      <trkpt lat="48.65562" lon="2.70002">
        <ele>62.9</ele>
        <time>2015-04-25T09:14:58.000Z</time>
      </trkpt>
      <trkpt lat="48.65562" lon="2.70006">
        <ele>62.7</ele>
        <time>2015-04-25T09:15:06.000Z</time>
      </trkpt>
      <trkpt lat="48.6556" lon="2.70003">
        <ele>62.8</ele>
        <time>2015-04-25T09:15:15.000Z</time>
      </trkpt>
      <trkpt lat="48.65558" lon="2.69994">
        <ele>62.6</ele>
        <time>2015-04-25T09:15:20.000Z</time>
      </trkpt>
      <trkpt lat="48.65558" lon="2.69992">
        <ele>62.5</ele>
        <time>2015-04-25T09:15:21.000Z</time>
      </trkpt>
      <trkpt lat="48.65559" lon="2.6999">
        <ele>62.3</ele>
        <time>2015-04-25T09:15:22.000Z</time>
      </trkpt>
      <trkpt lat="48.65561" lon="2.69986">
        <ele>62.1</ele>
        <time>2015-04-25T09:15:26.000Z</time>
      </trkpt>
      <trkpt lat="48.65565" lon="2.69978">
        <ele>61.7</ele>
        <time>2015-04-25T09:15:31.000Z</time>
      </trkpt>
      <trkpt lat="48.65567" lon="2.69974">
        <ele>61.5</ele>
        <time>2015-04-25T09:15:33.000Z</time>
      </trkpt>
      <trkpt lat="48.6557" lon="2.69961">
        <ele>62.1</ele>
        <time>2015-04-25T09:15:40.000Z</time>
      </trkpt>
      <trkpt lat="48.65571" lon="2.69954">
        <ele>62.7</ele>
        <time>2015-04-25T09:15:44.000Z</time>
      </trkpt>
      <trkpt lat="48.6557" lon="2.69952">
        <ele>62.7</ele>
        <time>2015-04-25T09:15:47.000Z</time>
      </trkpt>
      <trkpt lat="48.65571" lon="2.69948">
        <ele>62.9</ele>
        <time>2015-04-25T09:15:51.000Z</time>
      </trkpt>
      <trkpt lat="48.65572" lon="2.69944">
        <ele>63.4</ele>
        <time>2015-04-25T09:15:54.000Z</time>
      </trkpt>
      <trkpt lat="48.65571" lon="2.69933">
        <ele>63.7</ele>
        <time>2015-04-25T09:15:59.000Z</time>
      </trkpt>
      <trkpt lat="48.65571" lon="2.69923">
        <ele>64.2</ele>
        <time>2015-04-25T09:16:04.000Z</time>
      </trkpt>
      <trkpt lat="48.65571" lon="2.69916">
        <ele>64.3</ele>
        <time>2015-04-25T09:16:07.000Z</time>
      </trkpt>
      <trkpt lat="48.6557" lon="2.69911">
        <ele>64.2</ele>
        <time>2015-04-25T09:16:10.000Z</time>
      </trkpt>
      <trkpt lat="48.65565" lon="2.69904">
        <ele>63.1</ele>
        <time>2015-04-25T09:16:15.000Z</time>
      </trkpt>
      <trkpt lat="48.65562" lon="2.69901">
        <ele>62.3</ele>
        <time>2015-04-25T09:16:18.000Z</time>
      </trkpt>
      <trkpt lat="48.65561" lon="2.69902">
        <ele>62.2</ele>
        <time>2015-04-25T09:16:19.000Z</time>
      </trkpt>
      <trkpt lat="48.65552" lon="2.69899">
        <ele>60.9</ele>
        <time>2015-04-25T09:16:23.000Z</time>
      </trkpt>
      <trkpt lat="48.6555" lon="2.69897">
        <ele>60.8</ele>
        <time>2015-04-25T09:16:24.000Z</time>
      </trkpt>
      <trkpt lat="48.65549" lon="2.69891">
        <ele>60.8</ele>
        <time>2015-04-25T09:16:27.000Z</time>
      </trkpt>
      <trkpt lat="48.65548" lon="2.6988">
        <ele>60.8</ele>
        <time>2015-04-25T09:16:32.000Z</time>
      </trkpt>
      <trkpt lat="48.65549" lon="2.6987">
        <ele>60.9</ele>
        <time>2015-04-25T09:16:37.000Z</time>
      </trkpt>
      <trkpt lat="48.65548" lon="2.69868">
        <ele>60.9</ele>
        <time>2015-04-25T09:16:38.000Z</time>
      </trkpt>
      <trkpt lat="48.65546" lon="2.69856">
        <ele>60.9</ele>
        <time>2015-04-25T09:16:44.000Z</time>
      </trkpt>
      <trkpt lat="48.65543" lon="2.69844">
        <ele>60.7</ele>
        <time>2015-04-25T09:16:50.000Z</time>
      </trkpt>
      <trkpt lat="48.65542" lon="2.69839">
        <ele>60.6</ele>
        <time>2015-04-25T09:16:54.000Z</time>
      </trkpt>
      <trkpt lat="48.65541" lon="2.69837">
        <ele>60.6</ele>
        <time>2015-04-25T09:16:55.000Z</time>
      </trkpt>
      <trkpt lat="48.6554" lon="2.69827">
        <ele>60.6</ele>
        <time>2015-04-25T09:16:59.000Z</time>
      </trkpt>
      <trkpt lat="48.6554" lon="2.69822">
        <ele>60.6</ele>
        <time>2015-04-25T09:17:01.000Z</time>
      </trkpt>
      <trkpt lat="48.65541" lon="2.69808">
        <ele>60.9</ele>
        <time>2015-04-25T09:17:07.000Z</time>
      </trkpt>
      <trkpt lat="48.65543" lon="2.69799">
        <ele>61.3</ele>
        <time>2015-04-25T09:17:11.000Z</time>
      </trkpt>
      <trkpt lat="48.65542" lon="2.69796">
        <ele>61.4</ele>
        <time>2015-04-25T09:17:12.000Z</time>
      </trkpt>
      <trkpt lat="48.65538" lon="2.69771">
        <ele>61.5</ele>
        <time>2015-04-25T09:17:17.000Z</time>
      </trkpt>
      <trkpt lat="48.65536" lon="2.69759">
        <ele>61</ele>
        <time>2015-04-25T09:17:20.000Z</time>
      </trkpt>
      <trkpt lat="48.65535" lon="2.69756">
        <ele>60.9</ele>
        <time>2015-04-25T09:17:21.000Z</time>
      </trkpt>
      <trkpt lat="48.65531" lon="2.69753">
        <ele>60.4</ele>
        <time>2015-04-25T09:17:25.000Z</time>
      </trkpt>
      <trkpt lat="48.65531" lon="2.69753">
        <ele>60.4</ele>
        <time>2015-04-25T09:17:26.000Z</time>
      </trkpt>
      <trkpt lat="48.65531" lon="2.69752">
        <ele>60.4</ele>
        <time>2015-04-25T09:17:31.000Z</time>
      </trkpt>
      <trkpt lat="48.65536" lon="2.6974">
        <ele>61</ele>
        <time>2015-04-25T09:17:55.000Z</time>
      </trkpt>
      <trkpt lat="48.65535" lon="2.69737">
        <ele>61</ele>
        <time>2015-04-25T09:17:56.000Z</time>
      </trkpt>
      <trkpt lat="48.65531" lon="2.69717">
        <ele>60.5</ele>
        <time>2015-04-25T09:18:00.000Z</time>
      </trkpt>
      <trkpt lat="48.6553" lon="2.69708">
        <ele>60.3</ele>
        <time>2015-04-25T09:18:02.000Z</time>
      </trkpt>
      <trkpt lat="48.65528" lon="2.69705">
        <ele>60.1</ele>
        <time>2015-04-25T09:18:03.000Z</time>
      </trkpt>
      <trkpt lat="48.65526" lon="2.69697">
        <ele>60</ele>
        <time>2015-04-25T09:18:07.000Z</time>
      </trkpt>
      <trkpt lat="48.65525" lon="2.69692">
        <ele>60.1</ele>
        <time>2015-04-25T09:18:10.000Z</time>
      </trkpt>
      <trkpt lat="48.65523" lon="2.69686">
        <ele>60.2</ele>
        <time>2015-04-25T09:18:13.000Z</time>
      </trkpt>
      <trkpt lat="48.65519" lon="2.69676">
        <ele>60.4</ele>
        <time>2015-04-25T09:18:19.000Z</time>
      </trkpt>
      <trkpt lat="48.65517" lon="2.69676">
        <ele>60.4</ele>
        <time>2015-04-25T09:18:20.000Z</time>
      </trkpt>
      <trkpt lat="48.65516" lon="2.6967">
        <ele>60.5</ele>
        <time>2015-04-25T09:18:23.000Z</time>
      </trkpt>
      <trkpt lat="48.65515" lon="2.69668">
        <ele>60.5</ele>
        <time>2015-04-25T09:18:24.000Z</time>
      </trkpt>
      <trkpt lat="48.65513" lon="2.69664">
        <ele>60.5</ele>
        <time>2015-04-25T09:18:27.000Z</time>
      </trkpt>
      <trkpt lat="48.65512" lon="2.6966">
        <ele>60.5</ele>
        <time>2015-04-25T09:18:29.000Z</time>
      </trkpt>
      <trkpt lat="48.65509" lon="2.69647">
        <ele>60.5</ele>
        <time>2015-04-25T09:18:35.000Z</time>
      </trkpt>
      <trkpt lat="48.65504" lon="2.69637">
        <ele>60.3</ele>
        <time>2015-04-25T09:18:39.000Z</time>
      </trkpt>
      <trkpt lat="48.65495" lon="2.69612">
        <ele>60</ele>
        <time>2015-04-25T09:18:45.000Z</time>
      </trkpt>
      <trkpt lat="48.65493" lon="2.69608">
        <ele>60.1</ele>
        <time>2015-04-25T09:18:46.000Z</time>
      </trkpt>
      <trkpt lat="48.65491" lon="2.69603">
        <ele>60.2</ele>
        <time>2015-04-25T09:18:50.000Z</time>
      </trkpt>
      <trkpt lat="48.65491" lon="2.69592">
        <ele>60.5</ele>
        <time>2015-04-25T09:19:04.000Z</time>
      </trkpt>
      <trkpt lat="48.65485" lon="2.69584">
        <ele>60.5</ele>
        <time>2015-04-25T09:19:09.000Z</time>
      </trkpt>
      <trkpt lat="48.65478" lon="2.69569">
        <ele>60.4</ele>
        <time>2015-04-25T09:19:15.000Z</time>
      </trkpt>
      <trkpt lat="48.65472" lon="2.69558">
        <ele>60</ele>
        <time>2015-04-25T09:19:21.000Z</time>
      </trkpt>
      <trkpt lat="48.6547" lon="2.69553">
        <ele>60.1</ele>
        <time>2015-04-25T09:19:24.000Z</time>
      </trkpt>
      <trkpt lat="48.65468" lon="2.6955">
        <ele>60.2</ele>
        <time>2015-04-25T09:19:26.000Z</time>
      </trkpt>
      <trkpt lat="48.65464" lon="2.69541">
        <ele>60.4</ele>
        <time>2015-04-25T09:19:31.000Z</time>
      </trkpt>
      <trkpt lat="48.65462" lon="2.69536">
        <ele>60.5</ele>
        <time>2015-04-25T09:19:32.000Z</time>
      </trkpt>
      <trkpt lat="48.65457" lon="2.69528">
        <ele>60.4</ele>
        <time>2015-04-25T09:19:37.000Z</time>
      </trkpt>
      <trkpt lat="48.65452" lon="2.69519">
        <ele>60.5</ele>
        <time>2015-04-25T09:19:43.000Z</time>
      </trkpt>
      <trkpt lat="48.65449" lon="2.69513">
        <ele>60.4</ele>
        <time>2015-04-25T09:19:48.000Z</time>
      </trkpt>
      <trkpt lat="48.65449" lon="2.69513">
        <ele>60.4</ele>
        <time>2015-04-25T09:19:49.000Z</time>
      </trkpt>
      <trkpt lat="48.65442" lon="2.695">
        <ele>60</ele>
        <time>2015-04-25T09:19:55.000Z</time>
      </trkpt>
      <trkpt lat="48.65437" lon="2.69495">
        <ele>60.4</ele>
        <time>2015-04-25T09:19:59.000Z</time>
      </trkpt>
      <trkpt lat="48.65431" lon="2.69488">
        <ele>60.7</ele>
        <time>2015-04-25T09:20:04.000Z</time>
      </trkpt>
      <trkpt lat="48.65426" lon="2.69483">
        <ele>60.6</ele>
        <time>2015-04-25T09:20:08.000Z</time>
      </trkpt>
      <trkpt lat="48.65421" lon="2.69474">
        <ele>60.4</ele>
        <time>2015-04-25T09:20:13.000Z</time>
      </trkpt>
      <trkpt lat="48.65415" lon="2.69467">
        <ele>60.4</ele>
        <time>2015-04-25T09:20:18.000Z</time>
      </trkpt>
      <trkpt lat="48.65409" lon="2.69459">
        <ele>60.7</ele>
        <time>2015-04-25T09:20:24.000Z</time>
      </trkpt>
      <trkpt lat="48.65406" lon="2.69455">
        <ele>60.8</ele>
        <time>2015-04-25T09:20:27.000Z</time>
      </trkpt>
      <trkpt lat="48.65404" lon="2.69453">
        <ele>60.8</ele>
        <time>2015-04-25T09:20:28.000Z</time>
      </trkpt>
      <trkpt lat="48.65398" lon="2.69443">
        <ele>60.7</ele>
        <time>2015-04-25T09:20:34.000Z</time>
      </trkpt>
      <trkpt lat="48.65397" lon="2.69441">
        <ele>60.8</ele>
        <time>2015-04-25T09:20:35.000Z</time>
      </trkpt>
      <trkpt lat="48.65396" lon="2.69442">
        <ele>60.7</ele>
        <time>2015-04-25T09:20:36.000Z</time>
      </trkpt>
      <trkpt lat="48.65392" lon="2.69437">
        <ele>60.6</ele>
        <time>2015-04-25T09:20:39.000Z</time>
      </trkpt>
      <trkpt lat="48.65389" lon="2.69434">
        <ele>60.4</ele>
        <time>2015-04-25T09:20:41.000Z</time>
      </trkpt>
      <trkpt lat="48.65381" lon="2.69427">
        <ele>60.5</ele>
        <time>2015-04-25T09:20:44.000Z</time>
      </trkpt>
      <trkpt lat="48.6537" lon="2.69417">
        <ele>60.3</ele>
        <time>2015-04-25T09:20:50.000Z</time>
      </trkpt>
      <trkpt lat="48.6537" lon="2.69416">
        <ele>60.3</ele>
        <time>2015-04-25T09:20:51.000Z</time>
      </trkpt>
      <trkpt lat="48.6537" lon="2.69415">
        <ele>60.4</ele>
        <time>2015-04-25T09:20:56.000Z</time>
      </trkpt>
      <trkpt lat="48.65367" lon="2.69412">
        <ele>60.3</ele>
        <time>2015-04-25T09:21:01.000Z</time>
      </trkpt>
      <trkpt lat="48.65366" lon="2.69409">
        <ele>60.3</ele>
        <time>2015-04-25T09:21:03.000Z</time>
      </trkpt>
      <trkpt lat="48.65361" lon="2.69402">
        <ele>60</ele>
        <time>2015-04-25T09:21:09.000Z</time>
      </trkpt>
      <trkpt lat="48.6536" lon="2.694">
        <ele>60</ele>
        <time>2015-04-25T09:21:10.000Z</time>
      </trkpt>
      <trkpt lat="48.65357" lon="2.69395">
        <ele>59.9</ele>
        <time>2015-04-25T09:21:14.000Z</time>
      </trkpt>
      <trkpt lat="48.65353" lon="2.69389">
        <ele>59.7</ele>
        <time>2015-04-25T09:21:19.000Z</time>
      </trkpt>
      <trkpt lat="48.65349" lon="2.69381">
        <ele>59.7</ele>
        <time>2015-04-25T09:21:23.000Z</time>
      </trkpt>
      <trkpt lat="48.65348" lon="2.6938">
        <ele>59.7</ele>
        <time>2015-04-25T09:21:24.000Z</time>
      </trkpt>
      <trkpt lat="48.65341" lon="2.69369">
        <ele>59.5</ele>
        <time>2015-04-25T09:21:31.000Z</time>
      </trkpt>
      <trkpt lat="48.65338" lon="2.69364">
        <ele>59.3</ele>
        <time>2015-04-25T09:21:35.000Z</time>
      </trkpt>
      <trkpt lat="48.65337" lon="2.69361">
        <ele>59.2</ele>
        <time>2015-04-25T09:21:36.000Z</time>
      </trkpt>
      <trkpt lat="48.65334" lon="2.69347">
        <ele>59.5</ele>
        <time>2015-04-25T09:21:42.000Z</time>
      </trkpt>
      <trkpt lat="48.6533" lon="2.69336">
        <ele>59.9</ele>
        <time>2015-04-25T09:21:48.000Z</time>
      </trkpt>
      <trkpt lat="48.65327" lon="2.69324">
        <ele>60</ele>
        <time>2015-04-25T09:21:54.000Z</time>
      </trkpt>
      <trkpt lat="48.65321" lon="2.69306">
        <ele>60</ele>
        <time>2015-04-25T09:22:02.000Z</time>
      </trkpt>
      <trkpt lat="48.65316" lon="2.69292">
        <ele>60.2</ele>
        <time>2015-04-25T09:22:09.000Z</time>
      </trkpt>
      <trkpt lat="48.65309" lon="2.69274">
        <ele>60.2</ele>
        <time>2015-04-25T09:22:17.000Z</time>
      </trkpt>
      <trkpt lat="48.65303" lon="2.69252">
        <ele>60</ele>
        <time>2015-04-25T09:22:27.000Z</time>
      </trkpt>
      <trkpt lat="48.65297" lon="2.69237">
        <ele>60.3</ele>
        <time>2015-04-25T09:22:35.000Z</time>
      </trkpt>
      <trkpt lat="48.65291" lon="2.69219">
        <ele>60.5</ele>
        <time>2015-04-25T09:22:43.000Z</time>
      </trkpt>
      <trkpt lat="48.65287" lon="2.69206">
        <ele>60.3</ele>
        <time>2015-04-25T09:22:49.000Z</time>
      </trkpt>
      <trkpt lat="48.6528" lon="2.69187">
        <ele>60.1</ele>
        <time>2015-04-25T09:22:58.000Z</time>
      </trkpt>
      <trkpt lat="48.65275" lon="2.69171">
        <ele>60</ele>
        <time>2015-04-25T09:23:06.000Z</time>
      </trkpt>
      <trkpt lat="48.6527" lon="2.6915">
        <ele>60</ele>
        <time>2015-04-25T09:23:16.000Z</time>
      </trkpt>
      <trkpt lat="48.65266" lon="2.69134">
        <ele>60.1</ele>
        <time>2015-04-25T09:23:24.000Z</time>
      </trkpt>
      <trkpt lat="48.65261" lon="2.69117">
        <ele>60.3</ele>
        <time>2015-04-25T09:23:32.000Z</time>
      </trkpt>
      <trkpt lat="48.65258" lon="2.69112">
        <ele>60.3</ele>
        <time>2015-04-25T09:23:35.000Z</time>
      </trkpt>
      <trkpt lat="48.65257" lon="2.69107">
        <ele>60.3</ele>
        <time>2015-04-25T09:23:37.000Z</time>
      </trkpt>
      <trkpt lat="48.65255" lon="2.69101">
        <ele>60.2</ele>
        <time>2015-04-25T09:23:40.000Z</time>
      </trkpt>
      <trkpt lat="48.65253" lon="2.69092">
        <ele>60.1</ele>
        <time>2015-04-25T09:23:44.000Z</time>
      </trkpt>
      <trkpt lat="48.65247" lon="2.69077">
        <ele>60</ele>
        <time>2015-04-25T09:23:51.000Z</time>
      </trkpt>
      <trkpt lat="48.65241" lon="2.6906">
        <ele>60</ele>
        <time>2015-04-25T09:23:59.000Z</time>
      </trkpt>
      <trkpt lat="48.65235" lon="2.69043">
        <ele>60</ele>
        <time>2015-04-25T09:24:07.000Z</time>
      </trkpt>
      <trkpt lat="48.65234" lon="2.69032">
        <ele>60</ele>
        <time>2015-04-25T09:24:11.000Z</time>
      </trkpt>
      <trkpt lat="48.65235" lon="2.69024">
        <ele>60</ele>
        <time>2015-04-25T09:24:15.000Z</time>
      </trkpt>
      <trkpt lat="48.65234" lon="2.69021">
        <ele>60</ele>
        <time>2015-04-25T09:24:16.000Z</time>
      </trkpt>
      <trkpt lat="48.65235" lon="2.6901">
        <ele>60</ele>
        <time>2015-04-25T09:24:21.000Z</time>
      </trkpt>
      <trkpt lat="48.65235" lon="2.69005">
        <ele>60</ele>
        <time>2015-04-25T09:24:23.000Z</time>
      </trkpt>
      <trkpt lat="48.65236" lon="2.68999">
        <ele>60</ele>
        <time>2015-04-25T09:24:26.000Z</time>
      </trkpt>
      <trkpt lat="48.65237" lon="2.68995">
        <ele>60.1</ele>
        <time>2015-04-25T09:24:28.000Z</time>
      </trkpt>
      <trkpt lat="48.6524" lon="2.68981">
        <ele>60.5</ele>
        <time>2015-04-25T09:24:35.000Z</time>
      </trkpt>
      <trkpt lat="48.65243" lon="2.68962">
        <ele>60.8</ele>
        <time>2015-04-25T09:24:43.000Z</time>
      </trkpt>
      <trkpt lat="48.65244" lon="2.68949">
        <ele>60.8</ele>
        <time>2015-04-25T09:24:48.000Z</time>
      </trkpt>
      <trkpt lat="48.65243" lon="2.68947">
        <ele>60.8</ele>
        <time>2015-04-25T09:24:49.000Z</time>
      </trkpt>
      <trkpt lat="48.65244" lon="2.68931">
        <ele>60.8</ele>
        <time>2015-04-25T09:24:55.000Z</time>
      </trkpt>
      <trkpt lat="48.65244" lon="2.68928">
        <ele>60.8</ele>
        <time>2015-04-25T09:24:56.000Z</time>
      </trkpt>
      <trkpt lat="48.65243" lon="2.68922">
        <ele>60.8</ele>
        <time>2015-04-25T09:24:59.000Z</time>
      </trkpt>
      <trkpt lat="48.65243" lon="2.68913">
        <ele>60.9</ele>
        <time>2015-04-25T09:25:02.000Z</time>
      </trkpt>
      <trkpt lat="48.65243" lon="2.68889">
        <ele>61.5</ele>
        <time>2015-04-25T09:25:11.000Z</time>
      </trkpt>
      <trkpt lat="48.65242" lon="2.6887">
        <ele>61.4</ele>
        <time>2015-04-25T09:25:18.000Z</time>
      </trkpt>
      <trkpt lat="48.65243" lon="2.68855">
        <ele>61.5</ele>
        <time>2015-04-25T09:25:24.000Z</time>
      </trkpt>
      <trkpt lat="48.65242" lon="2.68842">
        <ele>61.4</ele>
        <time>2015-04-25T09:25:30.000Z</time>
      </trkpt>
      <trkpt lat="48.65242" lon="2.68839">
        <ele>61.5</ele>
        <time>2015-04-25T09:25:32.000Z</time>
      </trkpt>
      <trkpt lat="48.65244" lon="2.68831">
        <ele>61.7</ele>
        <time>2015-04-25T09:25:36.000Z</time>
      </trkpt>
      <trkpt lat="48.65246" lon="2.68823">
        <ele>62.1</ele>
        <time>2015-04-25T09:25:40.000Z</time>
      </trkpt>
      <trkpt lat="48.65248" lon="2.68819">
        <ele>62.3</ele>
        <time>2015-04-25T09:25:42.000Z</time>
      </trkpt>
      <trkpt lat="48.6525" lon="2.68815">
        <ele>62.6</ele>
        <time>2015-04-25T09:25:45.000Z</time>
      </trkpt>
      <trkpt lat="48.65254" lon="2.68809">
        <ele>63.3</ele>
        <time>2015-04-25T09:25:48.000Z</time>
      </trkpt>
      <trkpt lat="48.65254" lon="2.68808">
        <ele>63.4</ele>
        <time>2015-04-25T09:25:49.000Z</time>
      </trkpt>
      <trkpt lat="48.65256" lon="2.68801">
        <ele>63.8</ele>
        <time>2015-04-25T09:25:52.000Z</time>
      </trkpt>
      <trkpt lat="48.6526" lon="2.68789">
        <ele>64.5</ele>
        <time>2015-04-25T09:25:58.000Z</time>
      </trkpt>
      <trkpt lat="48.65264" lon="2.68783">
        <ele>64.9</ele>
        <time>2015-04-25T09:26:01.000Z</time>
      </trkpt>
      <trkpt lat="48.65266" lon="2.68781">
        <ele>65.1</ele>
        <time>2015-04-25T09:26:03.000Z</time>
      </trkpt>
      <trkpt lat="48.65268" lon="2.68777">
        <ele>65.3</ele>
        <time>2015-04-25T09:26:05.000Z</time>
      </trkpt>
      <trkpt lat="48.65273" lon="2.68771">
        <ele>65.6</ele>
        <time>2015-04-25T09:26:09.000Z</time>
      </trkpt>
      <trkpt lat="48.65281" lon="2.68762">
        <ele>66.3</ele>
        <time>2015-04-25T09:26:15.000Z</time>
      </trkpt>
      <trkpt lat="48.6529" lon="2.68755">
        <ele>67.2</ele>
        <time>2015-04-25T09:26:21.000Z</time>
      </trkpt>
      <trkpt lat="48.65293" lon="2.6875">
        <ele>67.6</ele>
        <time>2015-04-25T09:26:24.000Z</time>
      </trkpt>
      <trkpt lat="48.65297" lon="2.68745">
        <ele>68</ele>
        <time>2015-04-25T09:26:27.000Z</time>
      </trkpt>
      <trkpt lat="48.65301" lon="2.68742">
        <ele>68.3</ele>
        <time>2015-04-25T09:26:30.000Z</time>
      </trkpt>
      <trkpt lat="48.65304" lon="2.68739">
        <ele>68.4</ele>
        <time>2015-04-25T09:26:32.000Z</time>
      </trkpt>
      <trkpt lat="48.65317" lon="2.6873">
        <ele>68.7</ele>
        <time>2015-04-25T09:26:41.000Z</time>
      </trkpt>
      <trkpt lat="48.65326" lon="2.68729">
        <ele>69</ele>
        <time>2015-04-25T09:26:46.000Z</time>
      </trkpt>
      <trkpt lat="48.65327" lon="2.68731">
        <ele>69.1</ele>
        <time>2015-04-25T09:26:47.000Z</time>
      </trkpt>
      <trkpt lat="48.65328" lon="2.68732">
        <ele>69.2</ele>
        <time>2015-04-25T09:26:49.000Z</time>
      </trkpt>
      <trkpt lat="48.6533" lon="2.68733">
        <ele>69.2</ele>
        <time>2015-04-25T09:26:50.000Z</time>
      </trkpt>
      <trkpt lat="48.65337" lon="2.68736">
        <ele>69.8</ele>
        <time>2015-04-25T09:26:55.000Z</time>
      </trkpt>
      <trkpt lat="48.65342" lon="2.68738">
        <ele>70.2</ele>
        <time>2015-04-25T09:26:59.000Z</time>
      </trkpt>
      <trkpt lat="48.65345" lon="2.68737">
        <ele>70.4</ele>
        <time>2015-04-25T09:27:01.000Z</time>
      </trkpt>
      <trkpt lat="48.65347" lon="2.68743">
        <ele>70.7</ele>
        <time>2015-04-25T09:27:05.000Z</time>
      </trkpt>
      <trkpt lat="48.65348" lon="2.68748">
        <ele>71</ele>
        <time>2015-04-25T09:27:08.000Z</time>
      </trkpt>
      <trkpt lat="48.6535" lon="2.68751">
        <ele>71.2</ele>
        <time>2015-04-25T09:27:10.000Z</time>
      </trkpt>
      <trkpt lat="48.65351" lon="2.68752">
        <ele>71.3</ele>
        <time>2015-04-25T09:27:11.000Z</time>
      </trkpt>
      <trkpt lat="48.65356" lon="2.6876">
        <ele>72</ele>
        <time>2015-04-25T09:27:17.000Z</time>
      </trkpt>
      <trkpt lat="48.65362" lon="2.6877">
        <ele>72.8</ele>
        <time>2015-04-25T09:27:24.000Z</time>
      </trkpt>
      <trkpt lat="48.65364" lon="2.68775">
        <ele>73</ele>
        <time>2015-04-25T09:27:27.000Z</time>
      </trkpt>
      <trkpt lat="48.65364" lon="2.68775">
        <ele>73</ele>
        <time>2015-04-25T09:27:29.000Z</time>
      </trkpt>
      <trkpt lat="48.65367" lon="2.68777">
        <ele>73.2</ele>
        <time>2015-04-25T09:27:36.000Z</time>
      </trkpt>
      <trkpt lat="48.65368" lon="2.68779">
        <ele>73.2</ele>
        <time>2015-04-25T09:27:41.000Z</time>
      </trkpt>
      <trkpt lat="48.65368" lon="2.68783">
        <ele>73.3</ele>
        <time>2015-04-25T09:27:49.000Z</time>
      </trkpt>
      <trkpt lat="48.65369" lon="2.68786">
        <ele>73.3</ele>
        <time>2015-04-25T09:27:56.000Z</time>
      </trkpt>
      <trkpt lat="48.65371" lon="2.68789">
        <ele>73.3</ele>
        <time>2015-04-25T09:28:07.000Z</time>
      </trkpt>
      <trkpt lat="48.6537" lon="2.68791">
        <ele>73.3</ele>
        <time>2015-04-25T09:28:31.000Z</time>
      </trkpt>
      <trkpt lat="48.65366" lon="2.68785">
        <ele>73.2</ele>
        <time>2015-04-25T09:28:59.000Z</time>
      </trkpt>
      <trkpt lat="48.65367" lon="2.68785">
        <ele>73.2</ele>
        <time>2015-04-25T09:29:27.000Z</time>
      </trkpt>
      <trkpt lat="48.65369" lon="2.68785">
        <ele>73.3</ele>
        <time>2015-04-25T09:29:49.000Z</time>
      </trkpt>
      <trkpt lat="48.65371" lon="2.68791">
        <ele>73.3</ele>
        <time>2015-04-25T09:29:54.000Z</time>
      </trkpt>
      <trkpt lat="48.65374" lon="2.68799">
        <ele>73.5</ele>
        <time>2015-04-25T09:29:59.000Z</time>
      </trkpt>
      <trkpt lat="48.65374" lon="2.68801">
        <ele>73.5</ele>
        <time>2015-04-25T09:30:00.000Z</time>
      </trkpt>
      <trkpt lat="48.65376" lon="2.68803">
        <ele>73.5</ele>
        <time>2015-04-25T09:30:01.000Z</time>
      </trkpt>
      <trkpt lat="48.6538" lon="2.68812">
        <ele>73.8</ele>
        <time>2015-04-25T09:30:06.000Z</time>
      </trkpt>
      <trkpt lat="48.65383" lon="2.68822">
        <ele>74.3</ele>
        <time>2015-04-25T09:30:11.000Z</time>
      </trkpt>
      <trkpt lat="48.65384" lon="2.68823">
        <ele>74.3</ele>
        <time>2015-04-25T09:30:12.000Z</time>
      </trkpt>
      <trkpt lat="48.65384" lon="2.68825">
        <ele>74.4</ele>
        <time>2015-04-25T09:30:13.000Z</time>
      </trkpt>
      <trkpt lat="48.65386" lon="2.68835">
        <ele>74.8</ele>
        <time>2015-04-25T09:30:16.000Z</time>
      </trkpt>
      <trkpt lat="48.65387" lon="2.68838">
        <ele>74.7</ele>
        <time>2015-04-25T09:30:18.000Z</time>
      </trkpt>
      <trkpt lat="48.65387" lon="2.6884">
        <ele>74.6</ele>
        <time>2015-04-25T09:30:19.000Z</time>
      </trkpt>
      <trkpt lat="48.65388" lon="2.68844">
        <ele>74.6</ele>
        <time>2015-04-25T09:30:21.000Z</time>
      </trkpt>
      <trkpt lat="48.65392" lon="2.68853">
        <ele>74.5</ele>
        <time>2015-04-25T09:30:26.000Z</time>
      </trkpt>
      <trkpt lat="48.65393" lon="2.68855">
        <ele>74.5</ele>
        <time>2015-04-25T09:30:27.000Z</time>
      </trkpt>
      <trkpt lat="48.65395" lon="2.68858">
        <ele>74.5</ele>
        <time>2015-04-25T09:30:29.000Z</time>
      </trkpt>
      <trkpt lat="48.65396" lon="2.68863">
        <ele>74.5</ele>
        <time>2015-04-25T09:30:32.000Z</time>
      </trkpt>
      <trkpt lat="48.65396" lon="2.68864">
        <ele>74.5</ele>
        <time>2015-04-25T09:30:33.000Z</time>
      </trkpt>
      <trkpt lat="48.65399" lon="2.68872">
        <ele>74.7</ele>
        <time>2015-04-25T09:30:37.000Z</time>
      </trkpt>
      <trkpt lat="48.65399" lon="2.68873">
        <ele>74.7</ele>
        <time>2015-04-25T09:30:38.000Z</time>
      </trkpt>
      <trkpt lat="48.65403" lon="2.68885">
        <ele>75</ele>
        <time>2015-04-25T09:30:44.000Z</time>
      </trkpt>
      <trkpt lat="48.65405" lon="2.6889">
        <ele>75.2</ele>
        <time>2015-04-25T09:30:46.000Z</time>
      </trkpt>
      <trkpt lat="48.65407" lon="2.68897">
        <ele>75.4</ele>
        <time>2015-04-25T09:30:49.000Z</time>
      </trkpt>
      <trkpt lat="48.65411" lon="2.68906">
        <ele>75.7</ele>
        <time>2015-04-25T09:30:53.000Z</time>
      </trkpt>
      <trkpt lat="48.65413" lon="2.6891">
        <ele>75.8</ele>
        <time>2015-04-25T09:30:55.000Z</time>
      </trkpt>
      <trkpt lat="48.65415" lon="2.68914">
        <ele>75.9</ele>
        <time>2015-04-25T09:30:57.000Z</time>
      </trkpt>
      <trkpt lat="48.65418" lon="2.68922">
        <ele>76</ele>
        <time>2015-04-25T09:31:01.000Z</time>
      </trkpt>
      <trkpt lat="48.65425" lon="2.68938">
        <ele>76.3</ele>
        <time>2015-04-25T09:31:09.000Z</time>
      </trkpt>
      <trkpt lat="48.65426" lon="2.6894">
        <ele>76.4</ele>
        <time>2015-04-25T09:31:10.000Z</time>
      </trkpt>
      <trkpt lat="48.6543" lon="2.68945">
        <ele>76.5</ele>
        <time>2015-04-25T09:31:13.000Z</time>
      </trkpt>
      <trkpt lat="48.65434" lon="2.68957">
        <ele>77.1</ele>
        <time>2015-04-25T09:31:19.000Z</time>
      </trkpt>
      <trkpt lat="48.65438" lon="2.68966">
        <ele>77.5</ele>
        <time>2015-04-25T09:31:24.000Z</time>
      </trkpt>
      <trkpt lat="48.6544" lon="2.68975">
        <ele>77.8</ele>
        <time>2015-04-25T09:31:28.000Z</time>
      </trkpt>
      <trkpt lat="48.65441" lon="2.68977">
        <ele>77.9</ele>
        <time>2015-04-25T09:31:29.000Z</time>
      </trkpt>
      <trkpt lat="48.65445" lon="2.68984">
        <ele>78</ele>
        <time>2015-04-25T09:31:33.000Z</time>
      </trkpt>
      <trkpt lat="48.65445" lon="2.68987">
        <ele>78</ele>
        <time>2015-04-25T09:31:34.000Z</time>
      </trkpt>
      <trkpt lat="48.6545" lon="2.68994">
        <ele>78.2</ele>
        <time>2015-04-25T09:31:38.000Z</time>
      </trkpt>
      <trkpt lat="48.65454" lon="2.68999">
        <ele>78.3</ele>
        <time>2015-04-25T09:31:42.000Z</time>
      </trkpt>
      <trkpt lat="48.65455" lon="2.69001">
        <ele>78.4</ele>
        <time>2015-04-25T09:31:43.000Z</time>
      </trkpt>
      <trkpt lat="48.65455" lon="2.69004">
        <ele>78.4</ele>
        <time>2015-04-25T09:31:44.000Z</time>
      </trkpt>
      <trkpt lat="48.65459" lon="2.6901">
        <ele>78.7</ele>
        <time>2015-04-25T09:31:47.000Z</time>
      </trkpt>
      <trkpt lat="48.65459" lon="2.69011">
        <ele>78.8</ele>
        <time>2015-04-25T09:31:48.000Z</time>
      </trkpt>
      <trkpt lat="48.65463" lon="2.69021">
        <ele>79.2</ele>
        <time>2015-04-25T09:31:53.000Z</time>
      </trkpt>
      <trkpt lat="48.65471" lon="2.69035">
        <ele>79.9</ele>
        <time>2015-04-25T09:32:00.000Z</time>
      </trkpt>
      <trkpt lat="48.65476" lon="2.69048">
        <ele>80.2</ele>
        <time>2015-04-25T09:32:07.000Z</time>
      </trkpt>
      <trkpt lat="48.6548" lon="2.69059">
        <ele>80.3</ele>
        <time>2015-04-25T09:32:12.000Z</time>
      </trkpt>
      <trkpt lat="48.65484" lon="2.69071">
        <ele>80.6</ele>
        <time>2015-04-25T09:32:17.000Z</time>
      </trkpt>
      <trkpt lat="48.65484" lon="2.69072">
        <ele>80.7</ele>
        <time>2015-04-25T09:32:18.000Z</time>
      </trkpt>
      <trkpt lat="48.65491" lon="2.69084">
        <ele>81.4</ele>
        <time>2015-04-25T09:32:24.000Z</time>
      </trkpt>
      <trkpt lat="48.65498" lon="2.69097">
        <ele>81.9</ele>
        <time>2015-04-25T09:32:30.000Z</time>
      </trkpt>
      <trkpt lat="48.655" lon="2.69105">
        <ele>82</ele>
        <time>2015-04-25T09:32:33.000Z</time>
      </trkpt>
      <trkpt lat="48.65502" lon="2.69108">
        <ele>82.1</ele>
        <time>2015-04-25T09:32:35.000Z</time>
      </trkpt>
      <trkpt lat="48.65504" lon="2.69114">
        <ele>82.3</ele>
        <time>2015-04-25T09:32:38.000Z</time>
      </trkpt>
      <trkpt lat="48.65504" lon="2.69121">
        <ele>82.3</ele>
        <time>2015-04-25T09:32:40.000Z</time>
      </trkpt>
      <trkpt lat="48.65506" lon="2.69124">
        <ele>82.4</ele>
        <time>2015-04-25T09:32:41.000Z</time>
      </trkpt>
      <trkpt lat="48.6551" lon="2.69138">
        <ele>82.7</ele>
        <time>2015-04-25T09:32:47.000Z</time>
      </trkpt>
      <trkpt lat="48.6551" lon="2.69142">
        <ele>82.7</ele>
        <time>2015-04-25T09:32:48.000Z</time>
      </trkpt>
      <trkpt lat="48.65511" lon="2.69152">
        <ele>82.8</ele>
        <time>2015-04-25T09:32:51.000Z</time>
      </trkpt>
      <trkpt lat="48.65517" lon="2.69166">
        <ele>83.2</ele>
        <time>2015-04-25T09:32:57.000Z</time>
      </trkpt>
      <trkpt lat="48.6552" lon="2.69176">
        <ele>83.8</ele>
        <time>2015-04-25T09:33:02.000Z</time>
      </trkpt>
      <trkpt lat="48.65523" lon="2.69184">
        <ele>84.3</ele>
        <time>2015-04-25T09:33:06.000Z</time>
      </trkpt>
      <trkpt lat="48.65525" lon="2.69188">
        <ele>84.6</ele>
        <time>2015-04-25T09:33:08.000Z</time>
      </trkpt>
      <trkpt lat="48.65532" lon="2.69203">
        <ele>84.9</ele>
        <time>2015-04-25T09:33:16.000Z</time>
      </trkpt>
      <trkpt lat="48.65541" lon="2.69222">
        <ele>84.9</ele>
        <time>2015-04-25T09:33:25.000Z</time>
      </trkpt>
      <trkpt lat="48.65548" lon="2.69235">
        <ele>85.9</ele>
        <time>2015-04-25T09:33:31.000Z</time>
      </trkpt>
      <trkpt lat="48.65555" lon="2.69253">
        <ele>86.8</ele>
        <time>2015-04-25T09:33:40.000Z</time>
      </trkpt>
      <trkpt lat="48.65561" lon="2.69271">
        <ele>86.4</ele>
        <time>2015-04-25T09:33:48.000Z</time>
      </trkpt>
      <trkpt lat="48.65567" lon="2.69288">
        <ele>86.4</ele>
        <time>2015-04-25T09:33:56.000Z</time>
      </trkpt>
      <trkpt lat="48.65569" lon="2.6929">
        <ele>86.5</ele>
        <time>2015-04-25T09:33:58.000Z</time>
      </trkpt>
      <trkpt lat="48.6557" lon="2.69298">
        <ele>86.5</ele>
        <time>2015-04-25T09:34:01.000Z</time>
      </trkpt>
      <trkpt lat="48.65571" lon="2.693">
        <ele>86.5</ele>
        <time>2015-04-25T09:34:02.000Z</time>
      </trkpt>
      <trkpt lat="48.65572" lon="2.69302">
        <ele>86.6</ele>
        <time>2015-04-25T09:34:03.000Z</time>
      </trkpt>
      <trkpt lat="48.65573" lon="2.69307">
        <ele>86.7</ele>
        <time>2015-04-25T09:34:06.000Z</time>
      </trkpt>
      <trkpt lat="48.65573" lon="2.6931">
        <ele>86.7</ele>
        <time>2015-04-25T09:34:07.000Z</time>
      </trkpt>
      <trkpt lat="48.65575" lon="2.69319">
        <ele>87</ele>
        <time>2015-04-25T09:34:12.000Z</time>
      </trkpt>
      <trkpt lat="48.65576" lon="2.69324">
        <ele>87.2</ele>
        <time>2015-04-25T09:34:14.000Z</time>
      </trkpt>
      <trkpt lat="48.65577" lon="2.69326">
        <ele>87.3</ele>
        <time>2015-04-25T09:34:16.000Z</time>
      </trkpt>
      <trkpt lat="48.65578" lon="2.69327">
        <ele>87.5</ele>
        <time>2015-04-25T09:34:17.000Z</time>
      </trkpt>
      <trkpt lat="48.65581" lon="2.69331">
        <ele>87.7</ele>
        <time>2015-04-25T09:34:20.000Z</time>
      </trkpt>
      <trkpt lat="48.65583" lon="2.69341">
        <ele>87.7</ele>
        <time>2015-04-25T09:34:25.000Z</time>
      </trkpt>
      <trkpt lat="48.65588" lon="2.6935">
        <ele>87.5</ele>
        <time>2015-04-25T09:34:30.000Z</time>
      </trkpt>
      <trkpt lat="48.65589" lon="2.69351">
        <ele>87.5</ele>
        <time>2015-04-25T09:34:31.000Z</time>
      </trkpt>
      <trkpt lat="48.65591" lon="2.6936">
        <ele>87.3</ele>
        <time>2015-04-25T09:34:35.000Z</time>
      </trkpt>
      <trkpt lat="48.65596" lon="2.69384">
        <ele>87</ele>
        <time>2015-04-25T09:34:44.000Z</time>
      </trkpt>
      <trkpt lat="48.656" lon="2.69411">
        <ele>87</ele>
        <time>2015-04-25T09:34:55.000Z</time>
      </trkpt>
      <trkpt lat="48.65604" lon="2.69439">
        <ele>86.8</ele>
        <time>2015-04-25T09:35:06.000Z</time>
      </trkpt>
      <trkpt lat="48.65608" lon="2.6946">
        <ele>86.8</ele>
        <time>2015-04-25T09:35:15.000Z</time>
      </trkpt>
      <trkpt lat="48.6561" lon="2.69475">
        <ele>86.7</ele>
        <time>2015-04-25T09:35:22.000Z</time>
      </trkpt>
      <trkpt lat="48.65611" lon="2.69483">
        <ele>86.3</ele>
        <time>2015-04-25T09:35:26.000Z</time>
      </trkpt>
      <trkpt lat="48.65611" lon="2.69485">
        <ele>86</ele>
        <time>2015-04-25T09:35:28.000Z</time>
      </trkpt>
      <trkpt lat="48.65614" lon="2.69494">
        <ele>85.5</ele>
        <time>2015-04-25T09:35:33.000Z</time>
      </trkpt>
      <trkpt lat="48.65615" lon="2.69502">
        <ele>85.1</ele>
        <time>2015-04-25T09:35:37.000Z</time>
      </trkpt>
      <trkpt lat="48.65617" lon="2.6951">
        <ele>84.9</ele>
        <time>2015-04-25T09:35:41.000Z</time>
      </trkpt>
      <trkpt lat="48.65619" lon="2.69514">
        <ele>84.8</ele>
        <time>2015-04-25T09:35:43.000Z</time>
      </trkpt>
      <trkpt lat="48.65619" lon="2.69516">
        <ele>84.7</ele>
        <time>2015-04-25T09:35:44.000Z</time>
      </trkpt>
      <trkpt lat="48.65622" lon="2.6952">
        <ele>84.7</ele>
        <time>2015-04-25T09:35:47.000Z</time>
      </trkpt>
      <trkpt lat="48.65625" lon="2.69526">
        <ele>84.5</ele>
        <time>2015-04-25T09:35:50.000Z</time>
      </trkpt>
      <trkpt lat="48.65626" lon="2.69528">
        <ele>84.5</ele>
        <time>2015-04-25T09:35:51.000Z</time>
      </trkpt>
      <trkpt lat="48.65628" lon="2.69532">
        <ele>84.5</ele>
        <time>2015-04-25T09:35:53.000Z</time>
      </trkpt>
      <trkpt lat="48.6563" lon="2.69536">
        <ele>84.6</ele>
        <time>2015-04-25T09:35:55.000Z</time>
      </trkpt>
      <trkpt lat="48.65634" lon="2.69544">
        <ele>84.7</ele>
        <time>2015-04-25T09:35:59.000Z</time>
      </trkpt>
      <trkpt lat="48.65638" lon="2.69559">
        <ele>84.8</ele>
        <time>2015-04-25T09:36:05.000Z</time>
      </trkpt>
      <trkpt lat="48.65642" lon="2.69565">
        <ele>84.7</ele>
        <time>2015-04-25T09:36:10.000Z</time>
      </trkpt>
      <trkpt lat="48.65644" lon="2.69565">
        <ele>84.7</ele>
        <time>2015-04-25T09:36:11.000Z</time>
      </trkpt>
      <trkpt lat="48.65648" lon="2.69566">
        <ele>84.7</ele>
        <time>2015-04-25T09:36:14.000Z</time>
      </trkpt>
      <trkpt lat="48.65653" lon="2.69565">
        <ele>84.8</ele>
        <time>2015-04-25T09:36:18.000Z</time>
      </trkpt>
      <trkpt lat="48.65654" lon="2.69565">
        <ele>84.9</ele>
        <time>2015-04-25T09:36:19.000Z</time>
      </trkpt>
      <trkpt lat="48.65656" lon="2.69566">
        <ele>84.9</ele>
        <time>2015-04-25T09:36:20.000Z</time>
      </trkpt>
      <trkpt lat="48.6566" lon="2.69565">
        <ele>84.9</ele>
        <time>2015-04-25T09:36:23.000Z</time>
      </trkpt>
      <trkpt lat="48.65669" lon="2.69565">
        <ele>85.1</ele>
        <time>2015-04-25T09:36:29.000Z</time>
      </trkpt>
      <trkpt lat="48.65679" lon="2.69564">
        <ele>85.3</ele>
        <time>2015-04-25T09:36:35.000Z</time>
      </trkpt>
      <trkpt lat="48.65683" lon="2.69565">
        <ele>85.4</ele>
        <time>2015-04-25T09:36:38.000Z</time>
      </trkpt>
      <trkpt lat="48.65685" lon="2.69571">
        <ele>85.3</ele>
        <time>2015-04-25T09:36:41.000Z</time>
      </trkpt>
      <trkpt lat="48.65686" lon="2.69579">
        <ele>85.1</ele>
        <time>2015-04-25T09:36:46.000Z</time>
      </trkpt>
      <trkpt lat="48.65685" lon="2.6959">
        <ele>84.9</ele>
        <time>2015-04-25T09:36:51.000Z</time>
      </trkpt>
      <trkpt lat="48.65686" lon="2.69598">
        <ele>84.8</ele>
        <time>2015-04-25T09:36:55.000Z</time>
      </trkpt>
      <trkpt lat="48.65686" lon="2.69604">
        <ele>84.8</ele>
        <time>2015-04-25T09:36:58.000Z</time>
      </trkpt>
      <trkpt lat="48.65684" lon="2.69627">
        <ele>84.1</ele>
        <time>2015-04-25T09:37:09.000Z</time>
      </trkpt>
      <trkpt lat="48.65681" lon="2.69641">
        <ele>83.5</ele>
        <time>2015-04-25T09:37:16.000Z</time>
      </trkpt>
      <trkpt lat="48.65679" lon="2.69651">
        <ele>83</ele>
        <time>2015-04-25T09:37:21.000Z</time>
      </trkpt>
      <trkpt lat="48.65678" lon="2.69654">
        <ele>82.9</ele>
        <time>2015-04-25T09:37:23.000Z</time>
      </trkpt>
      <trkpt lat="48.65675" lon="2.69664">
        <ele>82.4</ele>
        <time>2015-04-25T09:37:28.000Z</time>
      </trkpt>
      <trkpt lat="48.65673" lon="2.69671">
        <ele>82.1</ele>
        <time>2015-04-25T09:37:32.000Z</time>
      </trkpt>
      <trkpt lat="48.65673" lon="2.69673">
        <ele>82</ele>
        <time>2015-04-25T09:37:33.000Z</time>
      </trkpt>
      <trkpt lat="48.65668" lon="2.69688">
        <ele>81.3</ele>
        <time>2015-04-25T09:37:40.000Z</time>
      </trkpt>
      <trkpt lat="48.65668" lon="2.69689">
        <ele>81.2</ele>
        <time>2015-04-25T09:37:41.000Z</time>
      </trkpt>
      <trkpt lat="48.65665" lon="2.69697">
        <ele>80.9</ele>
        <time>2015-04-25T09:37:45.000Z</time>
      </trkpt>
      <trkpt lat="48.65662" lon="2.69708">
        <ele>80.2</ele>
        <time>2015-04-25T09:37:51.000Z</time>
      </trkpt>
      <trkpt lat="48.65661" lon="2.69721">
        <ele>79.7</ele>
        <time>2015-04-25T09:37:57.000Z</time>
      </trkpt>
      <trkpt lat="48.65659" lon="2.69734">
        <ele>78.9</ele>
        <time>2015-04-25T09:38:02.000Z</time>
      </trkpt>
      <trkpt lat="48.65657" lon="2.6974">
        <ele>78.5</ele>
        <time>2015-04-25T09:38:05.000Z</time>
      </trkpt>
      <trkpt lat="48.65657" lon="2.69746">
        <ele>78.2</ele>
        <time>2015-04-25T09:38:08.000Z</time>
      </trkpt>
      <trkpt lat="48.65656" lon="2.69751">
        <ele>77.7</ele>
        <time>2015-04-25T09:38:12.000Z</time>
      </trkpt>
      <trkpt lat="48.65654" lon="2.69753">
        <ele>77.4</ele>
        <time>2015-04-25T09:38:14.000Z</time>
      </trkpt>
      <trkpt lat="48.65651" lon="2.69762">
        <ele>76.5</ele>
        <time>2015-04-25T09:38:20.000Z</time>
      </trkpt>
      <trkpt lat="48.65651" lon="2.69767">
        <ele>76.1</ele>
        <time>2015-04-25T09:38:28.000Z</time>
      </trkpt>
      <trkpt lat="48.6565" lon="2.69768">
        <ele>75.9</ele>
        <time>2015-04-25T09:38:33.000Z</time>
      </trkpt>
      <trkpt lat="48.65648" lon="2.6977">
        <ele>75.5</ele>
        <time>2015-04-25T09:38:41.000Z</time>
      </trkpt>
      <trkpt lat="48.65646" lon="2.69768">
        <ele>75.5</ele>
        <time>2015-04-25T09:38:47.000Z</time>
      </trkpt>
      <trkpt lat="48.65643" lon="2.69767">
        <ele>75.2</ele>
        <time>2015-04-25T09:38:54.000Z</time>
      </trkpt>
      <trkpt lat="48.65642" lon="2.69767">
        <ele>75.2</ele>
        <time>2015-04-25T09:38:58.000Z</time>
      </trkpt>
      <trkpt lat="48.65644" lon="2.69765">
        <ele>75.4</ele>
        <time>2015-04-25T09:39:06.000Z</time>
      </trkpt>
      <trkpt lat="48.65645" lon="2.69764">
        <ele>75.6</ele>
        <time>2015-04-25T09:39:08.000Z</time>
      </trkpt>
      <trkpt lat="48.65645" lon="2.69765">
        <ele>75.6</ele>
        <time>2015-04-25T09:39:13.000Z</time>
      </trkpt>
      <trkpt lat="48.6565" lon="2.69767">
        <ele>76</ele>
        <time>2015-04-25T09:39:20.000Z</time>
      </trkpt>
      <trkpt lat="48.65659" lon="2.69766">
        <ele>77</ele>
        <time>2015-04-25T09:39:28.000Z</time>
      </trkpt>
      <trkpt lat="48.65669" lon="2.69764">
        <ele>78.2</ele>
        <time>2015-04-25T09:39:37.000Z</time>
      </trkpt>
      <trkpt lat="48.65682" lon="2.6976">
        <ele>79.1</ele>
        <time>2015-04-25T09:39:46.000Z</time>
      </trkpt>
      <trkpt lat="48.65694" lon="2.69757">
        <ele>79.7</ele>
        <time>2015-04-25T09:39:54.000Z</time>
      </trkpt>
      <trkpt lat="48.65705" lon="2.69756">
        <ele>79.8</ele>
        <time>2015-04-25T09:40:02.000Z</time>
      </trkpt>
      <trkpt lat="48.65716" lon="2.69754">
        <ele>79.9</ele>
        <time>2015-04-25T09:40:09.000Z</time>
      </trkpt>
      <trkpt lat="48.65727" lon="2.69751">
        <ele>80</ele>
        <time>2015-04-25T09:40:17.000Z</time>
      </trkpt>
      <trkpt lat="48.65737" lon="2.69748">
        <ele>80.1</ele>
        <time>2015-04-25T09:40:24.000Z</time>
      </trkpt>
      <trkpt lat="48.65747" lon="2.69745">
        <ele>80.4</ele>
        <time>2015-04-25T09:40:31.000Z</time>
      </trkpt>
      <trkpt lat="48.65762" lon="2.69741">
        <ele>80.6</ele>
        <time>2015-04-25T09:40:41.000Z</time>
      </trkpt>
      <trkpt lat="48.6577" lon="2.69739">
        <ele>80.8</ele>
        <time>2015-04-25T09:40:47.000Z</time>
      </trkpt>
      <trkpt lat="48.65774" lon="2.69737">
        <ele>80.9</ele>
        <time>2015-04-25T09:40:50.000Z</time>
      </trkpt>
      <trkpt lat="48.65788" lon="2.69732">
        <ele>81.1</ele>
        <time>2015-04-25T09:41:00.000Z</time>
      </trkpt>
      <trkpt lat="48.65799" lon="2.69729">
        <ele>80.9</ele>
        <time>2015-04-25T09:41:07.000Z</time>
      </trkpt>
      <trkpt lat="48.65809" lon="2.69726">
        <ele>81</ele>
        <time>2015-04-25T09:41:15.000Z</time>
      </trkpt>
      <trkpt lat="48.65812" lon="2.69726">
        <ele>81.1</ele>
        <time>2015-04-25T09:41:17.000Z</time>
      </trkpt>
      <trkpt lat="48.65817" lon="2.69725">
        <ele>81.3</ele>
        <time>2015-04-25T09:41:20.000Z</time>
      </trkpt>
      <trkpt lat="48.65818" lon="2.69725">
        <ele>81.3</ele>
        <time>2015-04-25T09:41:21.000Z</time>
      </trkpt>
      <trkpt lat="48.65831" lon="2.69722">
        <ele>81.9</ele>
        <time>2015-04-25T09:41:30.000Z</time>
      </trkpt>
      <trkpt lat="48.65845" lon="2.69719">
        <ele>81.6</ele>
        <time>2015-04-25T09:41:40.000Z</time>
      </trkpt>
      <trkpt lat="48.65855" lon="2.69719">
        <ele>81.3</ele>
        <time>2015-04-25T09:41:47.000Z</time>
      </trkpt>
      <trkpt lat="48.65867" lon="2.69718">
        <ele>81</ele>
        <time>2015-04-25T09:41:55.000Z</time>
      </trkpt>
      <trkpt lat="48.65878" lon="2.69718">
        <ele>80.6</ele>
        <time>2015-04-25T09:42:03.000Z</time>
      </trkpt>
      <trkpt lat="48.65882" lon="2.69717">
        <ele>80.4</ele>
        <time>2015-04-25T09:42:06.000Z</time>
      </trkpt>
      <trkpt lat="48.65885" lon="2.69717">
        <ele>80.3</ele>
        <time>2015-04-25T09:42:08.000Z</time>
      </trkpt>
      <trkpt lat="48.6589" lon="2.69717">
        <ele>80.2</ele>
        <time>2015-04-25T09:42:12.000Z</time>
      </trkpt>
      <trkpt lat="48.65895" lon="2.69716">
        <ele>80</ele>
        <time>2015-04-25T09:42:16.000Z</time>
      </trkpt>
      <trkpt lat="48.65907" lon="2.69713">
        <ele>79.7</ele>
        <time>2015-04-25T09:42:25.000Z</time>
      </trkpt>
      <trkpt lat="48.65919" lon="2.69711">
        <ele>79.4</ele>
        <time>2015-04-25T09:42:34.000Z</time>
      </trkpt>
      <trkpt lat="48.65931" lon="2.69711">
        <ele>79.1</ele>
        <time>2015-04-25T09:42:42.000Z</time>
      </trkpt>
      <trkpt lat="48.65944" lon="2.69709">
        <ele>78.9</ele>
        <time>2015-04-25T09:42:51.000Z</time>
      </trkpt>
      <trkpt lat="48.65956" lon="2.69706">
        <ele>79</ele>
        <time>2015-04-25T09:42:59.000Z</time>
      </trkpt>
      <trkpt lat="48.6597" lon="2.69701">
        <ele>78.8</ele>
        <time>2015-04-25T09:43:09.000Z</time>
      </trkpt>
      <trkpt lat="48.65985" lon="2.69697">
        <ele>78.5</ele>
        <time>2015-04-25T09:43:19.000Z</time>
      </trkpt>
      <trkpt lat="48.66002" lon="2.69695">
        <ele>78</ele>
        <time>2015-04-25T09:43:30.000Z</time>
      </trkpt>
      <trkpt lat="48.66015" lon="2.69694">
        <ele>78</ele>
        <time>2015-04-25T09:43:39.000Z</time>
      </trkpt>
      <trkpt lat="48.66032" lon="2.69689">
        <ele>77.9</ele>
        <time>2015-04-25T09:43:49.000Z</time>
      </trkpt>
      <trkpt lat="48.66043" lon="2.69687">
        <ele>77.6</ele>
        <time>2015-04-25T09:43:57.000Z</time>
      </trkpt>
      <trkpt lat="48.66048" lon="2.69685">
        <ele>77.5</ele>
        <time>2015-04-25T09:44:00.000Z</time>
      </trkpt>
      <trkpt lat="48.66051" lon="2.69683">
        <ele>77.5</ele>
        <time>2015-04-25T09:44:02.000Z</time>
      </trkpt>
      <trkpt lat="48.66058" lon="2.6968">
        <ele>77.5</ele>
        <time>2015-04-25T09:44:07.000Z</time>
      </trkpt>
      <trkpt lat="48.66061" lon="2.69678">
        <ele>77.6</ele>
        <time>2015-04-25T09:44:09.000Z</time>
      </trkpt>
      <trkpt lat="48.66074" lon="2.69674">
        <ele>77.7</ele>
        <time>2015-04-25T09:44:17.000Z</time>
      </trkpt>
      <trkpt lat="48.66088" lon="2.69671">
        <ele>77.8</ele>
        <time>2015-04-25T09:44:26.000Z</time>
      </trkpt>
      <trkpt lat="48.66096" lon="2.6967">
        <ele>77.8</ele>
        <time>2015-04-25T09:44:32.000Z</time>
      </trkpt>
      <trkpt lat="48.66099" lon="2.69669">
        <ele>77.9</ele>
        <time>2015-04-25T09:44:34.000Z</time>
      </trkpt>
      <trkpt lat="48.66113" lon="2.69664">
        <ele>78.1</ele>
        <time>2015-04-25T09:44:44.000Z</time>
      </trkpt>
      <trkpt lat="48.66125" lon="2.69661">
        <ele>78.2</ele>
        <time>2015-04-25T09:44:53.000Z</time>
      </trkpt>
      <trkpt lat="48.66137" lon="2.69657">
        <ele>78.3</ele>
        <time>2015-04-25T09:45:01.000Z</time>
      </trkpt>
      <trkpt lat="48.6615" lon="2.69653">
        <ele>78.3</ele>
        <time>2015-04-25T09:45:10.000Z</time>
      </trkpt>
      <trkpt lat="48.66163" lon="2.6965">
        <ele>78.2</ele>
        <time>2015-04-25T09:45:19.000Z</time>
      </trkpt>
      <trkpt lat="48.66164" lon="2.6965">
        <ele>78.2</ele>
        <time>2015-04-25T09:45:20.000Z</time>
      </trkpt>
      <trkpt lat="48.66173" lon="2.69647">
        <ele>78.4</ele>
        <time>2015-04-25T09:45:26.000Z</time>
      </trkpt>
      <trkpt lat="48.66185" lon="2.69641">
        <ele>78.8</ele>
        <time>2015-04-25T09:45:34.000Z</time>
      </trkpt>
      <trkpt lat="48.66193" lon="2.69638">
        <ele>79</ele>
        <time>2015-04-25T09:45:40.000Z</time>
      </trkpt>
      <trkpt lat="48.66204" lon="2.69635">
        <ele>78.7</ele>
        <time>2015-04-25T09:45:47.000Z</time>
      </trkpt>
      <trkpt lat="48.66207" lon="2.69634">
        <ele>78.6</ele>
        <time>2015-04-25T09:45:49.000Z</time>
      </trkpt>
      <trkpt lat="48.66213" lon="2.69632">
        <ele>78.5</ele>
        <time>2015-04-25T09:45:53.000Z</time>
      </trkpt>
      <trkpt lat="48.66225" lon="2.69628">
        <ele>78.4</ele>
        <time>2015-04-25T09:46:01.000Z</time>
      </trkpt>
      <trkpt lat="48.66238" lon="2.69624">
        <ele>78.3</ele>
        <time>2015-04-25T09:46:10.000Z</time>
      </trkpt>
      <trkpt lat="48.66254" lon="2.6962">
        <ele>78.4</ele>
        <time>2015-04-25T09:46:21.000Z</time>
      </trkpt>
      <trkpt lat="48.66264" lon="2.69618">
        <ele>78.5</ele>
        <time>2015-04-25T09:46:28.000Z</time>
      </trkpt>
      <trkpt lat="48.66268" lon="2.69618">
        <ele>78.5</ele>
        <time>2015-04-25T09:46:30.000Z</time>
      </trkpt>
      <trkpt lat="48.66272" lon="2.69616">
        <ele>78.6</ele>
        <time>2015-04-25T09:46:33.000Z</time>
      </trkpt>
      <trkpt lat="48.66281" lon="2.69615">
        <ele>78.7</ele>
        <time>2015-04-25T09:46:38.000Z</time>
      </trkpt>
      <trkpt lat="48.66289" lon="2.69614">
        <ele>78.8</ele>
        <time>2015-04-25T09:46:44.000Z</time>
      </trkpt>
      <trkpt lat="48.66299" lon="2.69613">
        <ele>78.9</ele>
        <time>2015-04-25T09:46:50.000Z</time>
      </trkpt>
      <trkpt lat="48.66311" lon="2.69609">
        <ele>79.1</ele>
        <time>2015-04-25T09:46:58.000Z</time>
      </trkpt>
      <trkpt lat="48.66323" lon="2.69604">
        <ele>79.2</ele>
        <time>2015-04-25T09:47:06.000Z</time>
      </trkpt>
      <trkpt lat="48.66324" lon="2.69604">
        <ele>79.3</ele>
        <time>2015-04-25T09:47:07.000Z</time>
      </trkpt>
      <trkpt lat="48.66332" lon="2.69601">
        <ele>79.4</ele>
        <time>2015-04-25T09:47:12.000Z</time>
      </trkpt>
      <trkpt lat="48.6634" lon="2.69595">
        <ele>79.5</ele>
        <time>2015-04-25T09:47:17.000Z</time>
      </trkpt>
      <trkpt lat="48.66341" lon="2.69594">
        <ele>79.5</ele>
        <time>2015-04-25T09:47:18.000Z</time>
      </trkpt>
      <trkpt lat="48.6635" lon="2.69592">
        <ele>79.5</ele>
        <time>2015-04-25T09:47:23.000Z</time>
      </trkpt>
      <trkpt lat="48.66351" lon="2.69591">
        <ele>79.5</ele>
        <time>2015-04-25T09:47:24.000Z</time>
      </trkpt>
      <trkpt lat="48.66357" lon="2.69589">
        <ele>79.6</ele>
        <time>2015-04-25T09:47:28.000Z</time>
      </trkpt>
      <trkpt lat="48.66363" lon="2.69588">
        <ele>79.7</ele>
        <time>2015-04-25T09:47:32.000Z</time>
      </trkpt>
      <trkpt lat="48.66372" lon="2.69584">
        <ele>80</ele>
        <time>2015-04-25T09:47:38.000Z</time>
      </trkpt>
      <trkpt lat="48.66379" lon="2.69583">
        <ele>80</ele>
        <time>2015-04-25T09:47:42.000Z</time>
      </trkpt>
      <trkpt lat="48.66382" lon="2.69581">
        <ele>80.1</ele>
        <time>2015-04-25T09:47:44.000Z</time>
      </trkpt>
      <trkpt lat="48.66392" lon="2.69578">
        <ele>80.1</ele>
        <time>2015-04-25T09:47:51.000Z</time>
      </trkpt>
      <trkpt lat="48.66408" lon="2.69571">
        <ele>79.7</ele>
        <time>2015-04-25T09:48:01.000Z</time>
      </trkpt>
      <trkpt lat="48.66419" lon="2.69567">
        <ele>79.6</ele>
        <time>2015-04-25T09:48:08.000Z</time>
      </trkpt>
      <trkpt lat="48.66432" lon="2.69566">
        <ele>80</ele>
        <time>2015-04-25T09:48:16.000Z</time>
      </trkpt>
      <trkpt lat="48.66442" lon="2.69571">
        <ele>79.9</ele>
        <time>2015-04-25T09:48:23.000Z</time>
      </trkpt>
      <trkpt lat="48.66455" lon="2.69576">
        <ele>79.8</ele>
        <time>2015-04-25T09:48:31.000Z</time>
      </trkpt>
      <trkpt lat="48.66463" lon="2.69578">
        <ele>79.9</ele>
        <time>2015-04-25T09:48:36.000Z</time>
      </trkpt>
      <trkpt lat="48.66464" lon="2.69578">
        <ele>79.9</ele>
        <time>2015-04-25T09:48:37.000Z</time>
      </trkpt>
      <trkpt lat="48.66473" lon="2.69579">
        <ele>80.1</ele>
        <time>2015-04-25T09:48:43.000Z</time>
      </trkpt>
      <trkpt lat="48.66477" lon="2.69579">
        <ele>80.1</ele>
        <time>2015-04-25T09:48:46.000Z</time>
      </trkpt>
      <trkpt lat="48.66482" lon="2.6958">
        <ele>80.1</ele>
        <time>2015-04-25T09:48:49.000Z</time>
      </trkpt>
      <trkpt lat="48.66491" lon="2.69581">
        <ele>80</ele>
        <time>2015-04-25T09:48:56.000Z</time>
      </trkpt>
      <trkpt lat="48.66503" lon="2.69583">
        <ele>80</ele>
        <time>2015-04-25T09:49:03.000Z</time>
      </trkpt>
      <trkpt lat="48.66514" lon="2.69585">
        <ele>79.9</ele>
        <time>2015-04-25T09:49:09.000Z</time>
      </trkpt>
      <trkpt lat="48.66522" lon="2.69586">
        <ele>79.9</ele>
        <time>2015-04-25T09:49:14.000Z</time>
      </trkpt>
      <trkpt lat="48.66525" lon="2.69586">
        <ele>79.9</ele>
        <time>2015-04-25T09:49:16.000Z</time>
      </trkpt>
      <trkpt lat="48.66529" lon="2.69587">
        <ele>79.9</ele>
        <time>2015-04-25T09:49:19.000Z</time>
      </trkpt>
      <trkpt lat="48.66537" lon="2.69587">
        <ele>79.9</ele>
        <time>2015-04-25T09:49:24.000Z</time>
      </trkpt>
      <trkpt lat="48.66538" lon="2.69587">
        <ele>79.9</ele>
        <time>2015-04-25T09:49:25.000Z</time>
      </trkpt>
      <trkpt lat="48.66546" lon="2.69588">
        <ele>79.9</ele>
        <time>2015-04-25T09:49:30.000Z</time>
      </trkpt>
      <trkpt lat="48.66559" lon="2.69589">
        <ele>80</ele>
        <time>2015-04-25T09:49:38.000Z</time>
      </trkpt>
      <trkpt lat="48.66565" lon="2.6959">
        <ele>80</ele>
        <time>2015-04-25T09:49:43.000Z</time>
      </trkpt>
      <trkpt lat="48.6657" lon="2.69588">
        <ele>80</ele>
        <time>2015-04-25T09:49:47.000Z</time>
      </trkpt>
      <trkpt lat="48.66574" lon="2.69589">
        <ele>80</ele>
        <time>2015-04-25T09:49:49.000Z</time>
      </trkpt>
      <trkpt lat="48.66581" lon="2.69595">
        <ele>80</ele>
        <time>2015-04-25T09:49:54.000Z</time>
      </trkpt>
      <trkpt lat="48.66583" lon="2.69596">
        <ele>80</ele>
        <time>2015-04-25T09:49:55.000Z</time>
      </trkpt>
      <trkpt lat="48.66593" lon="2.69601">
        <ele>80.3</ele>
        <time>2015-04-25T09:50:01.000Z</time>
      </trkpt>
      <trkpt lat="48.66602" lon="2.69607">
        <ele>80.7</ele>
        <time>2015-04-25T09:50:07.000Z</time>
      </trkpt>
      <trkpt lat="48.66612" lon="2.69612">
        <ele>81</ele>
        <time>2015-04-25T09:50:14.000Z</time>
      </trkpt>
      <trkpt lat="48.66624" lon="2.69619">
        <ele>81.6</ele>
        <time>2015-04-25T09:50:22.000Z</time>
      </trkpt>
      <trkpt lat="48.66635" lon="2.69627">
        <ele>82.4</ele>
        <time>2015-04-25T09:50:30.000Z</time>
      </trkpt>
      <trkpt lat="48.66646" lon="2.69638">
        <ele>83.3</ele>
        <time>2015-04-25T09:50:39.000Z</time>
      </trkpt>
      <trkpt lat="48.66648" lon="2.69639">
        <ele>83.3</ele>
        <time>2015-04-25T09:50:40.000Z</time>
      </trkpt>
      <trkpt lat="48.66654" lon="2.69641">
        <ele>83.5</ele>
        <time>2015-04-25T09:50:44.000Z</time>
      </trkpt>
      <trkpt lat="48.66655" lon="2.6964">
        <ele>83.6</ele>
        <time>2015-04-25T09:50:45.000Z</time>
      </trkpt>
      <trkpt lat="48.66657" lon="2.69642">
        <ele>83.6</ele>
        <time>2015-04-25T09:50:46.000Z</time>
      </trkpt>
      <trkpt lat="48.6666" lon="2.69642">
        <ele>83.7</ele>
        <time>2015-04-25T09:50:48.000Z</time>
      </trkpt>
      <trkpt lat="48.66663" lon="2.69642">
        <ele>83.9</ele>
        <time>2015-04-25T09:50:50.000Z</time>
      </trkpt>
      <trkpt lat="48.66666" lon="2.69642">
        <ele>84</ele>
        <time>2015-04-25T09:50:52.000Z</time>
      </trkpt>
      <trkpt lat="48.66672" lon="2.69644">
        <ele>84</ele>
        <time>2015-04-25T09:50:56.000Z</time>
      </trkpt>
      <trkpt lat="48.66682" lon="2.69652">
        <ele>84</ele>
        <time>2015-04-25T09:51:04.000Z</time>
      </trkpt>
      <trkpt lat="48.66688" lon="2.69658">
        <ele>84</ele>
        <time>2015-04-25T09:51:09.000Z</time>
      </trkpt>
      <trkpt lat="48.66686" lon="2.69668">
        <ele>84</ele>
        <time>2015-04-25T09:51:14.000Z</time>
      </trkpt>
      <trkpt lat="48.66685" lon="2.6967">
        <ele>84</ele>
        <time>2015-04-25T09:51:15.000Z</time>
      </trkpt>
      <trkpt lat="48.66682" lon="2.69679">
        <ele>84</ele>
        <time>2015-04-25T09:51:21.000Z</time>
      </trkpt>
      <trkpt lat="48.66678" lon="2.69686">
        <ele>84</ele>
        <time>2015-04-25T09:51:26.000Z</time>
      </trkpt>
      <trkpt lat="48.66678" lon="2.69686">
        <ele>84</ele>
        <time>2015-04-25T09:51:27.000Z</time>
      </trkpt>
      <trkpt lat="48.66677" lon="2.69685">
        <ele>84</ele>
        <time>2015-04-25T09:51:32.000Z</time>
      </trkpt>
      <trkpt lat="48.66674" lon="2.69694">
        <ele>84</ele>
        <time>2015-04-25T09:51:36.000Z</time>
      </trkpt>
      <trkpt lat="48.66668" lon="2.6971">
        <ele>84</ele>
        <time>2015-04-25T09:51:41.000Z</time>
      </trkpt>
      <trkpt lat="48.66662" lon="2.69727">
        <ele>83.9</ele>
        <time>2015-04-25T09:51:46.000Z</time>
      </trkpt>
      <trkpt lat="48.66662" lon="2.69729">
        <ele>83.9</ele>
        <time>2015-04-25T09:51:47.000Z</time>
      </trkpt>
      <trkpt lat="48.6666" lon="2.69732">
        <ele>83.9</ele>
        <time>2015-04-25T09:51:50.000Z</time>
      </trkpt>
      <trkpt lat="48.66659" lon="2.69733">
        <ele>83.9</ele>
        <time>2015-04-25T09:51:54.000Z</time>
      </trkpt>
      <trkpt lat="48.66658" lon="2.69736">
        <ele>84</ele>
        <time>2015-04-25T09:52:04.000Z</time>
      </trkpt>
      <trkpt lat="48.6665" lon="2.6975">
        <ele>84.6</ele>
        <time>2015-04-25T09:52:09.000Z</time>
      </trkpt>
      <trkpt lat="48.66643" lon="2.69761">
        <ele>84.4</ele>
        <time>2015-04-25T09:52:14.000Z</time>
      </trkpt>
    </trkseg>
  </trk>
</gpx>